[[{"header":{"parameterUnit":"m.s-1","parameterCategory":1,"la1":30.6,"la2":28.766,"lo1":-90.7593,"lo2":-88.6598,"dy":0.0162,"dx":0.0183,"nx":116,"ny":114,"refTime":"2023-04-27T00:00:00:Z","depth":0,"parameterNumber":2,"parameterNumberName":"U-component_of_WINDS"},"data":[0.0,0.0,0.0,0.0,0.0,0.0,0.0,0.0,0.0,0.0,0.0,0.0,0.0,0.0,0.0,0.0,0.0,0.0,0.0,0.0,0.0,0.0,0.0,0.0,0.0,0.0,0.0,0.0,0.0,0.0,0.0,0.0,0.0,0.0,0.0,0.0,0.0,0.0,0.0,0.0,0.0,0.0,0.0,0.0,0.0,0.0,0.0,0.0,0.0,0.0,0.0,0.0,0.0,0.0,0.0,0.0,0.0,0.0,0.0,0.0,0.0,0.0,0.0,0.0,0.0,0.0,0.0,0.0,0.0,0.0,0.0,0.0,0.0,0.0,0.0,0.0,0.0,0.0,0.0,0.0,0.0,0.0,0.0,0.0,0.0,0.0,0.0,0.0,0.0,0.0,0.0,0.0,0.0,0.0,0.0,0.0,0.0,0.0,0.0,0.0,0.0,0.0,0.0,0.0,0.0,0.0,0.0,0.0,0.0,0.0,0.0,0.0,0.0,0.0,0.0,0.0,0.0,0.0,0.0,0.0,0.0,0.0,0.0,0.0,0.0,0.0,0.0,0.0,0.0,0.0,0.0,0.0,0.0,0.0,0.0,0.0,0.0,0.0,0.0,0.0,0.0,0.0,0.0,0.0,0.0,0.0,0.0,0.0,0.0,0.0,0.0,0.0,0.0,0.0,0.0,0.0,0.0,0.0,0.0,0.0,0.0,0.0,0.0,0.0,0.0,0.0,0.0,0.0,0.0,0.0,0.0,0.0,0.0,0.0,0.0,0.0,0.0,0.0,0.0,0.0,0.0,0.0,0.0,0.0,0.0,0.0,0.0,0.0,0.0,0.0,0.0,0.0,0.0,0.0,0.0,0.0,0.0,0.0,0.0,0.0,0.0,0.0,0.0,0.0,0.0,0.0,0.0,0.0,0.0,0.0,0.0,0.0,0.0,0.0,0.0,0.0,0.0,0.0,0.0,0.0,0.0,0.0,0.0,0.0,0.0,0.0,0.0,0.0,0.0,0.0,0.0,0.0,0.0,0.0,0.0,0.0,0.0,0.0,0.0,0.0,0.0,0.0,0.0,0.0,0.0,0.0,0.0,0.0,0.0,0.0,0.0,0.0,0.0,0.0,0.0,0.0,0.0,0.0,0.0,0.0,0.0,0.0,0.0,0.0,0.0,0.0,0.0,0.0,0.0,0.0,0.0,0.0,0.0,0.0,0.0,0.0,0.0,0.0,0.0,0.0,0.0,0.0,0.0,0.0,0.0,0.0,0.0,0.0,0.0,0.0,0.0,0.0,0.0,0.0,0.0,0.0,0.0,0.0,0.0,0.0,0.0,0.0,0.0,0.0,0.0,0.0,0.0,0.0,0.0,0.0,0.0,0.0,0.0,0.0,0.0,0.0,0.0,0.0,0.0,0.0,0.0,0.0,0.0,0.0,0.0,0.0,0.0,0.0,0.0,0.0,0.0,0.0,0.0,0.0,0.0,0.0,0.0,0.0,0.0,0.0,0.0,0.0,0.0,0.0,0.0,0.0,0.0,0.0,0.0,0.0,0.0,0.0,0.0,0.0,0.0,0.0,0.0,0.0,0.0,0.0,0.0,0.0,0.0,0.0,0.0,0.0,0.0,0.0,0.0,0.0,0.0,0.0,0.0,0.0,0.0,0.0,0.0,0.0,0.0,0.0,0.0,0.0,0.0,0.0,0.0,0.0,0.0,0.0,0.0,0.0,0.0,0.0,0.0,0.0,0.0,0.0,0.0,0.0,0.0,0.0,0.0,0.0,0.0,0.0,0.0,0.0,0.0,0.0,0.0,0.0,0.0,0.0,0.0,0.0,0.0,0.0,0.0,0.0,0.0,0.0,0.0,0.0,0.0,0.0,0.0,0.0,0.0,0.0,0.0,0.0,0.0,0.0,0.0,0.0,0.0,0.0,0.0,0.0,0.0,0.0,0.0,0.0,0.0,0.0,0.0,0.0,0.0,0.0,0.0,0.0,0.0,0.0,0.0,0.0,0.0,0.0,0.0,0.0,0.0,0.0,0.0,0.0,0.0,0.0,0.0,0.0,0.0,0.0,0.0,0.0,0.0,0.0,0.0,0.0,0.0,0.0,0.0,0.0,0.0,0.0,0.0,0.0,0.0,0.0,0.0,0.0,0.0,0.0,0.0,0.0,0.0,0.0,0.0,0.0,0.0,0.0,0.0,0.0,0.0,0.0,0.0,0.0,0.0,0.0,0.0,0.0,0.0,0.0,0.0,0.0,0.0,0.0,0.0,0.0,0.0,0.0,0.0,0.0,0.0,0.0,0.0,0.0,0.0,0.0,0.0,0.0,0.0,0.0,0.0,0.0,0.0,0.0,0.0,0.0,0.0,0.0,0.0,0.0,0.0,0.0,0.0,0.0,0.0,0.0,0.0,0.0,0.0,0.0,0.0,0.0,0.0,0.0,0.0,0.0,0.0,0.0,0.0,0.0,0.0,0.0,0.0,0.0,0.0,0.0,0.0,0.0,0.0,0.0,0.0,0.0,0.0,0.0,0.0,0.0,0.0,0.0,0.0,0.0,0.0,0.0,0.0,0.0,0.0,0.0,0.0,0.0,0.0,0.0,0.0,0.0,0.0,0.0,0.0,0.0,0.0,0.0,0.0,0.0,0.0,0.0,0.0,0.0,0.0,0.0,0.0,0.0,0.0,0.0,0.0,0.0,0.0,0.0,0.0,0.0,0.0,0.0,0.0,0.0,0.0,0.0,0.0,0.0,0.0,0.0,0.0,0.0,0.0,0.0,0.0,0.0,0.0,0.0,0.0,0.0,0.0,0.0,0.0,0.0,0.0,0.0,0.0,0.0,0.0,0.0,0.0,0.0,0.0,0.0,0.0,0.0,0.0,0.0,0.0,0.0,0.0,0.0,0.0,0.0,0.0,0.0,0.0,0.0,0.0,0.0,0.0,0.0,0.0,0.0,0.0,0.0,0.0,0.0,0.0,0.0,0.0,0.0,0.0,0.0,0.0,0.0,0.0,0.0,0.0,0.0,0.0,0.0,0.0,0.0,0.0,0.0,0.0,0.0,0.0,0.0,0.0,0.0,0.0,0.0,0.0,0.0,0.0,0.0,0.0,0.0,0.0,0.0,0.0,0.0,0.0,0.0,0.0,0.0,0.0,0.0,0.0,0.0,0.0,0.0,0.0,0.0,0.0,0.0,0.0,0.0,0.0,0.0,0.0,0.0,0.0,0.0,0.0,0.0,0.0,0.0,0.0,0.0,0.0,0.0,0.0,0.0,0.0,0.0,0.0,0.0,0.0,0.0,0.0,0.0,0.0,0.0,0.0,0.0,0.0,0.0,0.0,0.0,0.0,0.0,0.0,0.0,0.0,0.0,0.0,0.0,0.0,0.0,0.0,0.0,0.0,0.0,0.0,0.0,0.0,0.0,0.0,0.0,0.0,0.0,0.0,0.0,0.0,0.0,0.0,0.0,0.0,0.0,0.0,0.0,0.0,0.0,0.0,0.0,0.0,0.0,0.0,0.0,0.0,0.0,0.0,0.0,0.0,0.0,0.0,0.0,0.0,0.0,0.0,0.0,0.0,0.0,0.0,0.0,0.0,0.0,0.0,0.0,0.0,0.0,0.0,0.0,0.0,0.0,0.0,0.0,0.0,0.0,0.0,0.0,0.0,0.0,0.0,0.0,0.0,0.0,0.0,0.0,0.0,0.0,0.0,0.0,0.0,0.0,0.0,0.0,0.0,0.0,0.0,0.0,0.0,0.0,0.0,0.0,0.0,0.0,0.0,0.0,0.0,0.0,0.0,0.0,0.0,0.0,0.0,0.0,0.0,0.0,0.0,0.0,0.0,0.0,0.0,0.0,0.0,0.0,0.0,0.0,0.0,0.0,0.0,0.0,0.0,0.0,0.0,0.0,0.0,0.0,0.0,0.0,0.0,0.0,0.0,0.0,0.0,0.0,0.0,0.0,0.0,0.0,0.0,0.0,0.0,0.0,0.0,0.0,0.0,0.0,0.0,0.0,0.0,0.0,0.0,0.0,0.0,0.0,0.0,0.0,0.0,0.0,0.0,0.0,0.0,0.0,0.0,0.0,0.0,0.0,0.0,0.0,0.0,0.0,0.0,0.0,0.0,0.0,0.0,0.0,0.0,0.0,0.0,0.0,0.0,0.0,0.0,0.0,0.0,0.0,0.0,0.0,0.0,0.0,0.0,0.0,0.0,0.0,0.0,0.0,0.0,0.0,0.0,0.0,0.0,0.0,0.0,0.0,0.0,0.0,0.0,0.0,0.0,0.0,0.0,0.0,0.0,0.0,0.0,0.0,0.0,0.0,0.0,0.0,0.0,0.0,0.0,0.0,0.0,0.0,0.0,0.0,0.0,0.0,0.0,0.0,0.0,0.0,0.0,0.0,0.0,0.0,0.0,0.0,0.0,0.0,0.0,0.0,0.0,0.0,0.0,0.0,0.0,0.0,0.0,0.0,0.0,0.0,0.0,0.0,0.0,0.0,0.0,0.0,0.0,0.0,0.0,0.0,0.0,0.0,0.0,0.0,0.0,0.0,0.0,0.0,0.0,0.0,0.0,0.0,0.0,0.0,0.0,0.0,0.0,0.0,0.0,0.0,0.0,0.0,0.0,0.0,0.0,0.0,0.0,0.0,0.0,0.0,0.0,0.0,0.0,0.0,0.0,0.0,0.0,0.0,0.0,0.0,0.0,0.0,0.0,0.0,0.0,0.0,0.0,0.0,0.0,0.0,0.0,0.0,0.0,0.0,0.0,0.0,0.0,0.0,0.0,0.0,0.0,0.0,0.0,0.0,0.0,0.0,0.0,0.0,0.0,0.0,0.0,0.0,0.0,0.0,0.0,0.0,0.0,0.0,0.0,0.0,0.0,0.0,0.0,0.0,0.0,0.0,0.0,0.0,0.0,0.0,0.0,0.0,0.0,0.0,0.0,0.0,0.0,0.0,0.0,0.0,0.0,0.0,0.0,0.0,0.0,0.0,0.0,0.0,0.0,0.0,0.0,0.0,0.0,0.0,0.0,0.0,0.0,0.0,0.0,0.0,0.0,0.0,0.0,0.0,0.0,0.0,0.0,0.0,0.0,0.0,0.0,0.0,0.0,0.0,0.0,0.0,0.0,0.0,0.0,0.0,0.0,0.0,0.0,0.0,0.0,0.0,0.0,0.0,0.0,0.0,0.0,0.0,0.0,0.0,0.0,0.0,0.0,0.0,0.0,0.0,0.0,0.0,0.0,0.0,0.0,0.0,0.0,0.0,0.0,0.0,0.0,0.0,0.0,0.0,0.0,0.0,0.0,0.0,0.0,0.0,0.0,0.0,0.0,0.0,0.0,0.0,0.0,0.0,0.0,0.0,0.0,0.0,0.0,0.0,0.0,0.0,0.0,0.0,0.0,0.0,0.0,0.0,0.0,0.0,0.0,0.0,0.0,0.0,0.0,0.0,0.0,0.0,0.0,0.0,0.0,0.0,0.0,0.0,0.0,0.0,0.0,0.0,0.0,0.0,0.0,0.0,0.0,0.0,0.0,0.0,0.0,0.0,0.0,0.0,0.0,0.0,0.0,0.0,0.0,0.0,0.0,0.0,0.0,0.0,0.0,0.0,0.0,0.0,0.0,0.0,0.0,0.0,0.0,0.0,0.0,0.0,0.0,0.0,0.0,0.0,0.0,0.0,0.0,0.0,0.0,0.0,0.0,0.0,0.0,0.0,0.0,0.0,0.0,0.0,0.0,0.0,0.0,0.0,0.0,0.0,0.0,0.0,0.0,0.0,0.0,0.0,0.0,0.0,0.0,0.0,0.0,0.0,0.0,0.0,0.0,0.0,0.0,0.0,0.0,0.0,0.0,0.0,0.0,0.0,0.0,0.0,0.0,0.0,0.0,0.0,0.0,0.0,0.0,0.0,0.0,0.0,0.0,0.0,0.0,0.0,0.0,0.0,0.0,0.0,0.0,0.0,0.0,0.0,0.0,0.0,0.0,0.0,0.0,0.0,0.0,0.0,0.0,0.0,0.0,0.0,0.0,0.0,0.0,0.0,0.0,0.0,0.0,0.0,0.0,0.0,0.0,0.0,0.0,0.0,0.0,0.0,-1.5685,0.0,0.0,0.0,0.0,0.0,0.0,0.0,0.0,0.0,0.0,0.0,0.0,0.0,0.0,0.0,0.0,0.0,0.0,0.0,0.0,0.0,0.0,0.0,0.0,0.0,0.0,0.0,0.0,0.0,0.0,0.0,0.0,0.0,0.0,0.0,0.0,0.0,0.0,-2.119,-2.1639,-2.166,-2.1251,-2.1875,-2.1846,-2.13,0.0,0.0,0.0,0.0,0.0,0.0,0.0,0.0,0.0,0.0,0.0,0.0,0.0,0.0,0.0,0.0,0.0,0.0,0.0,0.0,0.0,0.0,0.0,0.0,0.0,0.0,0.0,0.0,0.0,0.0,0.0,0.0,0.0,0.0,0.0,0.0,0.0,0.0,0.0,0.0,0.0,0.0,0.0,0.0,0.0,0.0,0.0,0.0,0.0,0.0,0.0,0.0,0.0,0.0,0.0,0.0,0.0,0.0,0.0,0.0,0.0,0.0,0.0,0.0,0.0,0.0,0.0,0.0,0.0,0.0,0.0,-1.5545,0.0,0.0,0.0,0.0,0.0,0.0,0.0,0.0,0.0,0.0,0.0,0.0,0.0,0.0,0.0,0.0,0.0,0.0,0.0,0.0,0.0,0.0,0.0,-2.0869,-2.0937,-2.083,-2.0762,-2.0684,0.0,0.0,0.0,0.0,0.0,0.0,-2.0615,-2.1435,-2.1631,-2.1123,-2.1161,-2.1494,-2.2002,-2.2432,-2.2051,-2.1075,-2.1543,0.0,0.0,0.0,0.0,0.0,0.0,0.0,0.0,0.0,0.0,0.0,0.0,0.0,0.0,0.0,0.0,0.0,0.0,0.0,0.0,0.0,0.0,0.0,0.0,0.0,0.0,0.0,0.0,0.0,0.0,0.0,0.0,0.0,0.0,0.0,0.0,0.0,0.0,0.0,0.0,0.0,0.0,0.0,0.0,0.0,0.0,0.0,0.0,0.0,0.0,0.0,0.0,0.0,0.0,0.0,0.0,0.0,0.0,0.0,0.0,0.0,0.0,0.0,-2.4484,-2.4045,-2.3026,-2.2213,-2.094,-1.9203,-1.7616,-1.6386,-1.554,0.0,0.0,0.0,0.0,0.0,0.0,0.0,0.0,0.0,0.0,0.0,0.0,0.0,0.0,0.0,0.0,0.0,0.0,0.0,0.0,0.0,0.0,-2.1896,-2.2235,-2.1762,-2.1367,-2.1103,-2.1103,0.0,0.0,0.0,0.0,0.0,-2.0605,-2.1435,-2.1484,-2.0693,-2.1045,-2.1609,-2.2441,-2.2871,-2.2978,-2.2711,-2.1717,-2.1442,-2.1569,0.0,0.0,0.0,0.0,0.0,0.0,0.0,0.0,0.0,0.0,0.0,0.0,0.0,0.0,0.0,0.0,0.0,0.0,0.0,0.0,0.0,0.0,0.0,0.0,0.0,0.0,0.0,0.0,0.0,0.0,0.0,0.0,0.0,0.0,0.0,0.0,0.0,0.0,0.0,0.0,0.0,-1.8484,-1.996,0.0,0.0,0.0,0.0,0.0,0.0,0.0,0.0,0.0,0.0,0.0,0.0,0.0,-2.7366,-2.7284,-2.7487,-2.7087,-2.6129,-2.5887,-2.5015,-2.3585,-2.3155,-2.2647,-2.2003,-2.0801,0.0,-1.7002,-1.5928,0.0,0.0,0.0,0.0,0.0,0.0,0.0,0.0,0.0,0.0,0.0,0.0,0.0,0.0,0.0,0.0,0.0,0.0,0.0,0.0,0.0,-2.1829,-2.218,-2.1906,-2.2148,-2.2012,-2.1239,-2.1504,0.0,0.0,0.0,-2.0937,-2.0937,-2.1318,-2.1328,-2.0937,-2.21,-2.2861,-2.3242,-2.3916,-2.4228,-2.4189,-2.3389,-2.2734,-2.2094,-2.0175,0.0,0.0,0.0,0.0,0.0,0.0,0.0,0.0,0.0,0.0,0.0,0.0,0.0,0.0,0.0,0.0,0.0,0.0,0.0,0.0,0.0,0.0,0.0,0.0,0.0,0.0,0.0,0.0,0.0,0.0,0.0,0.0,0.0,0.0,0.0,0.0,0.0,0.0,0.0,-2.1369,-2.312,-2.2824,-2.3055,-2.329,0.0,0.0,0.0,0.0,0.0,0.0,0.0,0.0,0.0,-2.7532,-2.8201,-2.8561,-2.8561,-2.8561,-2.8649,-2.88,-2.8362,-2.759,-2.6617,-2.5912,-2.5185,-2.4359,-2.3653,-2.2571,-2.12,-1.864,-1.7754,-1.7978,0.0,0.0,0.0,0.0,-1.7642,-1.7519,0.0,0.0,0.0,0.0,0.0,0.0,0.0,0.0,0.0,0.0,0.0,0.0,-2.1514,-2.1984,-2.2282,-2.2386,-2.2699,-2.2519,-2.1777,-2.1807,-2.1514,-2.0811,-2.0947,-2.1073,-2.119,-2.1307,-2.157,-2.2009,-2.333,-2.4121,-2.4473,-2.5215,-2.5673,-2.5761,-2.5166,-2.4199,-2.2886,-2.109,-2.0347,-2.0186,0.0,0.0,0.0,0.0,0.0,0.0,0.0,0.0,0.0,0.0,0.0,0.0,0.0,0.0,0.0,0.0,0.0,0.0,0.0,0.0,0.0,0.0,0.0,0.0,0.0,0.0,0.0,0.0,0.0,0.0,0.0,0.0,0.0,0.0,0.0,0.0,0.0,-2.4218,-2.6018,-2.4926,-2.5508,-2.5983,0.0,0.0,0.0,0.0,0.0,0.0,-2.949,-2.9653,-2.9728,-2.9728,-2.9905,-2.9993,-2.9993,-2.9803,-3.0154,-3.1022,-3.047,-2.9911,-2.9318,-2.8624,-2.7746,-2.6792,-2.6214,-2.5746,-2.5154,-2.1723,-2.0068,-1.9645,-1.9439,-1.9323,-1.9228,-1.9161,-1.8958,-1.8792,0.0,0.0,0.0,0.0,0.0,0.0,0.0,0.0,0.0,0.0,0.0,-2.1655,-2.235,-2.291,-2.3381,-2.3673,-2.2627,-2.2266,-2.3061,-2.1172,-2.0352,-2.1132,-2.081,-2.0801,-2.1181,-2.1641,-2.2646,-2.4258,-2.4346,-2.5029,-2.6269,-2.6709,-2.7139,-2.7552,-2.666,-2.5557,-2.4238,-2.2892,-2.2357,-2.2233,-2.066,0.0,0.0,0.0,0.0,0.0,0.0,0.0,0.0,0.0,0.0,0.0,0.0,0.0,0.0,0.0,0.0,0.0,0.0,0.0,0.0,0.0,0.0,0.0,0.0,0.0,0.0,0.0,0.0,0.0,0.0,0.0,0.0,0.0,0.0,0.0,0.0,0.0,0.0,-2.4736,-2.5837,0.0,0.0,0.0,0.0,-2.9488,-3.0091,-3.0658,-3.1235,-3.1763,-3.2039,-3.2039,-3.2579,-3.291,-3.291,-3.2315,-3.2077,-3.2127,-3.1574,-3.1019,-3.0528,-3.0478,-3.0113,-2.9548,-2.8445,-2.7961,-2.7644,-2.4351,-2.3462,-2.3989,-2.217,-2.194,-2.2482,-2.1022,-1.9989,-1.9199,0.0,0.0,0.0,0.0,0.0,0.0,0.0,0.0,-1.9805,-2.0107,-2.1293,-2.2327,-2.2875,-2.386,-2.449,-2.4617,-2.4463,-2.4023,-2.3257,-2.2168,-2.1611,-2.165,-2.0997,-2.0948,-2.1641,-2.2881,-2.3809,-2.4414,-2.5537,-2.6475,-2.7268,-2.7637,-2.792,-2.8066,-2.8027,-2.7451,-2.6367,-2.4238,-2.3174,-2.2842,-2.1412,-2.1246,0.0,0.0,0.0,0.0,0.0,0.0,0.0,0.0,0.0,0.0,0.0,0.0,0.0,0.0,0.0,0.0,0.0,0.0,0.0,0.0,0.0,0.0,0.0,0.0,0.0,0.0,0.0,0.0,0.0,0.0,0.0,0.0,0.0,0.0,0.0,0.0,0.0,-2.8424,-2.9518,0.0,-3.0154,-2.9781,-3.0161,-3.1813,-3.1411,-3.1825,-3.3445,-3.3382,-3.3458,-3.3822,-3.4022,-3.396,-3.3608,-3.3407,-3.3119,-3.2767,-3.219,-3.1825,-3.1625,-3.0922,-3.0507,-3.0254,-2.9514,-2.9197,-2.9123,-2.7948,-2.6474,-2.486,-2.3835,-2.3516,-2.3497,-2.3215,-2.2497,-2.1621,0.0,0.0,0.0,0.0,0.0,0.0,0.0,0.0,-2.0019,-2.0284,-2.1327,-2.2412,-2.3281,-2.4304,-2.4971,-2.5273,-2.5166,-2.4658,-2.3652,-2.25,-2.1865,-2.1885,-2.1465,-2.1631,-2.251,-2.4062,-2.5,-2.5293,-2.6592,-2.7451,-2.7933,-2.8164,-2.8369,-2.8516,-2.8789,-2.8691,-2.8237,-2.6309,-2.4863,-2.3746,-2.2559,-2.2773,-2.3495,0.0,0.0,0.0,0.0,0.0,0.0,0.0,0.0,0.0,0.0,0.0,0.0,0.0,0.0,0.0,0.0,0.0,0.0,0.0,0.0,0.0,0.0,0.0,0.0,0.0,0.0,0.0,0.0,0.0,0.0,0.0,0.0,0.0,0.0,0.0,-3.0244,-3.1574,-3.2516,-3.3056,-3.3056,-3.2536,-3.2805,-3.413,-3.3658,-3.4073,-3.5742,-3.5303,-3.5177,-3.5542,-3.5378,-3.5102,-3.4738,-3.4361,-3.3985,-3.3621,-3.2867,-3.2403,-3.219,-3.1474,-3.0959,-3.0595,-3.0231,-2.9967,-2.9792,-2.9792,-2.8584,-2.6663,-2.597,-2.5546,-2.5304,-2.5217,-2.462,-2.3845,0.0,0.0,0.0,0.0,0.0,0.0,0.0,-1.9932,-2.0206,-2.1064,-2.122,-2.1943,-2.3623,-2.4209,-2.4777,-2.5635,-2.4551,-2.3955,-2.4355,-2.1973,-2.0987,-2.1846,-2.2314,-2.2959,-2.3828,-2.5117,-2.6142,-2.7031,-2.7471,-2.7891,-2.8291,-2.8301,-2.8535,-2.8916,-2.8945,-2.9189,-2.9597,-2.9131,-2.751,-2.5174,-2.4219,-2.4326,-2.4912,0.0,0.0,0.0,0.0,0.0,0.0,0.0,0.0,0.0,0.0,0.0,0.0,0.0,0.0,0.0,0.0,0.0,0.0,0.0,0.0,0.0,0.0,0.0,0.0,0.0,0.0,0.0,0.0,0.0,0.0,0.0,0.0,0.0,-2.9716,-3.0796,-3.2089,-3.3771,-3.4474,-3.4781,-3.4781,-3.5257,-3.5855,-3.6443,-3.6923,-3.745,-3.8002,-3.75,-3.7186,-3.7186,-3.6694,-3.6392,-3.6355,-3.5253,-3.4655,-3.4663,-3.3583,-3.278,-3.224,-3.2227,-3.165,-3.067,-3.0633,-3.0319,-2.9817,-2.9804,-2.9792,-2.9624,-2.8557,-2.8136,-2.8004,-2.6964,-2.6251,-2.5596,0.0,0.0,0.0,0.0,0.0,0.0,-2.0254,-2.0429,-2.0469,-2.0713,-2.1887,-2.3047,-2.4121,-2.5205,-2.5947,-2.6191,-2.4727,-2.3711,-2.3525,-2.1367,-2.0625,-2.1836,-2.2881,-2.3994,-2.5128,-2.6162,-2.6934,-2.749,-2.791,-2.8174,-2.8301,-2.8603,-2.8809,-2.8945,-2.957,-2.9746,-2.9636,-2.9766,-2.9258,-2.8207,-2.6045,-2.4961,-2.4492,0.0,0.0,0.0,0.0,0.0,0.0,0.0,0.0,0.0,0.0,0.0,0.0,0.0,0.0,0.0,0.0,0.0,0.0,0.0,0.0,0.0,0.0,0.0,0.0,0.0,0.0,0.0,0.0,0.0,0.0,0.0,-2.9264,-3.0733,-3.1449,-3.2503,-3.3822,-3.5537,-3.6521,-3.7098,-3.7098,-3.7236,-3.7563,-3.819,-3.7927,-3.8027,-3.8605,-3.7713,-3.7186,-3.7186,-3.6694,-3.5981,-3.5177,-3.4876,-3.4324,-3.3533,-3.3219,-3.2993,-3.283,-3.2403,-3.2051,-3.1738,-3.0959,-3.0532,-3.0357,-2.9955,-2.9326,-2.8636,-2.9145,-2.9326,-2.9197,-2.8068,-2.7076,-2.608,0.0,0.0,0.0,0.0,0.0,0.0,0.0,-2.0293,-2.04,-2.0576,-2.2122,-2.335,-2.3828,-2.5215,-2.5889,-2.5352,-2.4531,-2.3643,-2.2738,-2.1611,-2.1426,-2.2373,-2.3643,-2.4853,-2.5986,-2.6855,-2.75,-2.793,-2.835,-2.8555,-2.8564,-2.8994,-2.9189,-2.9219,-2.9893,-3.0059,-2.9863,-3.0303,-3.0234,-2.9707,-2.8203,-2.7187,-2.6406,-2.4777,-2.4514,-2.4932,-2.4141,-2.4385,-2.494,-2.3701,0.0,0.0,0.0,0.0,0.0,0.0,0.0,0.0,0.0,0.0,0.0,0.0,0.0,0.0,0.0,0.0,0.0,0.0,0.0,0.0,0.0,0.0,0.0,0.0,-3.1506,-3.3219,-3.4462,-3.4813,-3.5554,-3.726,-3.7977,-3.8467,-3.8693,-3.8718,-3.8856,-3.9195,-3.8906,-3.8868,-3.9195,-3.814,-3.7638,-3.7877,-3.6945,-3.6216,-3.5755,-3.5257,-3.4625,-3.3759,-3.3533,-3.3307,-3.3111,-3.2729,-3.2315,0.0,-3.121,-3.0683,-3.0204,-2.9411,-2.8688,0.0,0.0,0.0,0.0,0.0,-2.6868,-2.5943,0.0,0.0,0.0,0.0,0.0,0.0,0.0,-1.9912,-2.0049,-2.0478,-2.2004,-2.2998,-2.2886,-2.4348,-2.4884,-2.3818,-2.3926,-2.3437,-2.1982,-2.2324,-2.2769,-2.3286,-2.4551,-2.5625,-2.6514,-2.7376,-2.792,-2.8291,-2.8711,-2.8916,-2.8926,-2.9414,-2.9695,-2.9658,-3.0088,-3.0273,-3.0303,-3.0713,-3.0654,-3.0273,-3.0215,-2.9893,-2.918,-2.6894,-2.668,-2.7432,-2.6182,-2.5605,-2.5332,-2.4707,0.0,0.0,0.0,0.0,0.0,0.0,0.0,0.0,0.0,0.0,0.0,0.0,0.0,0.0,0.0,0.0,0.0,0.0,0.0,0.0,0.0,0.0,0.0,0.0,-3.4236,-3.573,-3.7814,-3.7312,-3.7335,-3.8831,-3.9007,-3.9157,-3.9647,-3.9697,-3.9697,-3.9697,-3.9697,-3.9697,-3.9697,0.0,0.0,0.0,0.0,-3.6681,-3.6998,-3.6031,-3.5219,-3.4668,-3.4223,-3.3709,-3.3169,-3.3027,-3.2409,-3.1356,-3.1096,-3.0471,-2.95,-2.8355,-2.7844,-2.7763,-2.7884,-2.7279,-2.6307,-2.6307,-2.5987,-2.5451,0.0,0.0,0.0,0.0,0.0,0.0,0.0,-1.9912,-1.9941,-2.0029,-2.126,-2.2002,-2.16,-2.2519,-2.313,-2.3218,-2.236,-2.1855,-2.1885,-2.2598,-2.3516,-2.4648,-2.5615,-2.6533,-2.7454,-2.791,-2.8213,-2.8291,-2.8711,-2.8916,-2.8935,-2.9707,-3.0078,-3.0098,-3.0547,-3.0752,-3.0762,-3.085,-3.084,-3.0723,-3.0342,-2.9531,-2.8486,-2.7988,-2.7529,-2.7021,-2.6025,-2.6572,-2.7393,-2.5557,-2.5869,-2.6562,-2.456,-2.3809,0.0,0.0,0.0,0.0,0.0,0.0,0.0,0.0,0.0,0.0,0.0,0.0,0.0,0.0,0.0,0.0,0.0,0.0,0.0,-3.4066,-3.5705,-3.7174,-3.8517,-3.8906,-3.917,-3.9496,-3.9534,-3.9584,-3.9685,-3.9697,-3.9697,-3.9697,-3.9697,-3.9697,-3.9697,-3.9069,-3.8542,-3.8191,-3.7425,-3.6646,-3.5821,-3.5608,-3.5219,-3.468,0.0,0.0,-3.369,-3.2767,-3.1901,-3.1141,-2.9366,-2.8474,-2.8191,-2.7213,-2.6254,-2.5535,-2.6461,-2.613,-2.5126,-2.5126,-2.5062,-2.4956,0.0,0.0,0.0,0.0,0.0,0.0,0.0,-1.9463,-1.9678,-1.9883,-2.1064,-2.1631,-2.0967,-2.168,-2.1934,-2.1269,-2.082,-2.1133,-2.2484,-2.331,-2.4222,-2.5352,-2.6445,-2.7226,-2.7708,-2.8281,-2.8603,-2.8603,-2.9248,-2.956,-2.958,-3.0234,-3.0547,-3.0557,-3.0791,-3.0889,-3.0889,-3.0889,-3.0889,-3.0869,-3.0635,-3.0166,-2.9521,-2.8857,-2.834,-2.7891,-2.7246,-2.7432,-2.7783,-2.6484,-2.6484,-2.6719,-2.4971,-2.4424,-2.4258,0.0,0.0,0.0,0.0,0.0,0.0,0.0,0.0,0.0,0.0,0.0,0.0,0.0,0.0,-3.0977,-3.1743,0.0,-3.4763,-3.6144,-3.7299,-3.8316,-3.917,-3.9521,-3.9697,-3.9697,-3.9697,-3.9697,-3.9697,-3.9697,-3.9697,-3.9697,-3.9697,-3.9697,-3.9697,-3.917,-3.8868,-3.8856,-3.804,-3.7337,-3.6737,-3.6508,-3.5956,-3.5094,-3.5094,-3.47,-3.3853,-3.2644,-3.1636,-3.0695,-2.8724,-2.7739,-2.7417,-2.6176,-2.4967,-2.4006,-2.4595,-2.4435,-2.3963,-2.3963,-2.3963,-2.3963,0.0,0.0,0.0,0.0,0.0,0.0,0.0,-1.8936,-1.9287,-1.9619,-2.0674,-2.1124,-2.0422,-2.0889,-2.0801,-1.9641,-2.0015,-2.1303,-2.3657,-2.4329,-2.5153,-2.627,-2.7371,-2.791,-2.791,-2.8574,-2.8955,-2.9043,-2.9736,-3.0117,-3.0205,-3.0674,-3.0937,-3.1016,-3.1016,-3.1016,-3.1016,-3.1016,-3.0967,-3.0889,-3.0889,-3.084,-3.0635,-2.9482,-2.9092,-2.9082,-2.8418,-2.79,-2.7461,-2.6943,-2.6683,-2.6457,-2.5357,-2.5208,-2.5208,-2.4103,-2.386,0.0,0.0,0.0,0.0,0.0,0.0,0.0,0.0,-3.026,-3.1458,-3.2613,-3.3256,-3.413,-3.5544,-3.642,-3.7174,-3.804,-3.8655,-3.9182,-3.9634,-3.9697,-3.9697,-3.9697,-3.9697,-3.9697,-3.9697,-3.9697,-3.9697,-3.9697,-3.9697,-3.9697,-3.9697,-3.927,-3.9182,-3.9521,-3.8655,-3.8065,-3.7852,-3.7412,-3.6541,-3.5273,-3.5273,-3.4598,-3.3265,-3.2037,-3.0913,-2.9758,-2.801,-2.6911,-2.6357,-2.5029,-2.392,-2.3091,-2.3091,-2.3091,-2.3091,-2.3091,-2.3091,-2.3091,0.0,0.0,0.0,0.0,0.0,0.0,0.0,0.0,-1.8685,-1.8744,-1.9248,-1.9564,-1.9448,-1.9149,-1.9386,-2.0379,-2.1191,-2.2879,-2.5773,-2.5701,-2.6436,-2.8359,-2.8648,-2.8779,-2.8779,-2.8867,-2.9111,-2.9502,-2.959,-2.9834,-3.0205,-3.0674,-3.1094,-3.1445,-3.1445,-3.1445,-3.1445,-3.1445,-3.123,-3.0889,-3.0889,-3.0644,-3.0215,-2.9697,-2.9726,-2.9853,-2.8291,-2.7461,-2.6963,-2.6103,-2.6549,-2.7452,-2.7348,-2.7066,-2.6643,-2.6249,-2.5436,-2.4637,-2.4426,-2.6271,-2.8869,-3.1506,-3.2069,-3.3071,0.0,-3.693,-3.5965,-3.7066,-3.7754,-3.7928,-3.7161,-3.7877,-3.868,-3.8806,-3.9245,-3.9622,-3.9685,-3.9697,-3.9697,-3.9697,-3.9697,-3.9697,-3.9697,-3.9697,-3.9697,-3.9697,-3.9697,-3.9697,-3.9697,-3.9634,-3.9408,-3.8981,-3.8894,-3.8291,-3.7287,-3.7211,-3.6282,-3.4546,-3.4546,-3.3395,-3.119,-2.9927,-2.8839,-2.7781,-2.5711,-2.457,-2.4143,-2.353,-2.3222,-2.3091,-2.3091,-2.3091,-2.3091,-2.3091,-2.3091,-2.3091,0.0,0.0,0.0,0.0,0.0,0.0,0.0,0.0,0.0,-1.8598,-1.9014,-1.9196,-1.8903,-1.8508,-1.8577,-1.9379,-2.0246,-2.1858,-2.4476,-2.5118,-2.6235,-2.8258,-2.8461,-2.8672,-2.8916,-2.917,-2.9512,-2.9932,-3.0205,-3.043,-3.0605,-3.0801,-3.0986,-3.1162,-3.1406,-3.1514,-3.1514,-3.1514,-3.1416,-3.123,-3.0986,-3.0615,-3.0098,-2.918,-2.8476,-2.7891,-2.7178,-2.6475,0.0,-2.5176,-2.5909,-2.7076,-2.7102,-2.6976,-2.67,-2.6375,-2.5289,-2.4243,-2.4415,-2.717,-3.0277,-3.1541,-3.4026,-3.6634,-3.8743,-3.8981,-3.9094,-4.0199,-4.0666,-4.0691,-4.0214,-3.9948,-3.9823,-3.9823,-3.9747,-3.9697,-3.9697,-3.9421,-3.9082,-3.8755,-3.8718,-3.8969,-3.9634,-3.9697,-3.9697,-3.9697,-3.9697,-3.9697,-3.9697,-3.9697,-3.9584,-3.9358,-3.9346,-3.8969,-3.8228,-3.7097,-3.5936,-3.4863,-3.3691,-3.2381,-3.0838,-2.9573,-2.7963,-2.6101,-2.5177,-2.4414,-2.3779,-2.3594,-2.3369,-2.3091,-2.3091,-2.3091,-2.3091,-2.3091,-2.3091,-2.3091,0.0,0.0,0.0,0.0,0.0,0.0,0.0,0.0,0.0,0.0,-1.874,-1.8818,-1.8461,-1.8389,-1.8558,-1.9099,-1.9518,-2.0936,-2.3731,-2.4334,-2.5468,-2.7592,-2.8003,-2.831,-2.874,-2.917,-2.96,-3.0019,-3.0361,-3.0586,-3.0703,-3.083,-3.0957,-3.1074,-3.1377,-3.1514,-3.1514,-3.1514,-3.1377,-3.1133,-3.082,-3.0215,-2.9385,-2.834,-2.7002,-2.5674,-2.5674,-2.5029,-2.4186,-2.3828,-2.466,-2.5928,-2.618,-2.6264,-2.6222,-2.6067,-2.495,-2.3987,-2.493,-2.8118,-3.1394,-3.2454,-3.6309,-3.9912,-4.0162,-4.0965,-4.1831,-4.2472,-4.2539,-4.2338,-4.1982,-4.1153,-4.0463,-4.0312,-3.9961,-3.9697,-3.9697,-3.922,-3.8718,-3.8291,-3.8103,-3.8329,-3.9145,-3.9371,-3.9534,-3.9685,-3.9697,-3.9697,-3.9697,-3.9697,-3.9697,-3.9697,-3.9697,-3.9254,-3.8324,-3.6744,-3.5317,-3.403,-3.2465,-3.1155,-2.9964,-2.883,-2.7205,-2.5244,-2.5174,-2.4648,-2.3955,-2.3838,-2.3535,-2.3091,-2.3091,-2.3091,-2.3091,-2.3091,-2.3091,-2.3091,0.0,0.0,0.0,0.0,0.0,0.0,0.0,0.0,0.0,0.0,0.0,0.0,0.0,-1.8764,-1.9595,-2.0452,-1.9788,-2.0912,-2.4696,-2.3832,-2.4286,-2.6829,-2.7442,-2.7933,-2.8301,-2.8721,-2.915,-2.9646,-2.96,-2.9824,-3.0225,-3.0674,-3.1103,-3.1504,-3.1514,-3.1514,-3.1514,-3.1514,-3.1025,-3.0234,-3.0225,-2.9228,-2.7748,-2.7226,-2.5723,-2.3867,-2.3867,-2.3057,-2.1982,-2.1963,-2.2788,-2.3968,-2.4924,-2.5168,-2.5158,-2.5646,-2.4873,-2.4316,-2.6613,-2.9598,-3.2883,-3.6188,-3.957,-4.2389,-4.3401,-4.4091,-4.4355,-4.3853,-4.3325,-4.2622,-4.1514,-4.0902,-4.0337,-3.981,-3.9697,-3.9697,-3.9697,-3.922,-3.8906,-3.8894,-3.8354,-3.8015,0.0,-3.8567,-3.912,-3.9647,-3.9697,-3.9697,-3.9697,-3.9697,-3.9697,-3.9697,-3.9697,-3.8765,-3.6796,-3.626,-3.4383,-3.1116,-3.059,-2.9476,-2.7774,-2.6878,-2.6202,-2.5645,-2.5254,-2.4814,-2.4365,-2.3955,-2.3535,-2.3091,-2.3091,-2.3091,-2.3091,-2.3091,-2.3091,-2.3091,0.0,0.0,0.0,0.0,0.0,0.0,0.0,0.0,0.0,0.0,0.0,0.0,0.0,0.0,0.0,0.0,-1.8695,-1.9692,-2.1749,-2.2409,-2.3408,-2.5028,-2.5902,-2.6592,-2.7021,-2.7441,-2.8144,-2.9141,-2.9141,-2.9355,-2.9785,-2.9941,-3.0088,-3.0254,-3.084,-3.1103,-3.1103,-3.1103,-3.0752,-3.0127,-2.9277,-2.8252,-2.7129,-2.6103,-2.456,-2.291,0.0,-2.206,-2.1406,-2.1153,-2.2006,-2.3221,-2.3578,-2.3845,-2.3938,-2.3671,-2.4822,-2.6441,-2.7913,-3.1814,-3.6106,-3.8629,-4.1539,-4.4091,-4.5208,-4.5321,-4.5033,-4.4468,-4.2748,-4.1128,-4.0375,-3.9484,-3.8919,-3.912,-3.976,-4.0237,-4.0237,-4.0086,-3.9421,-3.7927,-3.7902,0.0,0.0,0.0,0.0,-3.9107,-3.9145,-3.9308,-3.9672,-3.9697,-3.9697,-3.9697,-3.9697,-3.8938,-3.7256,-3.5532,-3.3604,-3.1515,-2.9522,-2.8254,-2.7689,-2.6777,-2.6309,-2.6143,-2.5703,-2.5264,-2.4814,-2.4385,-2.3955,-2.3545,-2.3208,-2.3091,-2.3091,-2.3091,-2.3091,-2.3091,0.0,0.0,0.0,0.0,0.0,0.0,0.0,0.0,0.0,0.0,0.0,0.0,0.0,0.0,0.0,0.0,0.0,-1.8908,-2.0086,-2.0923,-2.1798,-2.2858,-2.3825,-2.4639,-2.5225,-2.5644,-2.6338,-2.7305,-2.7471,-2.7773,-2.8203,-2.8359,-2.8516,-2.8682,-2.9248,-2.9512,-2.9512,-2.9512,-2.915,-2.8525,-2.7705,-2.667,-2.5527,-2.4531,-2.3379,0.0,-2.1807,-2.1572,-2.1396,-2.0957,-2.159,-2.2618,-2.2982,-2.3655,-2.4339,-2.4545,-2.6275,-2.8696,-3.1113,-3.4902,-3.8705,-4.1228,-4.3664,-4.561,-4.5937,-4.5748,-4.5045,-4.3476,-4.1093,-3.8966,-3.784,-3.6874,-3.6516,-3.727,-3.8303,-3.9308,-4.0111,-3.9873,-3.9233,-3.8203,-3.7568,-3.7159,0.0,0.0,0.0,-3.878,-3.9108,-3.932,-3.9672,-3.9193,-3.8908,-3.8908,-3.8425,-3.7423,-3.5934,-3.4244,-3.2502,-3.0758,-2.8969,-2.7959,-2.7699,-2.6934,-2.6533,-2.6367,-2.5879,-2.5478,-2.5096,-2.4766,-2.4307,-2.376,-2.3486,-2.3227,-2.3091,-2.3091,-2.3091,-2.3091,0.0,0.0,0.0,0.0,0.0,0.0,0.0,0.0,0.0,0.0,0.0,0.0,0.0,0.0,0.0,0.0,0.0,0.0,-1.9682,-1.9469,-1.9639,-2.0468,-2.1378,-2.2197,-2.3061,-2.3447,-2.3877,-2.4316,-2.4756,-2.5195,-2.5596,-2.6084,-2.6504,-2.6885,-2.6904,-2.6924,-2.6953,-2.6953,-2.6484,-2.5684,-2.5615,-2.4602,-2.3081,-2.2656,-2.2246,-2.1865,-2.1385,-2.1553,-2.1846,-2.1375,-2.1613,-2.2264,-2.3366,-2.4756,-2.6325,-2.7992,-2.9272,-3.1239,-3.5989,-3.8579,-4.0733,-4.3866,-4.5886,-4.6704,-4.5626,-4.5262,-4.4247,-4.0893,-3.8378,-3.618,-3.4019,-3.3335,-3.343,-3.4522,-3.5766,-3.7385,-3.9509,-3.8919,-3.863,-3.9622,-3.7482,-3.6483,-3.7829,0.0,0.0,-3.8438,0.0,-3.9608,-3.9685,-3.8348,-3.7624,-3.7624,-3.6162,-3.4681,-3.3237,-3.2605,-3.1164,-2.8916,-2.8916,-2.8496,-2.7738,-2.7246,-2.6826,-2.6426,-2.5967,-2.5527,-2.5174,-2.5135,-2.459,-2.3857,-2.3828,-2.3574,-2.3159,-2.3159,-2.3149,-2.313,0.0,0.0,0.0,0.0,0.0,0.0,0.0,0.0,0.0,0.0,0.0,0.0,0.0,0.0,0.0,0.0,0.0,0.0,-1.8038,-1.8832,-1.9238,-1.9131,-2.0273,-2.1045,-2.1261,-2.166,-2.2246,-2.2998,-2.3418,-2.3857,-2.4297,-2.4717,-2.498,-2.5098,-2.542,-2.5752,-2.6015,-2.6015,-2.5888,-2.5606,-2.4678,-2.4023,-2.3506,-2.2451,-2.2168,-2.2295,-2.1865,-2.1992,-2.2285,-2.1865,-2.2896,-2.4609,-2.6155,-2.764,-2.9112,-3.04,-3.293,-3.5783,-3.7894,-4.0844,-4.3759,-4.5463,-4.5899,-4.546,-4.3753,-4.1928,-3.9698,-3.6602,-3.3694,-3.139,-3.0376,-3.1384,-3.2929,-3.4462,-3.7355,-3.9948,-4.1383,-4.163,-4.1367,-4.0425,-3.8999,-3.7917,-3.7548,-3.5826,0.0,0.0,-3.6931,-3.8102,-3.9608,-3.9349,-3.9129,-3.9129,-3.769,-3.6205,-3.4736,-3.2122,-3.0148,-2.8916,-2.8916,-2.8643,-2.8115,-2.7695,-2.7441,-2.7356,-2.6553,-2.6152,-2.5996,-2.539,-2.4988,-2.4707,-2.4385,-2.4189,-2.4092,-2.4092,-2.3896,-2.3623,0.0,0.0,0.0,0.0,0.0,0.0,0.0,0.0,0.0,0.0,0.0,0.0,0.0,0.0,0.0,0.0,0.0,0.0,0.0,-1.8603,-1.8984,-1.8926,-1.9619,-2.0088,-2.0273,-2.0342,-2.0801,-2.166,-2.1699,-2.2051,-2.2676,-2.291,-2.3125,-2.332,-2.3564,-2.3916,-2.4326,-2.4326,-2.4326,0.0,0.0,-2.3115,-2.2881,-2.2158,-2.2148,-2.248,-2.2246,-2.2676,-2.3403,-2.4115,-2.5776,-2.7922,-3.0118,-3.2014,-3.372,-3.5072,-3.7372,-3.975,-4.1379,-4.3507,-4.5522,-4.615,-4.5522,-4.4219,-4.2159,-3.9685,-3.686,-3.3494,-3.0612,-2.8319,-2.7052,-2.8794,-3.0956,-3.2629,-3.6174,-3.9358,-4.1178,-4.1706,-4.1731,-4.1291,-4.0111,-3.8991,-3.8063,-3.6342,-3.5282,0.0,-3.5862,-3.6572,-3.769,-3.7156,-3.6823,-3.6823,-3.5387,-3.4191,-3.3371,-3.1459,-3.0068,-2.9209,-2.9209,-2.8887,-2.8281,-2.7861,-2.7718,-2.7669,0.0,-2.6387,-2.6338,-2.5644,-2.5244,-2.5086,-2.4795,-2.458,-2.4414,-2.4414,-2.4268,-2.4062,0.0,0.0,0.0,0.0,0.0,0.0,0.0,0.0,0.0,0.0,0.0,0.0,0.0,0.0,0.0,0.0,0.0,0.0,0.0,0.0,-1.8773,-1.9189,-1.9258,-1.9453,-1.9824,-1.9473,-1.9648,-2.0439,-2.0078,-2.0303,-2.1025,-2.1073,-2.1348,-2.1709,-2.1777,-2.2031,-2.2432,-2.249,-2.2549,-2.2588,-2.2539,-2.2324,-2.2041,0.0,-2.2178,-2.2598,-2.2598,-2.331,-2.4598,-2.6851,-2.9117,-3.1441,-3.4169,-3.6664,-3.8881,-4.0563,-4.1794,-4.3105,-4.5146,-4.605,-4.6389,-4.6238,-4.4882,-4.293,-4.0477,-3.7714,-3.4604,-3.0935,-2.8344,-2.6199,-2.4378,-2.614,-2.8466,-3.0244,-3.3589,-3.7047,-4.0097,-4.0561,-4.1026,-4.2346,-4.1135,-3.9911,-3.9299,-3.6886,-3.551,-3.5821,-3.5256,-3.4991,-3.53,-3.4292,-3.3564,-3.3406,-3.1988,-3.1112,-3.0889,-3.0889,-3.0449,-2.9626,-2.9626,-2.9121,-2.8281,-2.792,-2.7806,-2.7705,0.0,0.0,-2.6523,-2.6025,-2.5596,-2.5292,-2.5176,-2.4922,-2.459,-2.459,-2.4551,-2.4502,0.0,0.0,0.0,0.0,0.0,0.0,0.0,0.0,0.0,0.0,-1.8223,-1.8008,0.0,0.0,0.0,0.0,0.0,0.0,0.0,0.0,0.0,-1.8715,-1.9092,-1.9316,-1.9394,-1.9326,-1.9365,-1.9549,-1.9775,-1.999,-2.0146,-2.0508,-2.0762,-2.085,-2.1182,-2.1592,-2.2021,-2.2363,-2.2672,-2.2955,-2.2613,-2.2676,-2.2808,-2.2148,0.0,0.0,-2.2984,-2.313,-2.3925,-2.7623,-3.0729,-3.3474,-3.6015,-3.8953,-4.1769,-4.3426,-4.438,-4.5196,-4.6502,-4.6916,-4.6778,-4.5861,-4.4016,-4.1501,-3.7636,-3.4078,-3.0728,-2.7561,-2.5269,-2.3721,-2.3371,-2.5205,-2.7517,-2.9747,-3.2219,-3.5457,-4.0118,-4.0736,-4.1602,-4.3881,-4.2394,-4.1126,-4.0972,-3.7484,0.0,0.0,0.0,-3.3509,-3.5234,-3.6205,-3.6205,-3.4958,-3.3473,-3.215,-3.0889,-3.0889,-3.0449,-2.9626,-2.9626,-2.9121,-2.8291,-2.8223,-2.8184,-2.8154,-2.7656,0.0,-2.7434,-2.6602,-2.623,-2.6123,-2.5762,-2.5528,-2.546,-2.546,-2.5273,-2.4998,0.0,0.0,0.0,0.0,0.0,0.0,0.0,-1.8486,-1.8529,-1.9182,-1.9131,-1.8828,-1.8354,-1.8295,-1.8217,0.0,0.0,0.0,0.0,0.0,0.0,0.0,-1.9844,-1.9989,-1.9989,-1.9727,-1.9727,-1.9989,0.0,-2.0029,-2.0254,-2.0507,-2.0723,-2.0918,-2.1103,-2.1602,-2.2227,-2.2432,-2.2711,-2.3081,-2.2877,-2.2916,-2.3052,0.0,0.0,0.0,-2.3091,-2.3383,-2.4153,-2.6544,-2.9489,-3.2919,-3.7317,-3.9581,-4.1099,-4.3371,-4.4536,-4.5269,-4.6231,-4.7256,-4.7581,-4.5912,-4.3376,-4.0212,-3.5911,-3.1996,-2.8489,-2.5699,-2.4028,-2.2964,-2.2568,-2.4456,-2.6615,-2.8023,-3.0171,-3.3365,-3.8233,-3.9206,-4.0294,-4.2552,-4.2436,-4.13,-3.9068,-3.7299,-3.5665,-3.4075,0.0,-3.2754,-3.3267,-3.4534,-3.4504,-3.3042,-3.3088,-3.2369,-3.0889,-3.0889,-3.0557,-2.9893,-2.9893,-2.9453,-2.8613,-2.8613,-2.8496,-2.8271,-2.7851,0.0,-2.7669,-2.6982,-2.6709,-2.6699,-2.6484,-2.6396,-2.6396,-2.6396,-2.6133,-2.5762,0.0,0.0,0.0,0.0,0.0,0.0,0.0,-1.8877,-1.9017,-1.9814,-1.9686,-1.9275,-1.8526,-1.8715,-1.8705,0.0,0.0,0.0,0.0,0.0,0.0,0.0,0.0,0.0,-2.0605,0.0,0.0,-2.0605,-2.0225,0.0,0.0,0.0,0.0,0.0,-2.1424,-2.1843,-2.2519,-2.2607,-2.2789,0.0,0.0,-2.3091,0.0,0.0,0.0,0.0,0.0,-2.352,-2.4251,-2.5264,-2.7389,-3.06,-3.6117,-3.8298,-3.928,-4.1737,-4.3532,-4.4932,-4.5919,-4.758,-4.8385,-4.6062,-4.2898,-3.9189,-3.4715,-3.0738,-2.7253,-2.4838,-2.3687,-2.2896,-2.2275,-2.3843,-2.5432,-2.6169,-2.7844,-3.0814,-3.6014,-3.708,-3.832,-4.1093,-4.1929,-4.0998,-3.7642,-3.7308,0.0,-3.3749,0.0,0.0,-3.2009,-3.2476,-3.2356,-3.1383,-3.2207,-3.2092,-3.0889,-3.0889,-3.0654,-3.0195,-3.0195,-2.9746,-2.8916,-2.8916,-2.8691,-2.8271,-2.7949,0.0,0.0,-2.7334,-2.7158,-2.7148,-2.7051,-2.7012,-2.7012,-2.7012,-2.6807,-2.6523,0.0,0.0,0.0,0.0,0.0,0.0,0.0,-1.875,-1.9394,-1.9853,-1.906,-1.8314,-1.7999,-1.9031,-1.9629,0.0,0.0,0.0,0.0,0.0,0.0,0.0,0.0,0.0,0.0,0.0,0.0,-2.0605,-2.0566,0.0,0.0,0.0,0.0,0.0,0.0,-2.2441,-2.2539,-2.2877,0.0,0.0,0.0,0.0,0.0,0.0,0.0,0.0,0.0,-2.3149,-2.3403,-2.4707,-2.5377,-2.6244,-2.9791,-3.3918,-3.7736,-3.8912,-4.192,-4.5155,-4.6544,-4.8208,-4.8874,-4.6163,-4.261,-3.8615,-3.4171,-3.0169,-2.6845,-2.5094,-2.3856,-2.3071,-2.2994,-2.3202,-2.3762,-2.5029,-2.5436,-2.7831,-3.4306,-3.4803,-3.6349,-4.1412,-4.1149,-4.0386,-3.9981,-3.824,-3.6875,-3.6217,0.0,0.0,-3.3464,-3.2312,-3.2004,-3.2871,-3.171,-3.1054,-3.0889,-3.0889,-3.0654,-3.0195,-3.0195,-2.9746,-2.8916,-2.8916,-2.8691,-2.8291,-2.8252,0.0,0.0,-2.7773,-2.766,-2.7568,-2.7168,-2.7012,-2.7012,-2.7012,-2.6992,-2.6953,0.0,0.0,0.0,0.0,0.0,0.0,-1.8208,-1.8457,-1.872,-1.9285,-1.9551,-1.9127,-1.7717,-1.8701,-1.9004,-1.7761,0.0,0.0,0.0,0.0,0.0,0.0,0.0,0.0,0.0,0.0,-2.0742,-2.0967,-2.0967,0.0,0.0,0.0,0.0,0.0,0.0,-2.2613,-2.2857,-2.3023,0.0,0.0,0.0,0.0,0.0,0.0,0.0,0.0,0.0,0.0,-2.3169,-2.374,-2.4082,-2.4503,-2.55,-2.7899,-3.1032,-3.4761,-3.845,-4.1687,-4.3581,-4.6557,-4.8435,-4.566,-4.1526,-3.7132,-3.2993,-2.8813,-2.5402,-2.4046,-2.343,-2.3013,-2.2769,-2.2721,-2.3136,-2.4364,-2.4308,-2.5933,-3.1168,-3.194,-3.3356,-3.7063,-3.7647,-3.7591,0.0,0.0,-3.5776,-3.5117,0.0,0.0,-3.2804,-3.2837,-3.2492,-3.1777,-3.2092,-3.1825,-3.0889,-3.0889,-3.0801,-3.0615,-3.0615,-3.0156,-2.9307,-2.9307,-2.8935,-2.8291,-2.8291,0.0,0.0,-2.8115,-2.8047,-2.8027,-2.7851,-2.7783,-2.7783,-2.7783,-2.7627,-2.7402,0.0,0.0,0.0,0.0,0.0,-1.6924,-1.8052,-1.8223,-1.8389,-1.8991,-1.9338,-1.8879,-1.7179,-1.7488,-1.7333,-1.6103,-1.8027,0.0,0.0,0.0,0.0,0.0,0.0,0.0,0.0,0.0,-2.0667,-2.119,-2.1327,-2.165,0.0,0.0,-2.2295,-2.2705,0.0,0.0,0.0,0.0,0.0,0.0,0.0,0.0,0.0,0.0,0.0,0.0,0.0,0.0,0.0,0.0,0.0,-2.3446,-2.2773,-2.341,-2.5363,-3.0248,-3.4496,-3.7974,-3.9966,-4.3554,-4.6088,-4.3486,-3.9513,-3.5254,-3.1453,-2.728,-2.3955,-2.279,-2.2589,-2.2494,-2.2207,-2.2428,-2.2942,-2.375,-2.3877,-2.5156,-2.8743,-2.9991,-3.1368,-3.343,-3.4616,-3.5098,-3.4809,-3.5039,-3.4873,0.0,0.0,0.0,-3.2217,-3.2892,-3.2517,-3.0967,-3.193,-3.193,-3.0889,-3.0889,-3.0889,-3.0889,-3.0889,-3.0498,-2.9756,-2.9629,-2.917,-2.8467,0.0,0.0,0.0,-2.8291,-2.8291,-2.8291,-2.8291,-2.8291,-2.8291,-2.8291,-2.8105,-2.7851,0.0,0.0,0.0,0.0,0.0,0.0,-1.7298,-1.8061,-1.8754,-1.9238,-1.791,-1.6749,-1.6269,-1.5296,-1.4647,-1.4639,-1.6632,0.0,0.0,0.0,0.0,0.0,0.0,0.0,0.0,0.0,-2.0389,-2.119,-2.167,-2.21,-2.251,-2.251,-2.2734,-2.3091,0.0,0.0,0.0,0.0,0.0,0.0,0.0,0.0,0.0,0.0,0.0,0.0,0.0,0.0,0.0,0.0,0.0,0.0,0.0,-2.132,-2.2035,-2.5488,-3.0245,-3.475,-3.6097,-3.9081,-4.1279,-3.9209,-3.633,-3.3097,-2.9451,-2.5711,-2.2693,-2.1551,-2.1337,-2.1337,-2.1328,-2.2306,-2.3091,-2.3091,-2.4029,-2.5504,-2.76,-2.943,-3.0849,-3.1719,-3.2726,-3.3342,-3.3436,-3.4209,-3.4531,0.0,0.0,0.0,-3.2217,-3.2219,-3.1828,-3.0918,-3.0889,-3.0889,-3.0889,-3.0889,-3.0889,-3.0889,-3.0889,-3.0644,-3.0176,-2.9756,-2.9326,0.0,0.0,0.0,0.0,-2.8291,-2.8291,-2.8291,-2.8291,-2.8291,-2.8291,-2.8291,-2.8291,-2.8281,0.0,0.0,0.0,0.0,0.0,0.0,0.0,-1.7126,-1.7172,-1.6827,-1.6982,-1.6584,-1.5234,-1.5549,-1.5771,-1.558,-1.7166,0.0,0.0,0.0,0.0,0.0,0.0,0.0,0.0,0.0,-1.8829,-1.9566,-1.9739,-2.0044,-2.0455,-2.1298,-2.1769,-2.1889,-2.2721,-2.3091,0.0,0.0,0.0,0.0,0.0,0.0,0.0,0.0,0.0,0.0,0.0,0.0,0.0,0.0,0.0,0.0,0.0,0.0,0.0,-2.1372,-2.5631,-3.0443,-3.2627,-3.5257,-3.7163,-3.5748,-3.2295,-2.8799,-2.689,-2.3415,-2.0504,-2.0116,-2.0711,-2.1293,-2.1293,-2.2306,-2.3442,-2.451,-2.5246,-2.5918,-2.6596,-2.8412,-2.9932,-3.0625,-3.3311,-3.5119,0.0,0.0,-3.4639,0.0,0.0,0.0,-3.2217,-3.2229,-3.1777,-3.0918,-3.0889,-3.0889,-3.0889,-3.0889,-3.0889,-3.0889,-3.0889,-3.0644,-3.0195,-3.0059,0.0,0.0,0.0,0.0,0.0,-2.8291,-2.8291,-2.8291,-2.8291,-2.8291,-2.8291,-2.8291,-2.8291,-2.8291,0.0,0.0,0.0,0.0,0.0,0.0,0.0,-1.616,-1.6112,-1.5969,-1.5935,-1.5691,-1.5196,-1.5173,-1.5234,-1.5298,-1.6539,0.0,0.0,0.0,0.0,0.0,0.0,0.0,-1.7157,-1.7561,-1.8077,-1.881,-1.9003,-1.9229,-1.9542,-2.026,-2.0621,-2.0657,-2.14,-2.1721,0.0,0.0,0.0,0.0,0.0,0.0,-2.2217,0.0,0.0,0.0,0.0,0.0,0.0,0.0,0.0,0.0,0.0,0.0,0.0,0.0,-2.129,-2.462,-2.7322,-2.9942,-3.1529,-3.0245,-2.7885,-2.5518,-2.4079,-2.12,-1.8948,-1.9405,-2.0079,-2.0755,-2.1203,-2.2306,-2.3388,-2.4392,-2.514,-2.5636,-2.5722,-2.7929,-2.9941,-3.1027,-3.3414,0.0,0.0,-3.4736,0.0,0.0,0.0,0.0,-3.2441,-3.2256,-3.1846,-3.1152,-3.0976,-3.0889,-3.0889,-3.0889,-3.0889,-3.0889,-3.0889,-3.0742,-3.0449,-3.0273,0.0,0.0,0.0,0.0,0.0,-2.8291,-2.8291,-2.8291,-2.8291,-2.8291,-2.8291,-2.8291,-2.8291,-2.8291,0.0,0.0,0.0,0.0,0.0,0.0,0.0,-1.5242,-1.551,-1.6286,-1.4835,-1.4271,-1.5697,-1.4328,-1.3554,-1.4127,0.0,0.0,0.0,0.0,0.0,0.0,0.0,0.0,-1.6013,-1.7003,-1.7842,-1.8584,-1.9014,-1.9222,-1.9222,-1.9314,-1.936,-1.936,-1.9451,-1.9497,-1.9579,0.0,0.0,0.0,0.0,0.0,0.0,0.0,0.0,0.0,0.0,0.0,0.0,0.0,0.0,0.0,0.0,0.0,0.0,0.0,0.0,0.0,0.0,-2.3435,-2.501,-2.3504,-2.3293,-2.297,-2.1038,-1.9005,0.0,-1.8993,-1.9314,-1.9716,-2.0935,-2.2173,-2.3013,-2.314,-2.4107,-2.4892,-2.512,-2.7962,-3.0694,0.0,-3.3264,0.0,-3.293,-3.3984,0.0,0.0,0.0,0.0,-3.2773,-3.2383,-3.1953,-3.1484,-3.1094,-3.0889,-3.0889,-3.0889,-3.0889,-3.0889,-3.0889,-3.0889,-3.0879,-3.0449,0.0,0.0,0.0,0.0,0.0,-2.8291,-2.8291,-2.8291,-2.8291,-2.8291,-2.8291,-2.8291,-2.8291,-2.8291,0.0,0.0,0.0,0.0,0.0,0.0,0.0,0.0,0.0,0.0,-1.3991,-1.3939,-1.4561,-1.4498,-1.4542,0.0,0.0,0.0,0.0,0.0,0.0,0.0,0.0,0.0,-1.5236,-1.55,-1.5933,-1.6502,-1.6619,-1.6655,-1.6702,-1.7677,-1.8141,-1.8141,-1.9093,-1.9497,-1.9542,-1.9807,0.0,0.0,0.0,0.0,0.0,0.0,0.0,0.0,-1.7023,-1.6655,0.0,0.0,0.0,0.0,0.0,0.0,0.0,0.0,-1.6244,-1.6401,-1.711,0.0,-2.0886,-2.0518,-1.9763,-1.9044,0.0,-1.7279,-1.6339,-1.6608,-1.7444,-1.8503,-1.9716,-2.089,-2.2134,-2.344,-2.4408,-2.5152,-2.5488,-2.8761,-3.1654,-3.3089,-3.454,-3.498,-3.3877,0.0,0.0,0.0,0.0,-3.3096,-3.2353,-3.2217,-3.1816,-3.1064,-3.0947,-3.0889,-3.0889,-3.0889,-3.0889,-3.0889,-3.0889,-3.0889,-3.0889,-3.0781,0.0,0.0,0.0,0.0,-2.8291,-2.8291,-2.8291,-2.8291,-2.8291,-2.8291,-2.8291,-2.8291,-2.8291,-2.8291,0.0,0.0,0.0,0.0,0.0,0.0,0.0,0.0,0.0,0.0,0.0,-1.3359,-1.4134,-1.4123,0.0,0.0,0.0,0.0,0.0,0.0,0.0,0.0,0.0,-1.468,-1.5001,-1.5224,-1.5518,-1.5784,-1.5784,-1.5784,-1.5825,-1.6527,-1.681,-1.685,-1.7529,-1.8126,-1.868,-1.868,-1.8993,0.0,-1.8187,0.0,0.0,0.0,0.0,0.0,-1.6062,-1.5784,0.0,-1.5784,-1.5784,-1.5784,0.0,0.0,0.0,0.0,-1.5784,-1.5784,-1.5784,-1.721,-1.8542,-1.794,-1.777,-1.7552,-1.6943,-1.6292,-1.5967,-1.6574,-1.7225,-1.8234,-1.9988,-2.0845,-2.184,-2.3531,-2.4336,-2.5342,-2.6963,-2.9521,-3.1855,-3.3525,-3.4551,-3.4922,0.0,0.0,0.0,0.0,0.0,-3.2939,-3.248,-3.208,-3.166,-3.1191,-3.0996,-3.0889,-3.0889,-3.0889,-3.0889,-3.0889,-3.0889,-3.0781,-3.0576,-3.0576,-3.0098,0.0,0.0,0.0,-2.8291,-2.8291,-2.8291,-2.8291,-2.8291,-2.8291,-2.8291,-2.8291,-2.8291,-2.8262,0.0,0.0,0.0,0.0,0.0,0.0,0.0,0.0,0.0,0.0,0.0,0.0,0.0,0.0,0.0,0.0,0.0,0.0,0.0,0.0,0.0,0.0,-1.4629,-1.4981,-1.5075,-1.5471,-1.5738,-1.5784,-1.5872,-1.5872,-1.5784,-1.5831,-1.5872,-1.5784,-1.5784,-1.6386,-1.7412,-1.7412,-1.8002,-1.8856,-1.7816,0.0,0.0,0.0,0.0,0.0,0.0,0.0,0.0,-1.5784,-1.5784,-1.5784,-1.5784,0.0,0.0,0.0,0.0,0.0,-1.5784,-1.6644,-1.7301,-1.6319,-1.6897,-1.7412,-1.6339,-1.6109,-1.6339,-1.7225,-1.7552,-1.8365,-2.0612,-2.1302,-2.2006,-2.3638,-2.4521,-2.6016,-2.8906,-3.0449,-3.1973,-3.3857,-3.4189,0.0,0.0,0.0,0.0,0.0,0.0,-3.2764,-3.2705,-3.1943,-3.1484,-3.1426,-3.1074,-3.0859,-3.0781,-3.0859,-3.0859,-3.0781,-3.0781,-3.0576,-3.0195,-3.0127,-2.9707,0.0,0.0,0.0,-2.8291,-2.8291,-2.8291,-2.8291,-2.8291,-2.8291,-2.8291,-2.8291,-2.8291,-2.8223,0.0,0.0,0.0,0.0,0.0,0.0,0.0,0.0,0.0,0.0,0.0,0.0,0.0,0.0,0.0,0.0,0.0,0.0,0.0,0.0,0.0,-1.4456,-1.4543,-1.4823,-1.5317,-1.5223,-1.5337,-1.5784,-1.6079,-1.6079,-1.5832,-1.6086,-1.6072,-1.5784,-1.5784,-1.592,-1.6109,-1.6109,-1.6197,-1.6332,-1.615,0.0,0.0,0.0,0.0,0.0,0.0,0.0,0.0,-1.5784,-1.5784,-1.5784,-1.5784,0.0,0.0,0.0,0.0,0.0,-1.5784,-1.6331,-1.6931,-1.7316,-1.7552,-1.7645,-1.7451,-1.7412,-1.7178,-1.6244,-1.6943,-1.8141,-1.9542,-2.1208,-2.2815,-2.4123,-2.6221,-2.8496,0.0,0.0,-3.3291,-3.3994,0.0,0.0,0.0,0.0,0.0,0.0,0.0,-3.2637,-3.2285,-3.1787,-3.1348,-3.0996,-3.0928,-3.0703,-3.0303,-3.0693,-3.0693,-3.0303,-3.0303,-3.0264,-3.0185,-2.9824,-2.96,0.0,0.0,-2.8682,-2.8291,-2.8291,-2.8291,-2.8291,-2.8291,-2.8291,-2.8291,-2.8291,-2.8291,-2.8184,0.0,0.0,0.0,0.0,0.0,0.0,0.0,0.0,0.0,0.0,0.0,0.0,0.0,0.0,0.0,0.0,0.0,0.0,0.0,0.0,-1.4589,-1.475,-1.4763,-1.4963,-1.5384,-1.5418,-1.5638,-1.6072,-1.6046,-1.6046,-1.6072,-1.6046,-1.5959,-1.5784,-1.5784,-1.5784,-1.5784,-1.5784,-1.5784,-1.5784,0.0,0.0,0.0,0.0,0.0,0.0,0.0,0.0,0.0,0.0,-1.5784,-1.5784,-1.5784,0.0,0.0,0.0,0.0,0.0,-1.5784,-1.5977,-1.649,-1.7651,-1.8215,-1.8527,-1.8629,-1.8822,-1.8761,-1.7978,-1.8265,-1.9104,-2.0589,-2.2013,-2.3793,-2.642,-2.8242,-2.9922,-3.1631,-3.2168,-3.2812,0.0,0.0,0.0,0.0,0.0,0.0,0.0,0.0,0.0,-3.1846,-3.1416,-3.1094,-3.0898,-3.0889,-3.0664,-3.0205,-3.041,-3.0293,-2.9863,-2.9863,-2.9736,-2.9502,-2.9307,-2.9092,-2.8867,0.0,-2.8467,-2.8291,-2.8291,-2.8291,-2.8291,-2.8291,-2.8291,-2.8291,-2.8291,-2.8144,-2.7861,0.0,0.0,0.0,0.0,0.0,0.0,0.0,0.0,0.0,0.0,0.0,0.0,0.0,0.0,0.0,0.0,0.0,0.0,0.0,-1.4355,-1.4656,-1.4995,-1.5075,-1.5204,-1.5491,-1.5651,-1.5872,-1.6166,-1.6012,-1.6052,-1.6315,-1.5972,-1.5784,-1.5784,-1.5784,-1.5784,-1.5784,-1.5784,-1.5784,-1.5784,0.0,0.0,0.0,0.0,0.0,0.0,0.0,0.0,0.0,0.0,0.0,0.0,0.0,0.0,0.0,-1.5784,-1.5784,-1.5784,-1.5784,-1.6116,-1.671,-1.775,-1.8439,-1.9071,-1.9888,-2.0243,-2.0415,-2.0406,-2.0567,-2.1036,-2.2209,-2.3382,-2.522,-2.8519,-2.9873,-3.0967,-3.2275,-3.2266,-3.2637,-3.4053,0.0,0.0,0.0,0.0,0.0,0.0,0.0,0.0,-3.1543,-3.1123,-3.0889,-3.0889,-3.0781,-3.0508,-3.0049,-2.9951,-2.9736,-2.9414,-2.9414,-2.9248,-2.8916,-2.8818,-2.8652,-2.8437,-2.833,-2.8291,-2.8291,-2.8291,-2.8291,-2.8291,-2.8291,-2.8291,-2.8291,-2.8291,-2.8027,-2.7669,0.0,0.0,0.0,0.0,0.0,0.0,0.0,0.0,0.0,0.0,0.0,0.0,0.0,0.0,0.0,0.0,0.0,0.0,0.0,-1.4355,-1.4656,-1.4995,-1.5224,-1.5504,-1.5792,-1.5558,-1.5571,-1.5865,-1.6119,-1.6301,-1.6315,-1.5972,-1.5784,-1.5784,-1.5784,-1.5784,-1.5784,-1.5784,-1.5784,-1.5784,-1.5784,0.0,0.0,0.0,0.0,0.0,0.0,0.0,0.0,0.0,0.0,0.0,0.0,0.0,-1.5784,-1.5784,-1.5784,-1.5784,-1.5784,-1.7036,-1.8203,-1.7816,-1.7759,-1.8516,-2.1139,-2.1511,-2.1652,-2.2884,-2.364,-2.4053,-2.3826,-2.5402,-2.7347,-2.9238,-3.0596,-3.1865,-3.3154,0.0,-3.4082,0.0,0.0,0.0,0.0,0.0,0.0,0.0,0.0,0.0,-3.1543,-3.1123,-3.0889,-3.0889,-3.0478,-3.0039,-2.9675,-2.9209,-2.8994,-2.8965,-2.8965,-2.8945,-2.8906,-2.8516,-2.8535,-2.8848,-2.8467,-2.8291,-2.8291,-2.8291,-2.8291,-2.8291,-2.8291,-2.8291,-2.8291,-2.8291,-2.8027,-2.7718,0.0,0.0,0.0,0.0,0.0,0.0,0.0,0.0,0.0,0.0,0.0,0.0,0.0,0.0,0.0,0.0,0.0,0.0,0.0,-1.3873,-1.4146,-1.4669,-1.4796,-1.499,-1.5284,-1.5538,-1.5812,-1.6106,-1.6219,-1.6179,-1.5999,-1.5879,-1.5784,-1.5784,-1.5784,-1.5784,-1.5784,-1.5784,-1.5784,-1.5784,-1.5784,-1.5784,0.0,0.0,0.0,0.0,0.0,0.0,0.0,0.0,-1.5784,-1.5784,-1.5784,-1.5784,-1.5784,-1.5784,-1.5784,-1.5784,-1.5784,-1.7257,-1.8649,-1.8103,-1.8994,-2.0556,-2.2644,-2.4053,-2.5052,-2.5535,-2.6281,-2.6726,-2.6368,-2.7569,-2.8896,-2.9814,-3.1279,-3.2568,-3.332,-3.334,0.0,0.0,0.0,0.0,0.0,0.0,0.0,0.0,0.0,0.0,-3.1152,-3.0703,-3.0596,-3.0879,-3.0185,-2.9726,-2.9626,-2.9141,-2.8789,-2.8535,-2.8535,-2.8535,-2.8525,-2.8369,-2.8379,-2.8525,-2.8359,-2.8291,-2.8291,-2.8291,-2.8291,-2.8291,-2.8291,-2.8291,-2.8262,-2.7998,-2.7855,-2.764,0.0,0.0,0.0,0.0,0.0,0.0,0.0,0.0,0.0,0.0,0.0,0.0,0.0,0.0,0.0,0.0,0.0,0.0,-1.3453,-1.3553,-1.382,-1.4362,-1.4469,-1.4663,-1.5001,-1.5444,-1.5792,-1.6047,-1.6086,-1.6025,-1.5784,-1.5784,-1.5784,-1.5784,-1.5784,-1.5784,-1.5784,-1.5784,-1.5784,-1.5784,-1.5784,-1.5784,0.0,0.0,0.0,0.0,0.0,0.0,0.0,0.0,-1.5784,-1.5784,-1.5784,-1.5784,-1.5784,-1.5784,-1.5987,-1.61,-1.5785,-1.7566,-1.932,-1.8457,-2.0433,-2.3032,-2.4754,-2.6106,-2.7329,-2.8442,-2.8779,-2.8769,-2.835,-2.8867,-2.9551,0.0,-3.1435,-3.2539,-3.2969,-3.2773,0.0,0.0,0.0,0.0,0.0,0.0,0.0,0.0,0.0,0.0,0.0,-3.0449,-3.0342,-3.0664,-2.9824,-2.9365,-2.9365,-2.8935,-2.8574,-2.8291,-2.8291,-2.8291,-2.8291,-2.8291,-2.8291,-2.8291,-2.8291,-2.8291,-2.8291,-2.8291,-2.8213,-2.8086,-2.7949,-2.7891,-2.7871,-2.7777,-2.763,-2.7393,0.0,0.0,0.0,0.0,0.0,0.0,0.0,0.0,0.0,0.0,0.0,0.0,0.0,0.0,0.0,0.0,0.0,0.0,-1.3206,-1.344,-1.3733,-1.4068,-1.4362,-1.4656,-1.4995,-1.5244,-1.5398,-1.5398,-1.5691,-1.5784,-1.5784,-1.5784,-1.5784,-1.5784,-1.5784,-1.5784,-1.5784,-1.5784,-1.5784,-1.5784,-1.5784,-1.5784,-1.5784,0.0,0.0,0.0,0.0,0.0,0.0,0.0,-1.5784,-1.5784,-1.5784,-1.5784,-1.5784,-1.5784,-1.639,-1.6768,-1.5713,-1.8024,-2.0386,-1.8895,-2.1847,-2.5624,-2.7419,-2.7473,-2.8107,-3.1469,-3.1113,-3.0068,-2.9658,-2.9219,-2.9209,-3.0049,-3.0937,-3.167,-3.21,0.0,0.0,0.0,0.0,0.0,0.0,0.0,0.0,0.0,0.0,0.0,0.0,-3.0439,-3.0185,-3.0185,-2.9365,-2.8916,-2.8916,-2.8506,-2.8291,-2.8291,-2.8291,-2.8291,-2.8291,-2.8291,-2.8291,-2.8291,-2.8291,-2.8281,-2.8281,-2.8281,-2.8037,-2.7669,-2.7187,-2.7012,-2.707,-2.75,-2.7383,-2.707,0.0,0.0,0.0,0.0,0.0,0.0,0.0,0.0,0.0,0.0,0.0,0.0,0.0,0.0,0.0,0.0,0.0,0.0,-1.2924,-1.3166,-1.3467,-1.372,-1.4062,-1.4255,-1.4349,-1.4881,-1.5291,-1.5698,-1.5738,-1.5784,-1.5784,-1.5784,-1.5784,-1.5784,-1.5784,-1.5784,-1.5784,-1.5784,-1.5784,-1.5784,-1.5784,-1.5784,-1.5784,0.0,0.0,0.0,0.0,0.0,0.0,0.0,0.0,0.0,-1.5784,-1.5784,-1.5784,-1.5784,-1.6598,-1.7442,-1.7079,-1.948,-2.2003,-2.1896,-2.4427,-2.7312,-2.8764,-2.8951,-2.9496,-3.1717,-3.1113,-3.0156,-3.0029,-2.9902,0.0,-2.9766,-3.0752,-3.1562,0.0,0.0,0.0,0.0,0.0,0.0,0.0,0.0,0.0,0.0,0.0,0.0,0.0,-2.9541,-2.9443,-2.9746,-2.8926,-2.8623,-2.8916,-2.8506,-2.8291,-2.8291,-2.8291,-2.8291,-2.8291,-2.8291,-2.8291,-2.8271,-2.7978,-2.7851,-2.7832,-2.7519,-2.7324,-2.7197,-2.707,-2.7012,-2.6992,-2.6826,-2.668,-2.6543,0.0,0.0,0.0,0.0,0.0,0.0,0.0,0.0,0.0,0.0,-1.2305,-1.2305,0.0,0.0,0.0,0.0,0.0,0.0,0.0,-1.3039,-1.33,-1.3586,-1.3928,-1.4142,-1.4255,-1.4767,-1.519,-1.5658,-1.5772,-1.5784,-1.5784,-1.5784,-1.5784,-1.5784,-1.5784,-1.5784,-1.5784,-1.5784,-1.5784,-1.5784,-1.5784,-1.5784,-1.5784,0.0,0.0,0.0,0.0,0.0,0.0,0.0,0.0,0.0,-1.5784,-1.5784,-1.5784,-1.5784,-1.6811,-1.7856,-1.7575,-2.0125,-2.2964,-2.3471,-2.5793,-2.8252,-2.9531,-3.0488,-3.1396,-3.2451,-3.1768,-3.0928,-3.0752,-3.043,0.0,-3.0107,-3.0752,0.0,0.0,0.0,0.0,0.0,0.0,0.0,0.0,0.0,0.0,0.0,0.0,0.0,0.0,-2.915,-2.9033,-2.9307,-2.8652,-2.833,-2.8418,-2.8174,-2.7959,-2.7783,-2.7783,-2.7783,-2.7793,-2.7969,-2.8135,-2.8271,-2.7851,-2.7568,-2.7373,-2.6943,-2.6768,-2.6748,-2.6572,-2.6454,-2.6504,-2.6416,-2.6279,-2.6113,0.0,0.0,0.0,0.0,0.0,0.0,0.0,0.0,0.0,0.0,-1.215,-1.2187,0.0,0.0,0.0,0.0,0.0,0.0,0.0,-1.306,-1.3313,-1.3553,-1.3915,-1.4208,-1.4476,-1.4796,-1.5142,-1.5357,-1.5671,-1.5784,-1.5784,-1.5784,-1.5784,-1.5784,-1.5784,-1.5784,-1.5784,-1.5784,-1.5784,-1.5784,-1.5784,-1.5784,-1.5784,-1.5784,0.0,0.0,0.0,0.0,0.0,0.0,0.0,0.0,-1.5784,-1.5784,-1.5784,-1.5784,-1.6932,-1.8081,-1.7643,-2.0311,-2.3426,-2.4247,-2.6574,-2.8896,-3.0107,-3.1894,-3.3281,-3.3213,-3.2617,-3.1982,-3.1592,-3.083,-3.04,-3.082,-3.0889,0.0,0.0,0.0,0.0,0.0,0.0,0.0,0.0,0.0,0.0,0.0,0.0,0.0,0.0,-2.9072,-2.8848,-2.8809,-2.8437,-2.8037,-2.7669,-2.766,-2.7402,0.0,-2.7012,-2.7012,-2.7021,-2.7422,-2.7793,-2.8096,-2.7715,-2.7305,-2.6865,-2.6484,-2.6328,-2.6289,-2.5889,-2.5693,-2.5732,-2.6182,-2.6084,-2.5742,0.0,0.0,0.0,0.0,0.0,0.0,0.0,0.0,0.0,0.0,0.0,0.0,0.0,0.0,0.0,0.0,0.0,0.0,0.0,-1.3253,-1.344,-1.3273,-1.3808,-1.4115,-1.4175,-1.474,-1.5035,-1.5102,-1.5578,-1.5784,-1.5784,-1.5784,-1.5784,-1.5784,-1.5784,-1.5784,-1.5784,-1.5784,-1.5784,-1.5784,-1.5784,-1.5784,-1.5784,-1.5784,-1.5784,0.0,0.0,0.0,0.0,0.0,0.0,0.0,-1.5784,-1.5784,-1.5784,-1.5784,-1.675,-1.8141,-1.9618,-2.1639,-2.3922,-2.6691,-2.9121,-3.0986,-3.1601,-3.21,-3.2246,-3.1572,-3.1553,-3.1631,-3.1533,-3.1094,-3.0771,-3.0869,0.0,0.0,0.0,0.0,0.0,0.0,0.0,0.0,0.0,0.0,0.0,0.0,0.0,0.0,-2.8584,-2.8476,-2.8271,-2.7949,-2.7851,-2.7588,-2.7158,-2.7158,-2.7109,0.0,-2.7012,-2.7012,-2.7021,-2.7109,-2.7031,-2.6787,-2.6699,-2.6416,-2.5957,-2.5869,-2.583,-2.582,-2.5723,-2.5693,-2.5703,-2.5791,-2.5771,-2.5703,0.0,0.0,0.0,0.0,0.0,0.0,0.0,0.0,0.0,0.0,0.0,0.0,0.0,0.0,0.0,0.0,0.0,0.0,0.0,0.0,-1.3048,-1.3593,-1.3921,-1.4155,-1.4295,-1.478,-1.5075,-1.517,-1.5611,-1.5784,-1.5784,-1.5784,-1.5784,-1.5784,-1.5784,-1.5784,-1.5784,-1.5784,-1.5784,-1.5784,-1.5784,-1.5784,-1.5784,-1.5784,-1.5784,-1.5784,-1.5784,0.0,0.0,0.0,0.0,0.0,0.0,0.0,-1.5784,-1.5784,-1.6556,-1.7634,-1.8981,-2.1258,-2.4236,-2.7985,-3.0068,-3.1279,-3.1504,-3.1562,-3.1367,-3.0693,-3.1074,-3.1455,-3.126,-3.0859,-3.0557,-3.0557,0.0,0.0,0.0,0.0,0.0,0.0,0.0,0.0,0.0,0.0,0.0,0.0,0.0,-2.8437,-2.8018,-2.7988,-2.7793,-2.7373,-2.7353,-2.7148,-2.6719,-2.6709,-2.6611,-2.6356,-2.6356,-2.6356,-2.6366,-2.6826,-2.667,-2.6084,-2.6299,-2.6143,-2.5693,-2.5693,-2.5693,-2.5693,-2.5693,-2.5693,-2.5693,-2.5693,-2.5693,-2.5693,0.0,0.0,0.0,0.0,0.0,0.0,0.0,0.0,0.0,0.0,0.0,0.0,0.0,0.0,0.0,0.0,0.0,0.0,0.0,0.0,0.0,-1.4222,-1.4278,-1.4355,-1.4589,-1.489,-1.5202,-1.5398,-1.5691,-1.5947,-1.6232,-1.5947,-1.5784,-1.5784,-1.5784,-1.5784,-1.5784,-1.5784,-1.5784,-1.5784,-1.5784,-1.5784,-1.5784,-1.5784,-1.5784,-1.5784,-1.5784,-1.5784,-1.5784,-1.5784,0.0,0.0,0.0,0.0,-1.5784,-1.5784,-1.6285,-1.6982,-1.7697,-2.077,-2.4642,-2.843,-3.001,-3.0664,-3.0664,-3.0664,-3.0557,-3.0166,-3.0732,-3.1162,-3.0742,-3.0351,-3.0088,0.0,0.0,0.0,0.0,0.0,0.0,0.0,0.0,0.0,0.0,0.0,0.0,0.0,0.0,-2.792,-2.762,-2.7559,-2.7353,-2.6914,-2.6904,-2.6709,-2.6279,-2.6201,-2.5977,-2.5625,-2.5499,-2.546,-2.5479,-2.624,-2.6221,-2.5644,-2.6006,-2.5908,-2.546,-2.546,-2.546,-2.5469,-2.5538,-2.5528,-2.5469,-2.5547,-2.5625,-2.5557,0.0,0.0,0.0,0.0,0.0,0.0,0.0,0.0,0.0,0.0,-0.8333,-0.8738,0.0,0.0,0.0,0.0,0.0,0.0,0.0,0.0,0.0,-1.4867,-1.4894,-1.4908,-1.4948,-1.519,-1.5357,-1.5398,-1.5691,-1.6517,-1.7904,-1.6463,-1.5784,-1.5784,-1.5784,-1.5784,-1.5784,-1.5784,-1.5784,-1.5784,-1.5784,-1.5784,-1.5784,-1.5784,-1.5784,-1.5784,-1.5784,-1.5784,-1.5784,-1.5784,-1.5784,0.0,0.0,0.0,-1.5784,-1.5784,-1.5893,-1.6347,-1.8212,-2.203,-2.5949,-2.7985,-2.9111,-2.9746,-2.9746,-2.9746,-2.9792,-2.9668,-3.0039,-3.0244,-2.9824,-2.9697,-2.9658,0.0,0.0,0.0,0.0,0.0,0.0,0.0,0.0,0.0,0.0,0.0,0.0,0.0,-2.7217,-2.7158,-2.7109,-2.71,-2.6914,-2.6484,-2.6475,-2.626,-2.5781,-2.5439,-2.5262,-2.5204,-2.4775,-2.459,-2.46,-2.4707,-2.4912,-2.5166,-2.5262,-2.5,-2.459,-2.459,-2.459,-2.4629,-2.501,-2.4922,-2.4639,-2.5019,-2.5156,-2.5107,0.0,0.0,0.0,0.0,0.0,0.0,0.0,0.0,0.0,0.0,0.0,-0.7761,0.0,0.0,0.0,0.0,0.0,0.0,0.0,0.0,0.0,-1.4943,-1.5008,-1.5082,-1.5204,-1.5331,-1.5478,-1.5638,-1.5718,-1.6259,-1.7167,-1.717,-1.7201,-1.7146,-1.6225,-1.5784,-1.5784,-1.5784,-1.5784,-1.5784,-1.5784,-1.5732,-1.5605,-1.5718,-1.5732,-1.5698,-1.6558,-1.6433,-1.592,-1.6615,-1.6386,-1.5784,-1.5784,0.0,0.0,0.0,-1.5784,-1.6279,-1.8379,-2.1096,-2.3845,-2.6039,-2.754,-2.8564,-2.8799,-2.9043,-2.9141,-2.8906,-2.9004,-2.9219,-2.9512,-2.9375,-2.9131,0.0,0.0,0.0,0.0,0.0,0.0,0.0,0.0,0.0,0.0,0.0,0.0,0.0,-2.666,-2.6445,-2.5947,-2.5928,-2.5732,-2.5293,-2.5283,-2.5195,-2.4953,-2.4805,-2.4697,-2.4697,-2.4502,-2.4414,-2.4414,-2.4414,-2.4521,-2.4697,-2.4697,-2.459,-2.4414,-2.4414,-2.4414,-2.4434,-2.4629,-2.459,-2.4443,-2.4629,-2.4697,-2.4678,0.0,0.0,0.0,0.0,0.0,0.0,0.0,0.0,0.0,0.0,0.0,0.0,0.0,0.0,0.0,0.0,0.0,0.0,0.0,0.0,0.0,-1.5125,-1.5184,-1.5284,-1.5504,-1.5504,-1.5611,-1.5784,-1.5784,-1.6156,-1.6905,-1.7541,-1.8067,-1.845,-1.7046,-1.6177,-1.5784,-1.5784,-1.5784,-1.5818,-1.6021,-1.5811,-1.5457,-1.6142,-1.5966,-1.5547,-1.7346,-1.7001,-1.5913,-1.7242,-1.685,-1.5784,-1.5784,-1.5784,0.0,0.0,0.0,-1.6205,-1.8138,-1.9722,-2.1411,-2.3883,-2.5652,-2.6875,-2.7516,-2.7969,-2.8193,-2.7871,-2.7891,-2.8164,-2.8799,-2.8652,-2.833,0.0,0.0,0.0,0.0,0.0,0.0,0.0,0.0,0.0,0.0,0.0,0.0,0.0,-2.5889,-2.5596,-2.4941,-2.4902,-2.4756,-2.4424,-2.4414,-2.4414,-2.4414,-2.4307,-2.4199,-2.4092,-2.4092,-2.4092,-2.4092,-2.4092,-2.4092,-2.4102,-2.4209,-2.4189,-2.4092,-2.4092,-2.4092,-2.4102,-2.4219,-2.4189,-2.4102,-2.4219,-2.4258,-2.4238,0.0,0.0,0.0,0.0,0.0,0.0,0.0,0.0,0.0,0.0,0.0,0.0,-0.716,-0.7122,-0.7129,-0.7173,-0.7313,0.0,0.0,0.0,0.0,-1.567,-1.5738,0.0,-1.5758,-1.5758,-1.5764,-1.5784,-1.5784,-1.6731,-1.852,-1.7072,-1.7394,-1.9117,-1.8473,-1.7311,-1.5784,-1.5784,-1.5784,-1.5852,-1.6646,-1.6334,-1.5594,-1.7378,-1.6823,-1.5331,-1.7833,-1.7289,-1.5643,0.0,-1.685,-1.5784,-1.5784,-1.5784,-1.5784,0.0,0.0,0.0,-1.7402,-1.8439,-1.9714,-2.2134,-2.3408,-2.4396,-2.5556,-2.6211,-2.6514,-2.6494,-2.6807,-2.71,-2.7139,-2.7129,-2.7109,0.0,0.0,0.0,0.0,0.0,0.0,0.0,0.0,0.0,0.0,0.0,0.0,0.0,-2.4521,-2.4492,-2.4453,-2.4453,-2.4443,-2.4414,-2.4414,-2.4414,-2.4414,-2.4023,-2.3613,-2.3159,-2.3159,-2.3159,-2.3159,-2.3159,-2.3159,-2.3179,-2.3643,-2.3584,-2.3159,-2.3159,-2.3159,-2.3198,-2.3662,-2.3574,-2.3208,-2.3672,-2.3828,-2.3769,0.0,0.0,0.0,0.0,0.0,0.0,0.0,0.0,0.0,0.0,0.0,0.0,0.0,-0.9353,-0.945,-0.9664,-0.9904,0.0,0.0,0.0,0.0,-1.5724,-1.5784,-1.5784,-1.5784,-1.5784,-1.5784,-1.5784,-1.5784,-1.6265,-1.719,-1.7466,-1.7482,-1.7351,-1.7937,-1.74,-1.6147,-1.6753,-1.6527,-1.5798,-1.5915,-1.6025,-1.6194,-1.613,-1.5958,-1.5879,-1.7279,0.0,0.0,0.0,0.0,0.0,0.0,-1.6339,-1.685,-1.6062,-1.5784,-1.592,-1.6339,-1.7297,-1.846,-1.9566,-2.066,-2.1878,-2.3367,-2.4093,-2.4645,-2.5392,-2.5654,-2.5762,-2.5762,-2.6445,-2.6934,0.0,0.0,0.0,0.0,0.0,0.0,0.0,0.0,0.0,0.0,0.0,0.0,0.0,0.0,-2.3896,-2.3569,-2.3549,-2.3549,-2.3549,-2.3549,-2.3549,-2.3549,-2.3403,-2.3247,-2.3091,-2.3091,-2.3091,-2.3091,-2.3091,-2.3091,-2.3101,-2.3257,-2.3237,-2.3091,-2.3091,-2.3091,-2.311,-2.331,-2.3227,-2.311,-2.3276,-2.3369,-2.3305,0.0,0.0,0.0,0.0,0.0,0.0,0.0,0.0,0.0,-1.0911,0.0,0.0,0.0,0.0,-1.1013,-1.1282,-1.1436,-1.2179,-1.3661,-1.3773,-1.4383,-1.5724,-1.5784,-1.5784,-1.5784,-1.5784,-1.5784,-1.5784,-1.5784,-1.5979,-1.6321,-1.7223,-1.7182,-1.6462,-1.7604,-1.7352,-1.6161,-1.68,-1.6574,-1.5852,-1.637,-1.6689,-1.6795,-1.6854,-1.6976,-1.7274,0.0,0.0,0.0,0.0,0.0,0.0,0.0,-1.6716,-1.6897,-1.6062,-1.5784,-1.5784,-1.5784,-1.6433,-1.7229,-1.7953,-1.8699,-1.9745,-2.1548,-2.2423,-2.3155,-2.4212,-2.4648,-2.4853,-2.4853,-2.5557,-2.6055,0.0,0.0,0.0,0.0,0.0,0.0,0.0,0.0,0.0,0.0,0.0,0.0,0.0,0.0,0.0,-2.311,-2.3091,-2.3091,-2.3091,-2.3091,-2.3091,-2.3091,-2.3091,-2.3091,-2.3091,-2.3091,-2.3091,-2.3091,-2.3091,-2.3091,-2.3091,-2.3091,-2.3091,-2.3091,-2.3091,-2.3091,-2.3091,-2.3091,-2.3091,-2.3091,-2.3091,-2.3091,-2.3091,0.0,0.0,0.0,0.0,0.0,0.0,0.0,0.0,-1.1299,-1.1562,0.0,0.0,0.0,0.0,0.0,-1.178,-1.1806,-1.2421,-1.3861,-1.3974,-1.4507,-1.573,0.0,0.0,-1.5784,-1.5784,-1.5784,-1.5784,-1.5784,-1.5979,-1.6308,-1.6308,-1.6406,-1.6717,-1.7628,-1.7175,-1.5784,-1.5825,-1.5879,-1.6048,-1.8045,-1.8255,-1.7574,-1.965,-2.0009,-1.948,-2.0651,-2.0468,0.0,-2.0935,0.0,0.0,0.0,-1.685,-1.5784,-1.5784,-1.5784,-1.5784,0.0,0.0,0.0,-1.7365,-1.7638,-1.8149,-2.0158,-2.1302,-2.2126,-2.2905,-2.3754,-2.4385,-2.4385,-2.4385,-2.4385,0.0,0.0,0.0,0.0,0.0,0.0,0.0,0.0,0.0,0.0,0.0,0.0,0.0,-2.3091,-2.3091,-2.3091,-2.3091,-2.3091,-2.3091,-2.3091,-2.3091,-2.3091,-2.3091,-2.3091,-2.3091,-2.3091,-2.3091,-2.3091,-2.3091,-2.3091,-2.3091,-2.3091,-2.3091,-2.3091,-2.3091,-2.3091,-2.3091,-2.3091,-2.3091,-2.3091,-2.3091,-2.3091,-2.3091,0.0,0.0,0.0,0.0,0.0,0.0,-1.3957,-1.3925,-1.395,0.0,0.0,0.0,-1.4038,-1.4214,-1.4358,-1.4393,-1.4534,-1.482,-1.5235,-1.5289,-1.5439,-1.5778,-1.5784,-1.5784,-1.5784,-1.5784,-1.5784,-1.5784,-1.5784,-1.5872,-1.5952,-1.5952,-1.5992,-1.6066,-1.6313,-1.6184,-1.5872,-1.6763,-1.7356,-1.7625,-1.7994,-1.8993,-2.0133,-1.9769,-1.9748,0.0,0.0,-2.0034,-2.0518,0.0,-2.0828,-2.1574,0.0,-1.7529,-1.5784,-1.5784,-1.5784,-1.5784,-1.5784,0.0,0.0,0.0,0.0,0.0,0.0,-1.9368,-2.0488,-2.1596,-2.2672,-2.3452,-2.3452,-2.3452,-2.3452,0.0,0.0,0.0,0.0,0.0,0.0,0.0,0.0,0.0,0.0,0.0,0.0,0.0,-2.3091,-2.3091,-2.3091,-2.3091,-2.3091,-2.3091,-2.3091,-2.3091,-2.3091,-2.3091,-2.3091,-2.3091,-2.3091,-2.3091,-2.3091,-2.3091,-2.3091,-2.3091,-2.3091,-2.3091,-2.3091,-2.3091,-2.3091,-2.3091,-2.3091,-2.3091,-2.3091,-2.3091,-2.3091,-2.3091,0.0,0.0,0.0,0.0,0.0,-1.5048,-1.5169,-1.5189,-1.519,0.0,0.0,0.0,-1.5324,-1.5478,-1.5578,-1.5578,-1.5732,-1.5784,-1.5784,-1.5784,-1.5784,-1.5784,-1.5784,-1.5784,-1.5784,-1.5784,-1.5784,-1.5784,-1.5784,-1.5784,-1.5784,-1.5784,-1.5784,-1.5784,-1.5784,-1.5784,-1.5825,-1.6574,-1.7454,-1.8331,-1.8505,-1.9458,-2.0765,-2.0458,-2.0589,0.0,0.0,0.0,-2.2225,-2.1302,-2.1587,0.0,0.0,0.0,-1.648,0.0,-1.5784,-1.5784,-1.5784,-1.5784,-1.5784,-1.5784,0.0,0.0,-1.7013,-1.8265,-1.9488,0.0,-2.1674,-2.2485,-2.2163,-2.2515,-2.2573,0.0,0.0,0.0,0.0,0.0,0.0,0.0,0.0,0.0,0.0,-2.3091,-2.3091,-2.3091,-2.3091,-2.3091,-2.3091,-2.3091,-2.3091,-2.3091,-2.3091,-2.3091,-2.3091,-2.3091,-2.3091,-2.3091,-2.3091,-2.3091,-2.3091,-2.3091,-2.3091,-2.3091,-2.3091,-2.3091,-2.3091,-2.3091,-2.3091,-2.3091,-2.3091,-2.3091,-2.3091,-2.3091,-2.3091,-2.3091,0.0,0.0,-1.5109,-1.5109,-1.5109,-1.515,-1.5404,-1.5444,-1.5538,0.0,-1.5811,-1.5818,-1.5784,-1.5811,-1.5879,-1.5879,-1.5798,-1.5798,-1.5831,-1.5798,-1.5784,-1.5784,-1.5784,-1.5784,-1.5784,-1.5784,-1.5784,-1.5784,-1.5784,-1.5784,-1.5784,-1.5784,-1.5784,-1.5784,-1.5784,-1.5784,-1.5784,-1.5784,-1.6749,-1.8379,-1.9225,-1.9899,-2.0458,-2.1611,-2.2044,-2.2099,-2.2007,-2.2934,-2.416,-2.3354,-2.2306,0.0,0.0,0.0,0.0,0.0,-1.5784,-1.5784,-1.5784,-1.5784,-1.5784,0.0,0.0,0.0,-1.6393,-1.7629,-1.8828,0.0,-2.0666,-2.1606,-2.0898,-2.163,-2.1761,0.0,0.0,0.0,0.0,0.0,0.0,0.0,0.0,0.0,-2.3091,-2.3091,-2.3091,-2.3091,-2.3091,-2.3091,-2.3091,-2.3091,-2.3091,-2.3091,-2.3091,-2.3091,-2.3091,-2.3091,-2.3091,-2.3091,-2.3091,-2.3091,-2.3091,-2.3091,-2.3091,-2.3091,-2.3091,-2.3091,-2.3091,-2.3091,-2.3091,-2.3091,-2.3091,-2.3091,-2.3091,-2.3091,-2.3091,-2.3091,0.0,-1.5658,-1.5658,-1.5658,-1.5658,-1.5678,-1.5684,-1.5698,-1.5718,-1.5771,-1.6039,-1.6092,-1.5804,-1.6046,-1.6186,-1.6186,-1.5965,-1.5925,-1.6166,-1.5965,-1.5784,-1.5784,-1.5784,-1.5784,-1.5784,-1.5784,-1.5784,-1.5784,-1.5784,-1.5784,-1.5784,-1.5784,-1.5784,-1.5784,-1.5784,-1.5784,-1.5784,-1.5784,-1.6749,-1.8394,-1.9538,-2.0751,-2.2075,-2.3024,-2.3207,-2.29,-2.2865,-2.3046,-2.3325,-2.3149,-2.2306,-2.1051,0.0,0.0,0.0,-1.615,0.0,0.0,0.0,0.0,0.0,0.0,0.0,0.0,-1.5906,-1.6986,-1.7957,0.0,-1.986,-2.1368,-2.1211,-2.1362,-2.1389,0.0,0.0,0.0,0.0,0.0,0.0,0.0,0.0,0.0,-2.3091,-2.3091,-2.3091,-2.3091,-2.3091,-2.3091,-2.3091,-2.3091,-2.3091,-2.3091,-2.3091,-2.3091,-2.3091,-2.3091,-2.3091,-2.3091,-2.3091,-2.3091,-2.3091,-2.3091,-2.3091,-2.3091,-2.3091,-2.3091,-2.3091,-2.3091,-2.3091,-2.3091,-2.3091,-2.3091,-2.3091,-2.3091,-2.3091,-2.3091,-1.5784,-1.5784,-1.5784,-1.5784,-1.5784,-1.5879,-1.6025,-1.6052,-1.6099,-1.6246,-1.64,-1.6433,-1.6279,-1.64,-1.6486,-1.6486,-1.6967,-1.6981,-1.6321,-1.6793,-1.6681,-1.5832,-1.5784,-1.5784,-1.5784,-1.5784,-1.5784,-1.5784,-1.5784,-1.5784,-1.5784,-1.5784,-1.5752,-1.5618,-1.5718,-1.6061,-1.6483,-1.6205,-1.7352,-1.9423,-1.9028,-1.9476,-2.0462,-2.1304,-2.1491,-2.1355,-2.1987,-2.2589,-2.313,-2.3389,-2.2582,0.0,-1.992,-1.8752,-1.7618,0.0,-1.5784,-1.5865,0.0,0.0,0.0,-1.6052,0.0,0.0,0.0,-1.6522,-1.7286,-1.7175,-1.8552,-1.9621,-1.9211,-2.0191,-2.0438,-1.8808,0.0,0.0,0.0,0.0,0.0,0.0,0.0,0.0,-2.3091,-2.3091,-2.3091,-2.3091,-2.3091,-2.3091,-2.3091,-2.3091,-2.3091,-2.3091,-2.3091,-2.3091,-2.3091,-2.3091,-2.3091,-2.3091,-2.3091,-2.3091,-2.3091,-2.3091,-2.3091,-2.3091,-2.3091,-2.3091,-2.3091,-2.3091,-2.3091,-2.3091,-2.3091,-2.3091,-2.3091,-2.3091,-2.3091,-2.3091,-1.5784,-1.5784,-1.5798,-1.5905,-1.5912,-1.6012,-1.6313,-1.6359,-1.644,-1.6673,-1.6707,-1.678,-1.6968,-1.6961,-1.7009,-1.7125,-1.8182,-1.8286,-1.6924,-1.7715,-1.7647,-1.6211,-1.6027,-1.5898,-1.5784,-1.5838,-1.5838,-1.5784,-1.5784,-1.5784,-1.5784,-1.5784,-1.5738,-1.5571,-1.5752,-1.6444,-1.7429,-1.6929,-1.8167,-2.0365,-1.8769,-1.8565,-1.9304,-2.0038,-2.0326,-2.0454,-2.1329,-2.2262,-2.3159,-2.3643,-2.2911,-2.1566,-2.0147,-1.8981,0.0,0.0,0.0,0.0,0.0,0.0,0.0,0.0,0.0,-1.6229,0.0,0.0,0.0,-1.6482,-1.7313,0.0,0.0,0.0,0.0,0.0,0.0,0.0,0.0,0.0,0.0,0.0,0.0,0.0,0.0,-2.3091,-2.3091,-2.3091,-2.3091,-2.3091,-2.3091,-2.3091,-2.3091,-2.3091,-2.2862,-2.2765,-2.2765,-2.2501,-2.2501,-2.2765,-2.2765,-2.2862,-2.3091,-2.3091,-2.3091,-2.3091,-2.3091,-2.3091,-2.3091,-2.3091,-2.3091,-2.3091,-2.3091,-2.3091,-2.3091,-2.3091,-2.3091,-2.3091,-1.5784,-1.5784,-1.5912,-1.6179,-1.6219,-1.6319,-1.6613,-1.6653,-1.6667,-1.67,-1.6707,-1.6997,-1.7826,-1.7941,-1.8169,-1.8693,-1.9137,-1.9217,-1.8734,-1.8353,-1.7933,-1.7512,-1.6905,-1.6359,-1.5791,-1.6086,-1.6092,-1.5784,-1.5784,-1.5784,-1.5784,-1.5784,-1.5952,-1.6214,-1.5932,-1.68,-1.851,-1.8212,-1.8885,-2.013,-1.9906,-2.0903,0.0,-2.3118,-2.3297,-2.3294,-2.2997,-2.3003,-2.3159,0.0,-2.2911,-2.1655,0.0,-1.9367,-1.7886,-1.688,0.0,0.0,0.0,0.0,0.0,0.0,-1.7078,0.0,0.0,0.0,-1.5954,-1.592,0.0,0.0,0.0,0.0,0.0,0.0,0.0,0.0,0.0,0.0,0.0,0.0,0.0,0.0,0.0,-2.3091,-2.3091,-2.3091,-2.3091,-2.3091,-2.3091,-2.3091,-2.3091,-2.3091,-2.2076,-2.1525,-2.1525,-2.044,-2.044,-2.1525,-2.1525,-2.2076,-2.3091,-2.3091,-2.3091,-2.3091,-2.3091,-2.3091,-2.3091,-2.3091,-2.3091,-2.3091,-2.3091,-2.3091,-2.3091,-2.3091,-2.3091,-2.3091,-1.5784,-1.5784,-1.5824,-1.5992,-1.6159,-1.6653,-1.7683,-1.8339,-1.8323,-1.7338,-1.7368,-1.8005,-1.9575,-1.952,-1.9513,-1.9843,-2.1139,-2.1059,0.0,0.0,-1.9526,-1.9518,-1.7682,-1.6927,-1.748,-1.6724,-1.6213,-1.6086,-1.5912,-1.5784,-1.5784,-1.6005,-1.6059,-1.6019,-1.6066,-1.7251,-1.9122,-1.872,-2.0279,-2.2922,-2.2099,-2.2886,0.0,-2.2143,-2.1744,-2.2408,-2.293,-2.3091,-2.312,0.0,-2.2819,0.0,0.0,0.0,0.0,0.0,0.0,0.0,0.0,0.0,0.0,0.0,0.0,0.0,-1.6971,0.0,-1.5784,0.0,0.0,0.0,0.0,0.0,0.0,0.0,-1.9449,0.0,0.0,0.0,0.0,0.0,0.0,0.0,0.0,0.0,0.0,0.0,-2.3091,-2.3091,-2.3091,-2.2448,-2.2076,-2.2076,-2.089,-2.026,-2.026,-1.9761,-1.9761,-2.026,-2.026,-2.0531,-2.1033,-2.1756,-2.2076,-2.2076,-2.2818,-2.3091,-2.3091,-2.3091,-2.3091,-2.3091,-2.3091,-2.3091,-2.3091,-2.3091,-2.3091,-2.3091,-1.5952,-1.5838,-1.5831,-1.6039,-1.6246,-1.6852,-1.8217,-1.9043,-1.9259,-1.8457,-1.8531,-1.9521,-2.1793,-2.1674,-2.1546,-2.1843,-2.3318,-2.3045,0.0,0.0,-2.0779,-2.0942,0.0,0.0,-1.9041,-1.7793,-1.705,-1.6967,-1.6366,-1.6072,-1.6072,-1.6293,-1.6319,-1.6199,-1.6333,-1.7548,-1.9405,-1.93,-2.1151,-2.4182,-2.3494,-2.3784,-2.4345,-2.181,-2.1337,-2.2119,-2.3117,-2.3442,-2.3461,-2.3578,-2.3184,0.0,-2.2104,0.0,0.0,0.0,0.0,0.0,-2.1056,0.0,0.0,0.0,0.0,0.0,0.0,0.0,0.0,0.0,0.0,0.0,0.0,0.0,0.0,0.0,0.0,-2.1178,0.0,0.0,0.0,0.0,0.0,0.0,0.0,0.0,0.0,-2.3091,-2.3091,-2.296,-2.2633,-2.18,-2.1159,-2.08,-1.9625,-1.9001,-1.9001,-1.8672,-1.8672,-1.9001,-1.9001,-1.936,-2.0034,-2.089,-2.148,-2.1845,-2.2721,-2.3091,-2.3091,-2.3091,-2.3091,-2.3091,-2.3091,-2.3091,-2.3091,-2.3091,-2.3091,-2.3091,-1.6259,-1.6025,-1.5957,-1.658,-1.6687,-1.6887,-1.7521,-1.7889,-1.8562,-2.0007,-2.0219,-2.1399,-2.4559,-2.4555,-2.4627,0.0,0.0,-2.4962,-2.3457,0.0,-2.11,0.0,0.0,-1.9695,0.0,-1.9416,-1.8955,-1.8633,-1.7314,-1.6673,-1.6673,-1.6687,-1.684,-1.7146,-1.682,-1.7631,-1.9275,-2.0184,-2.1148,-2.2199,-2.3322,-2.3049,-2.2069,0.0,-2.403,-2.3773,-2.4183,0.0,0.0,-2.4863,-2.4136,0.0,0.0,0.0,0.0,0.0,0.0,0.0,0.0,0.0,0.0,-2.095,0.0,0.0,0.0,0.0,-1.6513,0.0,0.0,0.0,0.0,0.0,0.0,-1.6917,0.0,0.0,0.0,0.0,0.0,0.0,0.0,0.0,0.0,0.0,0.0,-2.3091,-2.3091,-2.2589,-2.1436,-2.1337,-2.0755,-1.9579,-1.8365,-1.7777,-1.7777,-1.6527,-1.652,-1.7777,-1.7777,-1.9001,-2.1248,-2.1293,-2.1943,-2.3047,-2.3091,-2.3091,-2.3091,-2.3091,-2.3091,-2.3091,-2.3091,-2.3091,-2.3091,-2.3091,-2.3091,-2.3091,-1.7319,-1.6919,-1.6473,-1.6673,-1.6867,-1.7548,-1.9132,-2.1172,-2.2573,-2.283,-2.3043,-2.4197,0.0,-2.6755,-2.6518,0.0,0.0,-2.6231,-2.4308,-2.3533,0.0,0.0,0.0,-2.1865,0.0,0.0,-1.9849,-2.0335,-1.7924,-1.7143,-1.8022,-1.7349,-1.7105,-1.7199,-1.7099,-1.7686,-1.8813,-2.0047,-2.1461,-2.2917,0.0,-2.4022,-2.2559,0.0,0.0,-2.2992,-2.4033,-2.4414,0.0,-2.459,-2.4533,-2.4355,-2.4212,-2.4012,-2.3716,-2.3352,-2.3176,0.0,0.0,0.0,-2.2767,-2.2413,0.0,0.0,0.0,0.0,0.0,0.0,0.0,0.0,0.0,0.0,-1.7142,-1.7442,-1.8287,0.0,0.0,0.0,0.0,0.0,0.0,0.0,0.0,0.0,0.0,-2.2682,-2.2682,-2.2543,-2.2136,-2.0846,-1.9898,-1.9488,-1.7529,-1.6433,-1.6433,-1.6015,-1.6015,-1.6433,-1.6433,-1.7304,-1.8956,-1.9716,-2.0755,-2.1943,-2.2765,-2.3091,-2.3047,-2.2262,-2.1889,-2.1845,-2.1033,-2.0728,-2.0809,-2.1623,-2.2394,-2.2862,-1.7654,-1.736,-1.6981,-1.6881,-1.7503,-1.8535,-2.0091,-2.2671,-2.4654,-2.5116,-2.5708,0.0,-2.8956,0.0,-2.8567,0.0,-2.8295,-2.7574,-2.5764,-2.4589,0.0,-2.507,-2.3391,0.0,0.0,0.0,0.0,0.0,-1.9257,-1.8318,-1.9007,-1.7863,-1.7353,-1.7353,-1.7353,-1.7534,-1.798,-1.9932,-2.1284,-2.2262,0.0,-2.4296,0.0,0.0,-2.3645,-2.2982,0.0,-2.4836,-2.4836,-2.4836,-2.5068,-2.5254,-2.498,-2.5078,-2.5225,-2.4775,-2.4648,-2.4609,-2.4463,-2.3888,0.0,-2.2906,-2.1097,0.0,-1.9022,0.0,0.0,0.0,0.0,0.0,0.0,0.0,0.0,-1.7645,-1.7948,-1.8172,0.0,-1.7833,0.0,0.0,0.0,0.0,0.0,0.0,-2.2607,-2.2314,-2.2568,-2.2442,0.0,0.0,-1.9314,-1.8864,-1.6889,-1.5784,-1.5784,-1.5784,-1.5784,-1.5832,-1.6251,-1.7124,-1.8365,-1.9588,-2.08,-2.1987,-2.2765,-2.3091,-2.3003,-2.18,-2.1293,-2.1159,-1.9988,-1.9497,-1.9579,-2.0395,-2.1212,-2.1662,-1.7271,-1.7467,-1.7542,-1.732,-1.8551,-1.9821,-2.0378,0.0,-2.4748,-2.6807,-2.801,-2.925,-3.0801,-3.0967,-3.0771,-3.0303,-2.9797,-2.8962,-2.7727,-2.4995,0.0,0.0,-2.2868,-2.2496,-2.4341,0.0,0.0,0.0,-2.1131,-2.0001,-1.9679,-1.8244,-1.7582,-1.7582,-1.7602,-1.7275,-1.687,-1.974,-2.0678,-2.0483,-2.3345,-2.3909,-2.3199,-2.4612,-2.4466,-2.3719,-2.5177,-2.5693,-2.5693,-2.5693,-2.5693,-2.5693,-2.5693,-2.5674,-2.5625,-2.5195,-2.5096,-2.4941,-2.4502,-2.3485,-2.253,-2.2436,0.0,0.0,0.0,0.0,-1.7018,0.0,0.0,0.0,0.0,0.0,0.0,-1.7412,-1.6574,-1.5732,0.0,0.0,0.0,0.0,0.0,0.0,0.0,-2.2042,-2.2658,-2.1943,-2.2627,-2.2351,0.0,0.0,-1.9039,-1.7824,-1.6574,-1.5872,-1.5784,-1.5784,-1.5832,-1.592,-1.7131,-1.8365,-1.9633,-2.08,-2.1943,-2.3091,-2.3091,-2.3091,-2.3003,-2.18,-2.1248,-2.1114,-1.9898,-1.9368,-1.933,-1.9459,-1.9611,-1.9625,-1.8603,-1.8524,-1.8237,-1.8163,-1.917,-2.056,0.0,0.0,0.0,0.0,-2.9758,-3.0312,-3.2112,-3.2031,-3.166,-3.1221,-2.9408,0.0,0.0,0.0,0.0,-2.4194,-2.4034,-2.4108,-2.4407,-2.3169,0.0,-2.4574,0.0,-1.949,-2.1092,-1.87,-1.7582,-1.7595,-1.7822,-1.7468,-1.6841,-1.8906,-2.0756,-2.2425,-2.4526,-2.4739,0.0,0.0,-2.486,-2.4088,-2.5282,-2.5693,-2.5693,-2.5693,-2.5693,-2.5693,-2.5693,-2.5508,-2.5215,-2.5145,-2.4834,-2.4492,-2.4062,-2.3062,-2.2133,-2.2124,-2.0134,-1.8308,0.0,0.0,0.0,0.0,0.0,0.0,0.0,0.0,0.0,0.0,-1.6015,0.0,0.0,0.0,0.0,-1.5725,0.0,0.0,-1.9692,-2.0402,-2.1095,-2.1853,-2.209,-2.2023,0.0,0.0,0.0,-1.9085,-1.7863,-1.6763,-1.5832,-1.5784,-1.6292,-1.7225,-1.7552,-1.8818,-2.0845,-2.1159,-2.1943,-2.3091,-2.3091,-2.3091,-2.3003,-2.18,-2.0755,-1.9852,-1.8634,-1.7732,-1.7299,-1.8905,-1.8966,-1.8255,-1.8636,-1.8748,-1.8677,-1.8677,0.0,0.0,-2.3954,-2.4952,0.0,-3.0634,-3.0428,0.0,-3.2063,-3.2363,-3.2187,-3.1572,-3.0211,0.0,-2.8471,0.0,0.0,-2.5557,-2.4312,-2.3844,-2.4407,-2.3126,0.0,-2.4078,0.0,-2.0091,-2.0964,-1.8667,-1.7655,-1.7796,-1.7916,-1.7709,-1.7405,-1.953,-2.1576,-2.361,-2.5099,-2.536,0.0,-2.568,-2.5483,-2.4914,-2.5932,-2.6005,-2.5693,-2.5693,-2.5693,-2.5693,-2.5693,-2.5566,-2.5265,-2.4649,-2.4277,-2.3871,-2.2703,-2.1506,-2.0631,-2.0865,-1.8972,-1.7335,-1.8219,-1.7429,-1.6473,0.0,0.0,0.0,0.0,0.0,0.0,0.0,0.0,0.0,0.0,0.0,0.0,0.0,-1.6267,0.0,0.0,-1.9538,-2.0382,-2.1006,-2.1739,-2.2158,0.0,0.0,0.0,-2.0305,-1.8596,-1.7365,-1.6622,-1.6062,-1.6433,-1.7692,-1.8226,-1.9488,-2.1337,-2.1845,-2.2448,-2.3091,-2.3091,-2.3091,-2.3003,-2.18,-2.089,-2.0124,-1.8365,-1.7381,-1.7003,-1.7643,-1.7621,-1.7305,-1.8095,-1.8582,-1.9025,0.0,0.0,0.0,0.0,-2.6391,0.0,-3.1178,0.0,-3.0569,-3.1626,-3.2334,-3.2412,-3.167,0.0,-3.079,-3.0035,-2.8072,-2.7131,-2.7468,-2.4209,-2.3038,-2.4485,-2.35,-2.3018,0.0,0.0,-2.1071,-2.0332,-1.8496,-1.7749,-1.7995,-1.8035,-1.8157,-1.8495,-2.0754,-2.2621,-2.4242,-2.5347,-2.5801,-2.5898,-2.6328,-2.624,-2.5957,-2.6748,-2.6465,-2.5693,-2.5752,-2.5732,-2.5693,-2.5693,-2.5693,-2.543,-2.4097,-2.3692,-2.3265,-2.1156,-1.9659,-1.8776,-1.917,-1.7529,-1.613,-1.7471,-1.7111,-1.6504,-1.6504,-1.6504,-1.6752,0.0,0.0,0.0,0.0,0.0,0.0,0.0,0.0,0.0,0.0,0.0,0.0,0.0,0.0,-1.9981,-1.9853,-2.1448,0.0,0.0,0.0,0.0,-2.1069,-1.9047,0.0,-1.7517,0.0,-1.6541,-1.7977,-1.8842,-2.0079,-2.1569,-2.2448,-2.296,-2.3091,-2.3091,-2.3091,-2.3003,-2.1987,-2.1436,-2.1069,-1.8818,-1.7846,-1.7618,-1.6537,-1.6412,-1.6734,-1.8724,-1.9245,-1.9573,0.0,0.0,-2.5789,-2.7075,-2.8044,-2.9401,-3.1774,-3.177,-3.1967,-3.2976,-3.2607,-3.2217,-3.207,-3.0146,0.0,0.0,0.0,0.0,-2.6209,-2.4603,-2.4122,-2.4971,-2.3551,-2.3608,0.0,0.0,-2.0519,-2.184,-1.8962,-1.7749,-1.8002,-1.8303,-1.905,-2.0116,-2.1211,0.0,-2.4361,-2.5722,-2.6484,-2.6797,-2.6875,-2.6855,-2.6807,-2.6963,-2.6465,-2.5742,-2.6152,-2.6035,-2.5693,-2.5693,-2.5693,-2.543,-2.4097,-2.3692,-2.3265,-2.1156,-1.9659,-1.8589,-1.8123,-1.6897,-1.5886,-1.6123,-1.6841,-1.7446,-1.7446,-1.7446,-1.7525,-1.7652,0.0,0.0,0.0,0.0,0.0,0.0,0.0,0.0,0.0,0.0,-1.6728,0.0,0.0,0.0,0.0,0.0,0.0,0.0,0.0,0.0,0.0,-1.9405,0.0,0.0,0.0,-1.7058,-1.9513,-1.8497,-1.9679,-2.2765,-2.1987,-2.2173,-2.3091,-2.3091,-2.3091,-2.3091,-2.2862,-2.2217,-2.1159,-1.9716,-1.8714,-1.8022,-1.8047,-1.7443,-1.668,-1.9546,-1.9833,-2.0367,-2.1601,0.0,0.0,0.0,-3.128,-3.2699,-3.282,-3.1898,-3.1625,-3.2646,-3.2607,-3.2412,-3.2248,-3.0885,-2.9943,-2.9726,-2.8217,-2.7369,-2.7452,-2.5594,0.0,-2.5382,-2.3747,-2.3541,-2.4868,0.0,0.0,-2.1695,-1.9972,-1.8944,-1.8504,-1.9348,-2.0545,0.0,0.0,0.0,-2.4687,-2.6123,-2.6836,-2.7041,-2.7266,-2.7207,-2.707,-2.7519,-2.7129,-2.6396,-2.6387,-2.625,-2.6035,-2.5762,-2.5693,-2.543,-2.4097,-2.3226,-2.2204,-2.0183,-1.8648,-1.7534,-1.6864,-1.6244,-1.5967,-1.6622,-1.7271,-1.787,-1.8503,-1.8141,-1.7505,-1.685,-1.6381,0.0,0.0,0.0,0.0,0.0,0.0,0.0,0.0,0.0,0.0,0.0,0.0,0.0,0.0,0.0,0.0,0.0,0.0,0.0,0.0,0.0,0.0,0.0,0.0,0.0,-1.8738,-1.8039,-1.9276,-2.2164,-2.1569,-2.1943,-2.3091,-2.3091,-2.3091,-2.3091,-2.3091,-2.2765,-2.212,-2.089,-2.0144,-1.963,-1.8508,-1.7833,-1.7394,-2.0361,-2.0468,0.0,0.0,-2.6432,0.0,-3.09,-3.3947,-3.543,-3.3779,-3.2353,-3.1687,-3.2358,-3.2578,-3.2529,-3.2258,-3.1689,-3.124,-3.0918,-3.0059,-2.9264,-2.8487,-2.6489,-2.5475,-2.5503,-2.4135,-2.3874,0.0,0.0,0.0,0.0,-2.0944,-2.0161,0.0,0.0,0.0,0.0,0.0,-2.4857,-2.5043,-2.6173,-2.693,-2.7273,-2.7332,-2.7317,-2.7373,-2.8047,-2.7861,-2.7217,-2.6807,-2.6543,-2.6309,-2.583,-2.5693,-2.543,-2.4097,-2.2767,-2.1259,-1.935,-1.7832,-1.6673,-1.6146,-1.5965,-1.6252,-1.7515,-1.7916,-1.8411,-1.9625,-1.891,-1.7684,-1.6433,-1.6211,0.0,0.0,0.0,0.0,0.0,0.0,0.0,0.0,0.0,0.0,-1.656,0.0,0.0,0.0,0.0,0.0,0.0,0.0,0.0,0.0,0.0,-1.9034,-1.8829,0.0,-1.6468,0.0,-1.7441,-1.8588,-2.0935,-2.0935,-2.1578,-2.2721,-2.3003,-2.3091,-2.3091,-2.3091,-2.3091,-2.3003,-2.2031,-2.1525,-2.1078,-1.9228,-1.8416,-1.8152,0.0,0.0,0.0,0.0,0.0,0.0,-3.0991,-3.3947,-3.5537,-3.4189,-3.4167,-3.407,-3.3389,-3.2656,-3.2217,-3.2178,-3.1416,-3.0928,-3.0889,-3.0059,-2.8799,-2.6965,-2.6825,-2.6228,-2.492,-2.4875,-2.5489,0.0,0.0,0.0,0.0,0.0,0.0,0.0,0.0,0.0,0.0,-2.414,-2.5019,-2.5334,-2.5502,-2.6602,-2.8067,-2.676,-2.703,-2.8184,-2.8262,-2.8242,-2.8105,-2.7685,-2.7031,-2.6309,-2.583,-2.5693,-2.543,-2.4097,-2.2767,-2.1308,-1.964,-1.8158,-1.7085,-1.6707,-1.6426,-1.6566,-1.7798,-1.8722,-1.967,-2.089,-2.0169,-1.8956,-1.7731,-1.6595,-1.5865,0.0,0.0,0.0,0.0,0.0,-1.6251,-1.7365,0.0,0.0,0.0,-1.8272,0.0,0.0,0.0,0.0,0.0,0.0,0.0,-1.8211,0.0,-1.7457,-1.6607,-1.6054,-1.6572,-1.803,-1.666,-1.725,-1.9679,-1.9679,-2.035,-2.1525,-2.2633,-2.3091,-2.3091,-2.3091,-2.3091,-2.3091,-2.296,-2.2262,-2.1293,-2.1406,-2.0184,-1.8516,0.0,0.0,0.0,0.0,0.0,0.0,0.0,-3.424,-3.494,-3.3001,-3.3915,-3.4375,-3.3516,-3.29,-3.2054,-3.0836,-3.1043,-3.0287,-2.8077,-2.921,-2.906,-2.7028,-2.7495,-2.7385,-2.6532,-2.6127,-2.624,0.0,0.0,0.0,0.0,0.0,0.0,0.0,0.0,-2.1487,-2.2971,-2.3564,-2.3909,-2.4116,-2.4338,-2.4911,-2.5553,-2.4931,-2.5105,-2.5717,-2.6662,-2.6997,-2.7049,-2.753,-2.7493,-2.7082,-2.6348,-2.555,-2.4868,-2.489,-2.2776,-2.0417,-2.0416,-1.8839,-1.7132,-1.678,-1.662,-1.6873,-1.8072,-1.9091,-2.0088,-2.1353,-2.0468,-1.8902,-1.6936,-1.6307,-1.6039,0.0,0.0,0.0,0.0,0.0,0.0,0.0,0.0,-1.703,0.0,0.0,0.0,0.0,0.0,0.0,0.0,0.0,0.0,-1.8756,0.0,-1.7517,-1.713,-1.6265,-1.6116,-1.6709,-1.6069,-1.6702,-1.8411,-1.8411,-1.9488,-2.1337,-2.18,-2.2448,-2.3091,-2.3091,-2.3091,-2.3091,-2.3091,-2.2818,-2.2362,-2.2008,-2.1468,-2.0772,-2.2211,0.0,-2.3679,0.0,-2.8605,-2.9733,-3.2543,-3.438,-3.47,-3.2773,-3.3812,-3.4375,-3.3516,-3.2939,-3.1836,-2.9874,-3.026,-2.9462,-2.691,-2.8458,-2.8887,-2.7425,-2.7969,0.0,-2.6763,-2.665,-2.6565,-2.655,-2.6856,0.0,0.0,0.0,0.0,0.0,-2.1182,-2.1315,-2.252,-2.3021,-2.3023,-2.2751,-2.3055,-2.3431,-2.3766,-2.3319,-2.3431,-2.3933,-2.5041,-2.5709,-2.6227,-2.6946,-2.7156,-2.7012,-2.655,-2.5352,-2.4254,-2.4899,-2.2475,-1.9781,-2.0535,-1.9073,-1.728,-1.7014,-1.6901,-1.7159,-1.8242,-1.8966,-1.9727,-2.0891,-1.9962,-1.8449,-1.6662,-1.6238,-1.6072,-1.5865,0.0,0.0,0.0,0.0,0.0,0.0,-1.6574,-1.6433,-1.8095,-1.6756,0.0,0.0,0.0,0.0,0.0,0.0,0.0,0.0,0.0,0.0,0.0,-1.6244,-1.5784,-1.5784,-1.5784,-1.6244,-1.7185,-1.7601,-1.8913,-2.0809,-2.1248,-2.1876,-2.2589,-2.296,-2.3091,-2.3091,-2.3091,-2.3091,-2.3052,-2.2661,-2.2464,-2.2328,-2.2739,-2.31,-2.4106,-2.6572,-2.8498,-3.0329,-3.2224,-3.4124,-3.5078,-3.4199,-3.4443,-3.4375,-3.3516,-3.2676,-3.1529,-2.9856,-2.8938,-2.8426,-2.8358,-2.8057,-2.7898,0.0,0.0,-2.7138,-2.4578,-2.6134,-2.6456,-2.5432,0.0,0.0,-2.5344,0.0,-2.1406,-2.0926,-2.0918,-2.0926,-2.1037,-2.252,-2.2617,-2.1635,-2.1635,-2.2476,-2.3654,-2.2202,-2.254,-2.3822,-2.3822,-2.482,-2.61,-2.6091,-2.5883,-2.5748,-2.6227,-2.5154,-2.3692,-2.3741,-2.176,-1.9576,-1.9627,-1.8655,-1.7575,-1.7569,-1.7407,-1.7418,-1.8286,-1.8305,-1.8405,-1.9342,-1.8549,-1.7684,-1.7692,-1.6669,-1.5784,-1.5784,0.0,0.0,0.0,0.0,0.0,0.0,-1.6574,-1.6749,-1.9222,0.0,0.0,0.0,0.0,0.0,0.0,0.0,0.0,-1.5818,-1.5832,0.0,-1.5825,-1.5832,-1.5784,-1.5784,-1.5784,-1.5832,-1.5886,-1.7402,-1.8636,-1.9604,-2.114,-2.159,-2.1426,-2.2633,-2.3091,-2.3091,-2.3091,-2.3091,-2.3149,-2.3633,-2.3211,-2.247,-2.508,-2.5621,-2.6869,-3.0287,-3.1305,-3.1892,-3.2867,-3.4371,-3.47,-3.2821,-3.2792,-3.2626,-3.1717,-3.1225,-2.9708,0.0,-2.7876,-2.7357,0.0,-2.6421,-2.7042,-2.4359,-2.539,-2.5865,-2.5628,-2.5818,-2.6259,-2.6998,0.0,0.0,0.0,-2.2561,-2.1134,-2.087,-1.9956,-1.9637,-1.9887,-2.0395,-2.0394,-2.009,-2.009,-2.0371,-2.0766,-2.0256,-2.0371,-2.0931,-2.1926,-2.2645,-2.3199,-2.4203,-2.4127,-2.3672,-2.3809,-2.2745,-2.1517,-2.2131,-2.0385,-1.8454,-1.9376,-1.8603,-1.7582,-1.7582,-1.7515,-1.7517,-1.7578,-1.7887,-1.8128,-1.8257,-1.7963,-1.7412,-1.6574,-1.6062,-1.5784,-1.5784,-1.5784,0.0,0.0,0.0,0.0,0.0,-1.6574,-1.6426,0.0,-1.6749,0.0,0.0,0.0,0.0,0.0,0.0,0.0,0.0,-1.5784,0.0,-1.5784,-1.5784,-1.5784,-1.5784,-1.5784,-1.5784,-1.5838,-1.656,-1.7496,-1.8573,-1.906,-1.9694,-2.0344,-2.0553,-2.0629,-2.0629,-2.0629,-2.0629,-2.0843,-2.24,-2.2786,-2.2751,-2.727,-2.7305,-2.795,-3.1098,-3.2147,-3.2427,-3.2175,-3.3395,-3.3539,-3.1342,-3.1049,-3.0507,-2.914,-2.8561,0.0,-2.4804,-2.6121,-2.5625,-2.223,-2.4901,-2.5737,-2.3738,-2.4458,-2.5082,-2.5497,0.0,0.0,-2.7121,-2.7627,-2.677,-2.4531,-2.286,-2.1503,-2.0288,-1.9471,-1.9192,-1.9424,-1.9424,-1.9424,-1.9424,-1.9424,-1.9424,-1.9424,-1.9424,-1.9424,-1.954,-2.0422,-2.1145,-2.1756,-2.2645,-2.2521,-2.1947,-2.1947,-2.0719,-1.9484,-2.0601,-1.9317,-1.7786,-1.8603,-1.8251,-1.7582,-1.7582,-1.7582,-1.7475,-1.7125,-1.7106,-1.718,-1.7033,-1.699,-1.6756,-1.5967,-1.5784,-1.5784,-1.5784,-1.5784,-1.5784,-1.5784,0.0,0.0,0.0,0.0,0.0,0.0,-1.6244,0.0,0.0,0.0,0.0,0.0,0.0,0.0,-1.5784,-1.5784,0.0,-1.5784,-1.5784,-1.5838,-1.5999,-1.6106,-1.6159,-1.6166,-1.6466,-1.6978,-1.7588,-1.8066,-1.8611,-1.9264,-1.9507,-1.9971,-2.0409,-1.9982,-2.0458,-2.1458,-2.2389,-2.3068,-2.3767,-2.9303,-2.8464,0.0,0.0,-3.1538,0.0,-3.0501,-3.154,-3.1786,-2.9915,-2.9289,-2.8269,-2.6216,-2.5047,-2.4409,-2.4409,0.0,0.0,0.0,-2.3512,-2.4078,-2.5185,-2.4791,-2.449,-2.4285,-2.5287,-2.5818,-2.5936,-2.7447,-2.6424,-2.3116,-2.3443,-2.2104,-1.9424,-1.9424,-1.9424,-1.9424,-1.9424,-1.9424,-1.9424,-1.9424,-1.9424,-1.9424,-1.9424,-1.9424,-1.9424,-1.9424,-2.0256,-2.1479,-2.1479,-2.1056,-2.059,-2.059,-1.9241,-1.7865,-1.9072,-1.8558,-1.7582,-1.7582,-1.7582,-1.7582,-1.7582,-1.7555,-1.7375,-1.6827,-1.6253,-1.5784,-1.5784,-1.5784,-1.5784,-1.5784,-1.5784,-1.5784,-1.5784,-1.5784,-1.5784,-1.5784,0.0,0.0,0.0,0.0,0.0,0.0,-1.5784,-1.5784,0.0,0.0,0.0,0.0,0.0,-1.5784,-1.5784,-1.5798,-1.5811,-1.5811,-1.5831,-1.6025,-1.6355,-1.6573,-1.6707,-1.6714,-1.7065,-1.7052,-1.6784,-1.791,-1.8277,-1.8141,-1.9328,-2.0589,-2.1682,-2.078,-2.1963,-2.4083,-2.3288,-2.3847,-2.5129,0.0,0.0,-3.1887,-3.2314,-3.37,-3.3659,-3.0455,-3.1444,-3.1661,-2.9302,-2.7958,-2.6817,-2.5764,-2.3812,-2.2628,-2.2628,-2.3196,-2.3084,-2.179,-2.2897,-2.2943,-2.1541,-2.1382,-2.1604,-2.2276,-2.2515,-2.3199,-2.4322,-2.5882,-2.5052,-2.1974,-2.2107,-2.1145,-1.9424,-1.9424,-1.9424,-1.9424,-1.9424,-1.9424,-1.9424,-1.9424,-1.9424,-1.9424,-1.9424,-1.9424,-1.9424,-1.9424,-1.9649,-1.9924,-1.9924,-1.9676,-1.9311,-1.9311,-1.8679,-1.7943,-1.8064,-1.7838,-1.7582,-1.7582,-1.7582,-1.7582,-1.7582,-1.7248,-1.6881,-1.674,-1.6253,-1.5784,-1.5784,-1.5784,-1.5784,-1.5784,-1.5784,-1.5784,-1.5784,-1.5784,-1.5784,-1.5784,-1.5784,0.0,0.0,-1.5784,-1.5784,-1.5784,-1.5784,-1.5784,0.0,0.0,0.0,0.0,-1.5784,-1.5784,-1.5784,-1.6052,-1.6166,-1.6166,-1.6386,-1.6533,-1.6607,-1.6673,-1.6707,-1.6714,-1.7065,-1.7166,-1.7099,-1.7391,-1.7452,-1.747,-1.8535,-1.9202,-1.9548,-2.0392,-2.1097,-2.177,-2.2856,-2.3636,-2.4331,-3.2768,-3.1825,-3.0901,-3.1738,-3.2414,-3.1941,-2.9005,-2.9286,-2.8972,-2.6832,-2.5655,-2.4922,-2.4519,-2.3008,-2.1984,-2.1984,-2.2262,-2.2097,-2.1172,-2.1971,-2.1755,-2.0254,-2.0173,-2.0648,-2.1601,-2.1586,-2.2307,-2.3822,-2.4654,-2.3869,-2.1586,-2.1586,-2.0809,-1.9424,-1.9424,-1.9424,-1.9424,-1.9424,-1.9446,-1.9566,-1.9566,-1.9566,-1.9566,-1.9566,-1.9486,-1.9424,-1.9424,-1.9424,-1.9424,-1.9424,-1.9172,-1.8925,-1.8925,-1.8611,-1.8217,-1.8043,-1.7802,-1.7582,-1.7582,-1.7582,-1.7582,-1.7582,-1.7241,-1.6907,-1.6907,-1.6453,-1.6032,-1.6032,-1.5925,-1.5784,-1.5784,-1.5784,-1.5784,-1.5784,-1.5784,-1.5784,-1.5784,-1.5784,0.0,-1.5784,-1.5784,-1.5784,-1.5784,-1.5784,-1.5784,-1.5784,0.0,0.0,-1.5784,-1.5959,-1.6032,-1.6032,-1.6186,-1.6339,-1.6466,-1.676,-1.6907,-1.6907,-1.7041,-1.7108,-1.7114,-1.7326,-1.74,-1.7393,-1.7259,-1.7199,-1.7288,-1.8462,-1.9311,-1.9952,-2.0851,-2.1956,-2.3021,-2.2689,-2.3502,-2.4665,-3.2883,-3.0334,-2.8349,-2.9678,-2.9831,-2.908,-2.6904,-2.652,-2.5809,-2.3978,-2.348,-2.3293,-2.32,-2.2465,-2.1964,-2.1924,-2.1423,-2.1109,-2.1109,-2.1109,-2.0869,-2.0327,-2.0254,-2.055,-2.134,-2.1502,-2.2089,-2.3159,-2.3383,-2.2702,-2.1252,-2.1252,-2.0587,-1.9424,-1.9424,-1.9392,-1.9432,-1.9432,-1.9599,-1.9867,-1.9867,-1.9867,-1.986,-1.982,-1.9646,-1.9491,-1.9379,-1.9424,-1.9424,-1.9424,-1.9199,-1.8991,-1.8991,-1.8791,-1.8557,-1.8557,-1.8163,-1.7722,-1.7722,-1.7689,-1.7642,-1.7595,-1.742,-1.7199,-1.7199,-1.6777,-1.6339,-1.6339,-1.6099,-1.5899,-1.5899,-1.5811,-1.5784,-1.5784,-1.5784,-1.5784,-1.5784,0.0,-1.5798,-1.5892,-1.5899,-1.5912,-1.5911,-1.5959,-1.5959,-1.5959,-1.5959,-1.5959,0.0,-1.6199,-1.6359,-1.6455,-1.6455,-1.6547,-1.6834,-1.7139,-1.7266,-1.7273,-1.7723,-1.7786,-1.7635,-1.7786,-1.7786,-1.7569,-1.7373,-1.7293,-1.7437,-1.8993,-2.0369,-2.1478,-2.2198,-2.3827,-2.5478,-2.3005,-2.3559,-2.5296,-3.317,-3.1386,-2.9464,-2.8133,-2.8732,-2.8251,-2.5138,-2.5453,-2.5411,-2.3597,-2.3354,-2.3133,-2.2612,-2.2218,-2.1891,-2.1708,-2.1309,-2.1109,-2.1109,-2.1109,-2.0962,-2.0621,-2.0368,-2.0134,-2.0081,-2.1054,-2.1088,-2.0097,-2.1316,-2.1202,-1.9758,-1.9758,-1.9649,-1.9424,-1.9424,-1.9506,-1.9733,-1.9733,-1.99,-2.0167,-2.0167,-2.0167,-2.014,-1.9893,-1.9773,-1.97,-1.9452,-1.9424,-1.9424,-1.9424,-1.9397,-1.9299,-1.9299,-1.9092,-1.8858,-1.8858,-1.8617,-1.835,-1.835,-1.817,-1.7856,-1.7649,-1.742,-1.7199,-1.7199,-1.6938,-1.664,-1.664,-1.6406,-1.6206,-1.6206,-1.5999,-1.5784,-1.5784,-1.5784,-1.5784,-1.5784,0.0,-1.5925,-1.6172,-1.6206,-1.6299,-1.6547,-1.6573,-1.6573,-1.6573,-1.6573,-1.6573,-1.6573,-1.6613,-1.6754,-1.7058,-1.7065,-1.7206,-1.7442,-1.7488,-1.7515,-1.7568,-1.8738,-1.8708,-1.7635,-1.876,-1.8655,-1.7582,-1.7535,-1.7662,-1.8063,-2.0705,-2.2064,-2.2703,-2.5199,-2.623,-2.608,-2.4491,-2.4335,-2.4654,-3.0121,-2.8549,-2.6983,-2.6064,-2.6113,-2.5736,-2.4228,-2.4211,-2.4004,-2.3211,-2.3073,-2.2906,-2.2465,-2.2158,-2.1871,-2.1641,-2.1276,-2.1109,-2.1109,-2.1109,-2.0982,-2.0688,-2.0394,-2.0027,-1.9579,-2.0109,-2.009,-1.9424,-2.009,-2.009,-1.9424,-1.9424,-1.9511,-1.9599,-1.9599,-2.0285,-2.1379,-2.1379,-2.2022,-2.3014,-2.2132,-2.1776,-2.1626,-2.0435,-1.994,-1.976,-1.9472,-1.9424,-1.9424,-1.9424,-1.9424,-1.9397,-1.9178,-1.9145,-1.9132,-1.8971,-1.8718,-1.8457,-1.8297,-1.8095,-1.7916,-1.7662,-1.7534,-1.7434,-1.7434,-1.7206,-1.6947,-1.6947,-1.6714,-1.646,-1.6348,-1.6159,-1.6072,-1.6072,-1.5932,0.0,0.0,-1.6072,-1.6119,-1.6259,-1.6413,-1.656,-1.6693,-1.6707,-1.6707,-1.6707,-1.6707,-1.6707,-1.6707,-1.6854,-1.7058,-1.7199,-1.7353,-1.7442,-1.7582,-1.7749,-1.7836,-1.7836,-1.9447,-1.9892,-1.9313,-1.9768,-1.9634,-1.9017,-1.8196,-1.7916,-1.8164,-2.0422,-2.1377,-2.1786,-2.4708,-2.5531,-2.5015,-2.3708,-2.3711,-2.3971,-2.7505,-2.5925,-2.4616,-2.4549,-2.4108,-2.3774,-2.3774,-2.3323,-2.2886,-2.2959,-2.2906,-2.2726,-2.2358,-2.2118,-2.1844,-2.1483,-2.1243,-2.1109,-2.1109,-2.1109,-2.1009,-2.0788,-2.0494,-2.0067,-1.9537,-1.9533,-1.9539,-1.9466,-1.9466,-1.9432,-1.9424,-1.9432,-1.9586,-1.98,-2.0276,-2.1356,-2.2826,-2.3169,-2.4249,-2.5572,-2.4256,-2.3787,-2.3559,-2.1555,-2.0621,-2.0374,-1.9668,-1.9424,-1.9424,-1.9424,-1.9424,-1.9383,-1.9098,-1.9185,-1.9325,-1.9092,-1.8871,-1.8617,-1.8195,-1.8095,-1.8056,-1.7675,-1.7582,-1.7582,-1.7582,-1.746,-1.73,-1.73,-1.7014,-1.674,-1.6569,-1.6469,-1.6373,-1.6373,0.0,0.0,0.0,-1.6373,-1.64,-1.6522,-1.6734,-1.6907,-1.6907,-1.6974,-1.7007,-1.7014,-1.7014,-1.7014,-1.7014,-1.7301,-1.7481,-1.7414,-1.7575,-1.7689,-1.7689,-1.7996,-1.8095,-1.815,-2.0178,-2.0978,-2.07,-2.1053,-2.0905,-2.0227,-1.9031,-1.8347,-1.8224,-1.9954,-2.0716,-2.0995,-2.3578,-2.4254,-2.3625,-2.2388,-2.2434,-2.2662,-2.7505,-2.5925,-2.4549,-2.4282,-2.3975,-2.3774,-2.3774,-2.3323,-2.2966,-2.3253,-2.304,-2.2645,-2.2078,-2.1997,-2.1757,-2.1189,-2.1122,-2.1109,-2.1109,-2.1109,-2.1096,-2.1076,-2.0802,-2.0368,-1.978,-2.0034,-2.004,-1.9766,-1.9766,-1.9633,-1.943,-1.9639,-1.978,-1.9866,-2.166,-2.2677,-2.3157,-2.4691,-2.5545,-2.5943,-2.5822,-2.5822,-2.5566,-2.3359,-2.252,-2.2246,-2.0137,-1.9424,-1.9424,-1.9424,-1.9424,-1.9424,-1.9339,-1.941,-1.9424,-1.9339,-1.9377,-1.9236,-1.8611,-1.8457,-1.8317,-1.7729,-1.7582,-1.7582,-1.7582,-1.7562,-1.7549,-1.7549,-1.7373,-1.7159,-1.7139,-1.686,-1.6673,-1.6673,0.0,0.0,-1.6667,-1.6673,-1.678,-1.7105,-1.7393,-1.7515,-1.7515,-1.7762,-1.7923,-1.7889,-1.7896,-1.7896,-1.7896,-1.823,-1.827,-1.7935,-1.7949,-1.7955,-1.7955,-1.831,-1.8457,-1.8512,-2.1248,-2.1886,-2.0808,-2.2978,-2.2662,-2.028,-2.0075,-1.9355,-1.8588,-2.0327,-2.1234,-2.1681,-2.3238,-2.3427,-2.2654,-2.1317,-2.0643,-2.0181,-2.5712,-2.4989,-2.4335,-2.4222,-2.3808,-2.3494,-2.3494,-2.3133,-2.2975,-2.3026,-2.2772,-2.2432,-2.2031,-2.1824,-2.1557,-2.1149,-2.1109,-2.1109,-2.1109,-2.1109,-2.1029,-2.0848,-2.0735,-2.0488,-2.008,-2.0174,-2.0094,-1.98,-1.98,-1.974,-1.9639,-1.9746,-2.0518,-2.1889,-2.2601,-2.4207,-2.6448,-2.7046,-2.7976,-2.8902,-2.7615,-2.7094,-2.677,-2.3509,-2.2266,-2.2038,-2.0075,-1.9424,-1.9424,-1.9424,-1.9424,-1.9332,-1.9152,-1.9219,-1.9424,-1.9424,-1.9424,-1.9279,-1.8871,-1.8631,-1.8604,-1.906,-1.9007,-1.8864,-1.8864,-1.8864,-1.861,-1.7786,-1.7649,-1.7649,-1.7507,-1.7468,-1.7515,-1.7515,0.0,-1.7048,-1.7221,-1.7094,-1.7139,-1.7434,-1.7682,-1.7943,-1.813,-1.8243,-1.8317,-1.8323,-1.8323,-1.8323,-1.8323,-1.843,-1.8357,-1.8002,-1.8348,-1.8362,-1.7995,-1.8517,-1.8758,-1.8758,-2.0963,-2.1762,-2.1309,-2.1834,-2.1953,-2.1695,-1.991,-1.9336,-1.9745,-1.9984,-2.0094,-2.0364,-2.187,-2.2077,-2.1557,-2.1133,-2.0831,-2.0376,-2.4636,-2.4402,-2.4175,-2.4082,-2.3654,-2.3293,-2.3193,-2.2999,-2.2928,-2.2928,-2.2686,-2.2445,-2.2151,-2.1864,-2.157,-2.1276,-2.1162,-2.1109,-2.1109,-2.1109,-2.0982,-2.0688,-2.0762,-2.0675,-2.0374,-2.0461,-2.0321,-1.994,-1.994,-1.9887,-1.9806,-1.9893,-2.0784,-2.2425,-2.3536,-2.5331,-2.7683,-2.8179,-2.9344,-3.0733,-2.8664,-2.8073,-2.8156,-2.4746,-2.3213,-2.2548,-2.0758,-1.9815,-1.9424,-1.9424,-1.9424,-1.939,-1.9125,-1.9537,-1.9982,-1.9533,-1.97,-1.9934,-1.9226,-1.8851,-1.8746,-1.9291,-1.9514,-1.9576,-1.9576,-1.993,-1.9878,-1.8506,-1.8448,-1.8446,-1.7816,-1.7969,-1.8163,-1.8163,-1.7829,-1.7688,-1.7842,-1.7695,-1.7702,-1.7842,-1.8136,-1.8364,-1.8477,-1.8577,-1.8631,-1.8631,-1.8631,-1.8671,-1.8764,-1.8591,-1.8437,-1.8268,-1.8655,-1.8675,-1.8268,-1.8818,-1.9065,-1.9065,-2.0815,-2.1586,-2.162,-2.1392,-2.1626,-2.2099,-2.0026,-1.9443,-1.995,-1.9546,-1.9424,-1.9482,-2.0537,-2.0671,-2.0278,-2.0446,-2.0325,-2.0009,-2.4636,-2.4396,-2.4108,-2.3814,-2.3521,-2.322,-2.2906,-2.2928,-2.2928,-2.2928,-2.2928,-2.2746,-2.2452,-2.2158,-2.1871,-2.1641,-2.1283,-2.1109,-2.1109,-2.1109,-2.0982,-2.0688,-2.0955,-2.0975,-2.0688,-2.0962,-2.0822,-2.0173,-2.0173,-2.0087,-1.9813,-2.01,-2.0394,-2.0874,-2.4438,-2.5976,-2.6098,-2.7683,-2.9344,-3.0665,-2.8597,-2.8721,-2.9917,-2.7529,-2.5743,-2.4203,-2.2268,-2.0644,-1.9424,-1.9424,-1.9424,-1.9424,-1.9424,-2.0422,-2.1309,-1.9809,-2.0422,-2.1252,-1.9815,-1.9152,-1.8784,-1.8142,-1.8805,-1.9635,-1.9635,-2.0692,-2.1296,-1.9937,-1.9897,-1.9665,-1.8259,-1.8297,-1.8497,-1.8497,-1.8497,-1.8497,-1.8497,-1.849,-1.849,-1.8497,-1.8744,-1.8811,-1.8524,-1.8758,-1.8925,-1.8925,-1.8925,-1.9058,-1.9352,-1.8818,-1.8631,-1.8911,-1.8925,-1.8925,-1.8925,-1.9219,-1.9424,-1.9424,-2.0866,-2.1586,-2.162,-2.232,-2.2077,-2.107,-2.0694,-1.9888,-1.8945,-1.9245,-1.9424,-1.9424,-1.9424,-1.9185,-1.8925,-1.8925,-1.8744,-1.8537,-2.4335,-2.4102,-2.3808,-2.3514,-2.3207,-2.2966,-2.2879,-2.2928,-2.2928,-2.2928,-2.2679,-2.2519,-2.2432,-2.2158,-2.1871,-2.1641,-2.1534,-2.1329,-2.1122,-2.1109,-2.1069,-2.0982,-2.1062,-2.1069,-2.0982,-2.1069,-2.0922,-2.0541,-2.0541,-2.0501,-2.0414,-2.0501,-2.1307,-2.2759,-2.3823,-2.4955,-2.6037,-2.653,-2.6927,-2.7084,-2.6157,-2.5964,-2.5957,-2.3934,-2.2859,-2.2226,-2.0622,-1.9758,-1.9424,-1.9424,-1.9424,-1.9424,-1.9424,-2.0422,-2.1309,-1.9809,-2.0422,-2.1252,-1.9815,-1.9152,-1.9097,-1.9827,-1.9967,-2.0181,-2.1122,-2.1534,-2.1674,-2.1525,-2.0916,-2.0323,-2.0223,-1.9611,-1.9105,-1.9105,-1.8931,-1.8791,-1.8791,-1.8617,-1.8564,-1.8771,-1.8871,-1.8971,-1.9092,-1.9185,-1.9232,-1.9232,-1.9232,-1.9272,-1.9366,-1.9256,-1.9052,-1.8925,-1.9125,-1.9132,-1.8925,-1.9219,-1.9424,-1.9424,-1.9873,-2.0033,-2.0076,-2.0061,-2.0359,-2.0918,-1.9857,-1.971,-2.0251,-1.9628,-1.9424,-1.9424,-1.9424,-1.9312,-1.9232,-1.9232,-1.9178,-1.9118,-2.4202,-2.3875,-2.3541,-2.336,-2.3073,-2.2928,-2.2928,-2.2928,-2.2928,-2.2928,-2.2706,-2.2592,-2.2592,-2.2231,-2.1911,-2.1737,-2.151,-2.1303,-2.1122,-2.1109,-2.1109,-2.1109,-2.1109,-2.1109,-2.1109,-2.1109,-2.0969,-2.0675,-2.0675,-2.0675,-2.0675,-2.0675,-2.1376,-2.2647,-2.3325,-2.4116,-2.5077,-2.5077,-2.5315,-2.5673,-2.447,-2.4256,-2.4523,-2.3053,-2.2089,-2.1472,-2.0587,-1.9942,-1.9519,-1.9464,-1.9424,-1.9482,-2.009,-2.1259,-2.2315,-2.1373,-2.1764,-2.2145,-2.0644,-1.9679,-1.9263,-2.0083,-2.0219,-2.0332,-2.1123,-2.1923,-2.2468,-2.2345,-2.1754,-2.1286,-2.1309,-2.0237,-1.9406,-1.9519,-1.9292,-1.9098,-1.9098,-1.8951,-1.8905,-1.9078,-1.9098,-1.9172,-1.941,-1.9424,-1.9424,-1.9424,-1.9424,-1.9424,-1.9424,-1.9424,-1.9285,-1.9105,-1.9272,-1.9279,-1.9098,-1.9279,-1.9424,-1.9424,-1.9424,-1.9424,-1.9417,-1.9058,-1.9419,-2.0238,-1.9299,-1.9426,-2.026,-1.9625,-1.9424,-1.9424,-1.9424,-1.9424,-1.9424,-1.9424,-1.9424,-1.9424,-2.4128,-2.3694,-2.332,-2.3293,-2.3053,-2.2928,-2.2928,-2.2928,-2.2928,-2.2928,-2.2839,-2.2901,-2.2928,-2.2338,-2.1984,-2.1984,-2.145,-2.1109,-2.1109,-2.1109,-2.1109,-2.1109,-2.1109,-2.1109,-2.1109,-2.1109,-2.0982,-2.0715,-2.0715,-2.0715,-2.0715,-2.0715,-2.0855,-2.1172,-2.2716,-2.3387,-2.3387,-2.3387,-2.4217,-2.5323,-2.3194,-2.315,-2.4373,-2.3691,-2.2597,-2.1422,-2.1422,-2.0735,-1.976,-1.9668,-1.9631,-1.9907,-2.1316,-2.2814,-2.3989,-2.3822,-2.3822,-2.3487,-2.1975,-2.0537,-1.9424,-1.9424,-1.9717,-2.0005,-2.0157,-2.1971,-2.3397,-2.2704,-2.2567,-2.2419,-2.1918,-2.0479,-1.9452,-1.972,-1.9539,-1.9424,-1.9424,-1.9424,-1.9424,-1.9424,-1.9424,-1.9424,-1.9424,-1.9424,-1.9424,-1.9424,-1.9424,-1.9424,-1.9424,-1.9424,-1.9437,-1.9406,-1.9379,-1.9437,-1.9464,-1.9379,-1.9424,-1.9424,-1.9424,-1.9424,-1.9417,-1.9085,-1.9112,-1.9352,-1.9085,-1.9118,-1.9424,-1.9424,-1.9424,-1.9424,-1.954,-1.9591,-1.9591,-1.9758,-1.9707,-1.9591,-2.3521,-2.3414,-2.3247,-2.3006,-2.2906,-2.2928,-2.2928,-2.2928,-2.2928,-2.2928,-2.2659,-2.2605,-2.2839,-2.2338,-2.1984,-2.1984,-2.145,-2.1109,-2.1109,-2.1109,-2.1109,-2.1109,-2.1109,-2.1109,-2.1109,-2.1109,-2.1076,-2.1015,-2.1015,-2.1015,-2.1015,-2.1015,-2.1049,-2.1109,-2.1481,-2.1664,-2.1664,-2.1664,-2.1707,-2.176,-2.1031,-2.0794,-2.0892,-2.0519,-2.0148,-1.9866,-1.9866,-1.9832,-1.9964,-2.1081,-2.146,-2.164,-2.2901,-2.4378,-2.5371,-2.4156,-2.3822,-2.3487,-2.1975,-2.0537,-1.9424,-1.9424,-1.9266,-1.9438,-2.0505,-2.1856,-2.325,-2.4465,-2.3812,-2.3092,-2.3294,-2.1152,-1.945,-1.9511,-1.9464,-1.9424,-1.9424,-1.9424,-1.9424,-1.9424,-1.9424,-1.9424,-1.9424,-1.9424,-1.9424,-1.9424,-1.9424,-1.9424,-1.9424,-1.9424,-1.9472,-1.97,-1.9486,-1.9472,-1.97,-1.9479,-1.9424,-1.9424,-1.9424,-1.9424,-1.9424,-1.9299,-1.9305,-1.9424,-1.9299,-1.9305,-1.9424,-1.9424,-1.9424,-1.9533,-2.0644,-2.1145,-2.1252,-2.2435,-2.2096,-2.1145,-2.3514,-2.3307,-2.3053,-2.2893,-2.2928,-2.2928,-2.2928,-2.2928,-2.2928,-2.2928,-2.2605,-2.2478,-2.2632,-2.2131,-2.1724,-2.1577,-2.1289,-2.1109,-2.1109,-2.1109,-2.1109,-2.1109,-2.1109,-2.1109,-2.1109,-2.1109,-2.1109,-2.1109,-2.1109,-2.1109,-2.1109,-2.1109,-2.1109,-2.1109,-2.1109,-2.1109,-2.1109,-2.1109,-2.1022,-2.0848,-2.0408,-2.014,-1.996,-1.9533,-1.9424,-1.9424,-1.9424,-1.9553,-2.005,-2.1693,-2.2148,-2.2351,-2.4264,-2.5434,-2.61,-2.6,-2.4939,-2.3654,-2.287,-2.1038,-1.9424,-1.9424,-1.9252,-1.9263,-1.9822,-2.0846,-2.1989,-2.3148,-2.2739,-2.2292,-2.2851,-2.0974,-1.9412,-1.9553,-1.9573,-1.9573,-1.9573,-1.9693,-1.9726,-1.9593,-1.9573,-1.9519,-1.9379,-2.0033,-2.0148,-1.9424,-1.9424,-1.9491,-1.9566,-1.9573,-1.9706,-2.0,-1.9726,-1.9713,-2.0,-1.972,-1.9646,-1.978,-1.9499,-1.9424,-1.9424,-1.9424,-1.9424,-1.9424,-1.9424,-1.9424,-1.9424,-1.9424,-1.9809,-2.0537,-2.1309,-2.2032,-2.2758,-2.3543,-2.3319,-2.2533,-2.3567,-2.3207,-2.2928,-2.2928,-2.2928,-2.2928,-2.2928,-2.2928,-2.2928,-2.2928,-2.2559,-2.2385,-2.2485,-2.1977,-2.149,-2.1136,-2.1109,-2.1109,-2.1109,-2.1109,-2.1109,-2.1109,-2.1109,-2.1109,-2.1109,-2.1109,-2.1109,-2.1109,-2.1109,-2.1109,-2.1109,-2.1109,-2.1109,-2.1109,-2.1109,-2.1109,-2.1109,-2.1109,-2.1109,-2.1056,-2.0468,-2.02,-2.0241,-1.9613,-1.9457,-1.9446,-1.9446,-1.9659,-2.0213,-2.194,-2.2459,-2.2883,-2.5346,-2.6264,-2.6662,-2.7618,-2.5945,-2.371,-2.3487,-2.143,-1.9424,-1.9424,-1.9424,-1.9319,-1.9118,-1.9913,-2.088,-2.1268,-2.1425,-2.159,-2.1967,-2.0793,-1.9781,-1.9745,-1.9766,-1.98,-1.98,-2.0047,-2.014,-1.99,-2.0057,-2.0085,-1.9785,-2.1095,-2.1479,-2.0263,-1.9972,-1.9942,-2.0187,-1.9959,-2.0007,-2.0301,-2.0027,-2.0013,-2.0307,-2.002,-1.9993,-2.0167,-1.9746,-1.9512,-1.9512,-1.9466,-1.9466,-1.9512,-1.9512,-1.9486,-1.9497,-1.9723,-2.0529,-2.1643,-2.2145,-2.3095,-2.4156,-2.3877,-2.3654,-2.3263,-2.2979,-2.2988,-2.2928,-2.2928,-2.2928,-2.2928,-2.2928,-2.2928,-2.2928,-2.2928,-2.2385,-2.2238,-2.2746,-2.2278,-2.1704,-2.1156,-2.1109,-2.1109,-2.1109,-2.1109,-2.1109,-2.1109,-2.1109,-2.1109,-2.1109,-2.1109,-2.1109,-2.1109,-2.1109,-2.1109,-2.1109,-2.1109,-2.1109,-2.1109,-2.1109,-2.1109,-2.1109,-2.1109,-2.1109,-2.1056,-2.0468,-2.0388,-2.0528,-1.9686,-1.9519,-1.974,-1.974,-2.0094,-2.0767,-2.2086,-2.3312,-2.454,-2.571,-2.6997,-2.778,-2.6717,-2.5151,-2.3543,-2.2258,-2.0702,-1.9424,-1.9424,-1.9424,-1.9419,-1.9633,-2.0776,-2.182,-2.1864,-2.2907,-2.3454,-2.2223,-2.163,-2.0881,-1.9645,-1.9639,-1.98,-1.98,-2.0047,-2.0221,-2.018,-2.1095,-2.1597,-2.1338,-2.2645,-2.3431,-2.3215,-2.2249,-2.1678,-2.1722,-2.0725,-2.0314,-2.0608,-2.0327,-2.0314,-2.0615,-2.0321,-2.0133,-2.0173,-2.0154,-2.0114,-2.0107,-1.9853,-1.988,-2.0114,-2.0114,-1.9973,-1.9858,-2.1095,-2.161,-2.1862,-2.448,-2.5599,-2.5654,-2.4267,-2.2983,-2.1862,-2.3086,-2.2979,-2.2919,-2.3093,-2.312,-2.312,-2.312,-2.312,-2.306,-2.2954,-2.2492,-2.2265,-2.2358,-2.1844,-2.139,-2.1129,-2.1109,-2.1109,-2.1109,-2.1109,-2.1109,-2.1109,-2.1109,-2.1109,-2.1109,-2.1109,-2.1109,-2.1109,-2.1109,-2.1109,-2.1109,-2.1109,-2.1109,-2.1109,-2.1109,-2.1109,-2.1109,-2.1109,-2.1109,-2.1069,-2.0655,-2.0561,-2.0601,-1.988,-1.9786,-2.0067,-2.0234,-2.0454,-2.0895,-2.2265,-2.3157,-2.3885,-2.4991,-2.5648,-2.5936,-2.5315,-2.3922,-2.242,-2.1749,-2.0537,-1.9424,-1.9424,-1.9492,-1.9639,-1.9773,-2.0573,-2.1233,-2.1058,-2.1543,-2.1788,-2.0909,-2.0791,-2.0534,-1.975,-1.9993,-2.0287,-2.0287,-2.0535,-2.0661,-2.0501,-2.1401,-2.1954,-2.1805,-2.3038,-2.3822,-2.3822,-2.3529,-2.3076,-2.2297,-2.1973,-2.1511,-2.0971,-2.0635,-2.0621,-2.0915,-2.0628,-2.0561,-2.0722,-2.0561,-2.0394,-2.0227,-2.01,-2.0107,-2.0173,-2.0173,-2.016,-2.0147,-2.1459,-2.2444,-2.3205,-2.4342,-2.482,-2.4654,-2.3151,-2.2702,-2.2589]},{"header":{"parameterUnit":"m.s-1","parameterCategory":1,"la1":30.6,"la2":28.766,"lo1":-90.7593,"lo2":-88.6598,"dy":0.0162,"dx":0.0183,"nx":116,"ny":114,"refTime":"2023-04-27T00:00:00:Z","depth":0,"parameterNumber":3,"parameterNumberName":"V-component_of_WINDS"},"data":[0.0,0.0,0.0,0.0,0.0,0.0,0.0,0.0,0.0,0.0,0.0,0.0,0.0,0.0,0.0,0.0,0.0,0.0,0.0,0.0,0.0,0.0,0.0,0.0,0.0,0.0,0.0,0.0,0.0,0.0,0.0,0.0,0.0,0.0,0.0,0.0,0.0,0.0,0.0,0.0,0.0,0.0,0.0,0.0,0.0,0.0,0.0,0.0,0.0,0.0,0.0,0.0,0.0,0.0,0.0,0.0,0.0,0.0,0.0,0.0,0.0,0.0,0.0,0.0,0.0,0.0,0.0,0.0,0.0,0.0,0.0,0.0,0.0,0.0,0.0,0.0,0.0,0.0,0.0,0.0,0.0,0.0,0.0,0.0,0.0,0.0,0.0,0.0,0.0,0.0,0.0,0.0,0.0,0.0,0.0,0.0,0.0,0.0,0.0,0.0,0.0,0.0,0.0,0.0,0.0,0.0,0.0,0.0,0.0,0.0,0.0,0.0,0.0,0.0,0.0,0.0,0.0,0.0,0.0,0.0,0.0,0.0,0.0,0.0,0.0,0.0,0.0,0.0,0.0,0.0,0.0,0.0,0.0,0.0,0.0,0.0,0.0,0.0,0.0,0.0,0.0,0.0,0.0,0.0,0.0,0.0,0.0,0.0,0.0,0.0,0.0,0.0,0.0,0.0,0.0,0.0,0.0,0.0,0.0,0.0,0.0,0.0,0.0,0.0,0.0,0.0,0.0,0.0,0.0,0.0,0.0,0.0,0.0,0.0,0.0,0.0,0.0,0.0,0.0,0.0,0.0,0.0,0.0,0.0,0.0,0.0,0.0,0.0,0.0,0.0,0.0,0.0,0.0,0.0,0.0,0.0,0.0,0.0,0.0,0.0,0.0,0.0,0.0,0.0,0.0,0.0,0.0,0.0,0.0,0.0,0.0,0.0,0.0,0.0,0.0,0.0,0.0,0.0,0.0,0.0,0.0,0.0,0.0,0.0,0.0,0.0,0.0,0.0,0.0,0.0,0.0,0.0,0.0,0.0,0.0,0.0,0.0,0.0,0.0,0.0,0.0,0.0,0.0,0.0,0.0,0.0,0.0,0.0,0.0,0.0,0.0,0.0,0.0,0.0,0.0,0.0,0.0,0.0,0.0,0.0,0.0,0.0,0.0,0.0,0.0,0.0,0.0,0.0,0.0,0.0,0.0,0.0,0.0,0.0,0.0,0.0,0.0,0.0,0.0,0.0,0.0,0.0,0.0,0.0,0.0,0.0,0.0,0.0,0.0,0.0,0.0,0.0,0.0,0.0,0.0,0.0,0.0,0.0,0.0,0.0,0.0,0.0,0.0,0.0,0.0,0.0,0.0,0.0,0.0,0.0,0.0,0.0,0.0,0.0,0.0,0.0,0.0,0.0,0.0,0.0,0.0,0.0,0.0,0.0,0.0,0.0,0.0,0.0,0.0,0.0,0.0,0.0,0.0,0.0,0.0,0.0,0.0,0.0,0.0,0.0,0.0,0.0,0.0,0.0,0.0,0.0,0.0,0.0,0.0,0.0,0.0,0.0,0.0,0.0,0.0,0.0,0.0,0.0,0.0,0.0,0.0,0.0,0.0,0.0,0.0,0.0,0.0,0.0,0.0,0.0,0.0,0.0,0.0,0.0,0.0,0.0,0.0,0.0,0.0,0.0,0.0,0.0,0.0,0.0,0.0,0.0,0.0,0.0,0.0,0.0,0.0,0.0,0.0,0.0,0.0,0.0,0.0,0.0,0.0,0.0,0.0,0.0,0.0,0.0,0.0,0.0,0.0,0.0,0.0,0.0,0.0,0.0,0.0,0.0,0.0,0.0,0.0,0.0,0.0,0.0,0.0,0.0,0.0,0.0,0.0,0.0,0.0,0.0,0.0,0.0,0.0,0.0,0.0,0.0,0.0,0.0,0.0,0.0,0.0,0.0,0.0,0.0,0.0,0.0,0.0,0.0,0.0,0.0,0.0,0.0,0.0,0.0,0.0,0.0,0.0,0.0,0.0,0.0,0.0,0.0,0.0,0.0,0.0,0.0,0.0,0.0,0.0,0.0,0.0,0.0,0.0,0.0,0.0,0.0,0.0,0.0,0.0,0.0,0.0,0.0,0.0,0.0,0.0,0.0,0.0,0.0,0.0,0.0,0.0,0.0,0.0,0.0,0.0,0.0,0.0,0.0,0.0,0.0,0.0,0.0,0.0,0.0,0.0,0.0,0.0,0.0,0.0,0.0,0.0,0.0,0.0,0.0,0.0,0.0,0.0,0.0,0.0,0.0,0.0,0.0,0.0,0.0,0.0,0.0,0.0,0.0,0.0,0.0,0.0,0.0,0.0,0.0,0.0,0.0,0.0,0.0,0.0,0.0,0.0,0.0,0.0,0.0,0.0,0.0,0.0,0.0,0.0,0.0,0.0,0.0,0.0,0.0,0.0,0.0,0.0,0.0,0.0,0.0,0.0,0.0,0.0,0.0,0.0,0.0,0.0,0.0,0.0,0.0,0.0,0.0,0.0,0.0,0.0,0.0,0.0,0.0,0.0,0.0,0.0,0.0,0.0,0.0,0.0,0.0,0.0,0.0,0.0,0.0,0.0,0.0,0.0,0.0,0.0,0.0,0.0,0.0,0.0,0.0,0.0,0.0,0.0,0.0,0.0,0.0,0.0,0.0,0.0,0.0,0.0,0.0,0.0,0.0,0.0,0.0,0.0,0.0,0.0,0.0,0.0,0.0,0.0,0.0,0.0,0.0,0.0,0.0,0.0,0.0,0.0,0.0,0.0,0.0,0.0,0.0,0.0,0.0,0.0,0.0,0.0,0.0,0.0,0.0,0.0,0.0,0.0,0.0,0.0,0.0,0.0,0.0,0.0,0.0,0.0,0.0,0.0,0.0,0.0,0.0,0.0,0.0,0.0,0.0,0.0,0.0,0.0,0.0,0.0,0.0,0.0,0.0,0.0,0.0,0.0,0.0,0.0,0.0,0.0,0.0,0.0,0.0,0.0,0.0,0.0,0.0,0.0,0.0,0.0,0.0,0.0,0.0,0.0,0.0,0.0,0.0,0.0,0.0,0.0,0.0,0.0,0.0,0.0,0.0,0.0,0.0,0.0,0.0,0.0,0.0,0.0,0.0,0.0,0.0,0.0,0.0,0.0,0.0,0.0,0.0,0.0,0.0,0.0,0.0,0.0,0.0,0.0,0.0,0.0,0.0,0.0,0.0,0.0,0.0,0.0,0.0,0.0,0.0,0.0,0.0,0.0,0.0,0.0,0.0,0.0,0.0,0.0,0.0,0.0,0.0,0.0,0.0,0.0,0.0,0.0,0.0,0.0,0.0,0.0,0.0,0.0,0.0,0.0,0.0,0.0,0.0,0.0,0.0,0.0,0.0,0.0,0.0,0.0,0.0,0.0,0.0,0.0,0.0,0.0,0.0,0.0,0.0,0.0,0.0,0.0,0.0,0.0,0.0,0.0,0.0,0.0,0.0,0.0,0.0,0.0,0.0,0.0,0.0,0.0,0.0,0.0,0.0,0.0,0.0,0.0,0.0,0.0,0.0,0.0,0.0,0.0,0.0,0.0,0.0,0.0,0.0,0.0,0.0,0.0,0.0,0.0,0.0,0.0,0.0,0.0,0.0,0.0,0.0,0.0,0.0,0.0,0.0,0.0,0.0,0.0,0.0,0.0,0.0,0.0,0.0,0.0,0.0,0.0,0.0,0.0,0.0,0.0,0.0,0.0,0.0,0.0,0.0,0.0,0.0,0.0,0.0,0.0,0.0,0.0,0.0,0.0,0.0,0.0,0.0,0.0,0.0,0.0,0.0,0.0,0.0,0.0,0.0,0.0,0.0,0.0,0.0,0.0,0.0,0.0,0.0,0.0,0.0,0.0,0.0,0.0,0.0,0.0,0.0,0.0,0.0,0.0,0.0,0.0,0.0,0.0,0.0,0.0,0.0,0.0,0.0,0.0,0.0,0.0,0.0,0.0,0.0,0.0,0.0,0.0,0.0,0.0,0.0,0.0,0.0,0.0,0.0,0.0,0.0,0.0,0.0,0.0,0.0,0.0,0.0,0.0,0.0,0.0,0.0,0.0,0.0,0.0,0.0,0.0,0.0,0.0,0.0,0.0,0.0,0.0,0.0,0.0,0.0,0.0,0.0,0.0,0.0,0.0,0.0,0.0,0.0,0.0,0.0,0.0,0.0,0.0,0.0,0.0,0.0,0.0,0.0,0.0,0.0,0.0,0.0,0.0,0.0,0.0,0.0,0.0,0.0,0.0,0.0,0.0,0.0,0.0,0.0,0.0,0.0,0.0,0.0,0.0,0.0,0.0,0.0,0.0,0.0,0.0,0.0,0.0,0.0,0.0,0.0,0.0,0.0,0.0,0.0,0.0,0.0,0.0,0.0,0.0,0.0,0.0,0.0,0.0,0.0,0.0,0.0,0.0,0.0,0.0,0.0,0.0,0.0,0.0,0.0,0.0,0.0,0.0,0.0,0.0,0.0,0.0,0.0,0.0,0.0,0.0,0.0,0.0,0.0,0.0,0.0,0.0,0.0,0.0,0.0,0.0,0.0,0.0,0.0,0.0,0.0,0.0,0.0,0.0,0.0,0.0,0.0,0.0,0.0,0.0,0.0,0.0,0.0,0.0,0.0,0.0,0.0,0.0,0.0,0.0,0.0,0.0,0.0,0.0,0.0,0.0,0.0,0.0,0.0,0.0,0.0,0.0,0.0,0.0,0.0,0.0,0.0,0.0,0.0,0.0,0.0,0.0,0.0,0.0,0.0,0.0,0.0,0.0,0.0,0.0,0.0,0.0,0.0,0.0,0.0,0.0,0.0,0.0,0.0,0.0,0.0,0.0,0.0,0.0,0.0,0.0,0.0,0.0,0.0,0.0,0.0,0.0,0.0,0.0,0.0,0.0,0.0,0.0,0.0,0.0,0.0,0.0,0.0,0.0,0.0,0.0,0.0,0.0,0.0,0.0,0.0,0.0,0.0,0.0,0.0,0.0,0.0,0.0,0.0,0.0,0.0,0.0,0.0,0.0,0.0,0.0,0.0,0.0,0.0,0.0,0.0,0.0,0.0,0.0,0.0,0.0,0.0,0.0,0.0,0.0,0.0,0.0,0.0,0.0,0.0,0.0,0.0,0.0,0.0,0.0,0.0,0.0,0.0,0.0,0.0,0.0,0.0,0.0,0.0,0.0,0.0,0.0,0.0,0.0,0.0,0.0,0.0,0.0,0.0,0.0,0.0,0.0,0.0,0.0,0.0,0.0,0.0,0.0,0.0,0.0,0.0,0.0,0.0,0.0,0.0,0.0,0.0,0.0,0.0,0.0,0.0,0.0,0.0,0.0,0.0,0.0,0.0,0.0,0.0,0.0,0.0,0.0,0.0,0.0,0.0,0.0,0.0,0.0,0.0,0.0,0.0,0.0,0.0,0.0,0.0,0.0,0.0,0.0,0.0,0.0,0.0,0.0,0.0,0.0,0.0,0.0,0.0,0.0,0.0,0.0,0.0,0.0,0.0,0.0,0.0,0.0,0.0,0.0,0.0,0.0,0.0,0.0,0.0,0.0,0.0,0.0,0.0,0.0,0.0,0.0,0.0,0.0,0.0,0.0,0.0,0.0,0.0,0.0,0.0,0.0,0.0,0.0,0.0,0.0,0.0,0.0,0.0,0.0,0.0,0.0,0.0,0.0,0.0,0.0,0.0,0.0,0.0,0.0,0.0,0.0,0.0,0.0,0.0,0.0,0.0,0.0,0.0,0.0,0.0,0.0,0.0,0.0,0.0,0.0,0.0,0.0,0.0,0.0,0.0,0.0,0.0,0.0,0.0,0.0,0.0,0.0,0.0,0.0,0.0,0.0,0.0,0.0,0.0,0.0,0.0,0.0,0.0,0.0,0.0,0.0,0.0,0.0,0.0,0.0,0.0,0.0,0.0,0.0,0.0,0.0,0.0,0.0,0.0,0.0,0.0,0.0,0.0,0.0,0.0,0.0,0.0,0.0,0.0,0.0,0.0,0.0,0.0,0.0,0.0,0.0,0.0,0.0,0.0,0.0,0.0,0.0,0.0,0.0,0.0,0.0,0.0,2.5848,0.0,0.0,0.0,0.0,0.0,0.0,0.0,0.0,0.0,0.0,0.0,0.0,0.0,0.0,0.0,0.0,0.0,0.0,0.0,0.0,0.0,0.0,0.0,0.0,0.0,0.0,0.0,0.0,0.0,0.0,0.0,0.0,0.0,0.0,0.0,0.0,0.0,0.0,3.6795,3.7574,3.7516,3.6715,3.7889,3.7838,3.68,0.0,0.0,0.0,0.0,0.0,0.0,0.0,0.0,0.0,0.0,0.0,0.0,0.0,0.0,0.0,0.0,0.0,0.0,0.0,0.0,0.0,0.0,0.0,0.0,0.0,0.0,0.0,0.0,0.0,0.0,0.0,0.0,0.0,0.0,0.0,0.0,0.0,0.0,0.0,0.0,0.0,0.0,0.0,0.0,0.0,0.0,0.0,0.0,0.0,0.0,0.0,0.0,0.0,0.0,0.0,0.0,0.0,0.0,0.0,0.0,0.0,0.0,0.0,0.0,0.0,0.0,0.0,0.0,0.0,0.0,0.0,2.6522,0.0,0.0,0.0,0.0,0.0,0.0,0.0,0.0,0.0,0.0,0.0,0.0,0.0,0.0,0.0,0.0,0.0,0.0,0.0,0.0,0.0,0.0,0.0,3.5695,3.5723,3.5988,3.587,3.5825,0.0,0.0,0.0,0.0,0.0,0.0,3.5616,3.7127,3.7466,3.6586,3.6745,3.7229,3.8108,3.8853,3.8193,3.6411,3.7313,0.0,0.0,0.0,0.0,0.0,0.0,0.0,0.0,0.0,0.0,0.0,0.0,0.0,0.0,0.0,0.0,0.0,0.0,0.0,0.0,0.0,0.0,0.0,0.0,0.0,0.0,0.0,0.0,0.0,0.0,0.0,0.0,0.0,0.0,0.0,0.0,0.0,0.0,0.0,0.0,0.0,0.0,0.0,0.0,0.0,0.0,0.0,0.0,0.0,0.0,0.0,0.0,0.0,0.0,0.0,0.0,0.0,0.0,0.0,0.0,0.0,0.0,0.0,3.2198,3.2793,3.4624,3.364,3.279,3.196,2.9609,2.7204,2.5112,0.0,0.0,0.0,0.0,0.0,0.0,0.0,0.0,0.0,0.0,0.0,0.0,0.0,0.0,0.0,0.0,0.0,0.0,0.0,0.0,0.0,0.0,3.6083,3.6196,3.7503,3.7009,3.6643,3.6643,0.0,0.0,0.0,0.0,0.0,3.56,3.7127,3.7212,3.5752,3.6451,3.7523,3.887,3.9614,3.98,3.9436,3.7709,3.7326,3.7929,0.0,0.0,0.0,0.0,0.0,0.0,0.0,0.0,0.0,0.0,0.0,0.0,0.0,0.0,0.0,0.0,0.0,0.0,0.0,0.0,0.0,0.0,0.0,0.0,0.0,0.0,0.0,0.0,0.0,0.0,0.0,0.0,0.0,0.0,0.0,0.0,0.0,0.0,0.0,0.0,0.0,2.7794,2.6851,0.0,0.0,0.0,0.0,0.0,0.0,0.0,0.0,0.0,0.0,0.0,0.0,0.0,3.3051,3.3245,3.2976,3.2496,3.1768,3.2691,3.2381,3.1016,3.1943,3.1971,3.1278,3.1577,0.0,2.9154,2.7519,0.0,0.0,0.0,0.0,0.0,0.0,0.0,0.0,0.0,0.0,0.0,0.0,0.0,0.0,0.0,0.0,0.0,0.0,0.0,0.0,0.0,3.6875,3.7189,3.7848,3.8362,3.8125,3.688,3.7246,0.0,0.0,0.0,3.6265,3.6265,3.6924,3.6941,3.6265,3.8278,3.9597,4.0257,4.1424,4.1965,4.1897,4.051,3.9377,3.8461,3.745,0.0,0.0,0.0,0.0,0.0,0.0,0.0,0.0,0.0,0.0,0.0,0.0,0.0,0.0,0.0,0.0,0.0,0.0,0.0,0.0,0.0,0.0,0.0,0.0,0.0,0.0,0.0,0.0,0.0,0.0,0.0,0.0,0.0,0.0,0.0,0.0,0.0,0.0,0.0,3.0028,2.9995,2.8438,3.0804,3.2352,0.0,0.0,0.0,0.0,0.0,0.0,0.0,0.0,0.0,3.4076,3.4059,3.4038,3.4038,3.4038,3.4143,3.4322,3.4483,3.453,3.4376,3.4154,3.4113,3.4229,3.4175,3.3542,3.2413,3.1022,3.0751,3.114,0.0,0.0,0.0,0.0,3.0635,3.0345,0.0,0.0,0.0,0.0,0.0,0.0,0.0,0.0,0.0,0.0,0.0,0.0,3.7263,3.7509,3.7922,3.8676,3.9217,3.9005,3.7719,3.777,3.7263,3.5955,3.6282,3.6592,3.6795,3.6998,3.7455,3.8217,4.0409,4.1779,4.2388,4.3673,4.4356,4.4508,4.3589,4.1914,3.974,3.8442,3.7868,3.7865,0.0,0.0,0.0,0.0,0.0,0.0,0.0,0.0,0.0,0.0,0.0,0.0,0.0,0.0,0.0,0.0,0.0,0.0,0.0,0.0,0.0,0.0,0.0,0.0,0.0,0.0,0.0,0.0,0.0,0.0,0.0,0.0,0.0,0.0,0.0,0.0,0.0,3.0997,3.1353,2.9771,3.2069,3.3558,0.0,0.0,0.0,0.0,0.0,0.0,3.5145,3.5417,3.5507,3.5507,3.5639,3.5744,3.5744,3.5597,3.6016,3.6971,3.6312,3.6446,3.7273,3.6228,3.5997,3.6373,3.5998,3.5517,3.4861,3.3611,3.2668,3.2057,3.2433,3.2479,3.24,3.2938,3.2919,3.2632,0.0,0.0,0.0,0.0,0.0,0.0,0.0,0.0,0.0,0.0,0.0,3.4994,3.8516,3.7661,3.7968,4.0797,3.9191,3.8565,3.9842,3.6671,3.534,3.6694,3.6045,3.6028,3.6778,3.7483,3.9225,4.2016,4.2168,4.3352,4.55,4.6261,4.7005,4.7601,4.6177,4.4265,4.1982,3.985,3.8918,3.8899,3.8653,0.0,0.0,0.0,0.0,0.0,0.0,0.0,0.0,0.0,0.0,0.0,0.0,0.0,0.0,0.0,0.0,0.0,0.0,0.0,0.0,0.0,0.0,0.0,0.0,0.0,0.0,0.0,0.0,0.0,0.0,0.0,0.0,0.0,0.0,0.0,0.0,0.0,0.0,2.9675,3.2481,0.0,0.0,0.0,0.0,3.5377,3.5941,3.6537,3.7225,3.7853,3.8182,3.8182,3.8826,3.9134,3.9134,3.8512,3.8227,3.8287,3.7629,3.7049,3.6543,3.6484,3.6127,3.5606,3.6245,3.6522,3.6272,3.344,3.3045,3.418,3.3575,3.4191,3.5374,3.5423,3.4535,3.3254,0.0,0.0,0.0,0.0,0.0,0.0,0.0,0.0,3.4303,3.4827,3.6148,3.7715,3.9521,4.0507,4.1473,4.253,4.2371,4.161,4.018,3.8396,3.7432,3.7499,3.6276,3.6191,3.7483,3.9631,4.1238,4.2286,4.4231,4.5855,4.7111,4.7868,4.8359,4.8612,4.8545,4.7547,4.5669,4.1982,4.0138,3.9563,3.804,3.8133,0.0,0.0,0.0,0.0,0.0,0.0,0.0,0.0,0.0,0.0,0.0,0.0,0.0,0.0,0.0,0.0,0.0,0.0,0.0,0.0,0.0,0.0,0.0,0.0,0.0,0.0,0.0,0.0,0.0,0.0,0.0,0.0,0.0,0.0,0.0,0.0,0.0,3.3949,3.5808,0.0,3.6016,3.6047,3.667,3.7913,3.7434,3.7928,3.9858,3.9783,3.9873,4.0307,4.0546,4.0472,4.0053,3.9813,3.9469,3.905,3.8362,3.7928,3.7689,3.6851,3.6357,3.6136,3.5963,3.5894,3.5804,3.4744,3.4659,3.5095,3.4358,3.4057,3.4188,3.4662,3.4808,3.4854,0.0,0.0,0.0,0.0,0.0,0.0,0.0,0.0,3.4675,3.5221,3.7032,3.8819,4.0324,4.1989,4.325,4.3775,4.3589,4.2709,4.0967,3.8971,3.7872,3.7905,3.7178,3.7466,3.8988,4.1677,4.3301,4.3809,4.6058,4.7547,4.8261,4.8781,4.9137,4.939,4.9864,4.9695,4.8785,4.5568,4.3064,4.1026,3.9073,3.9445,4.09,0.0,0.0,0.0,0.0,0.0,0.0,0.0,0.0,0.0,0.0,0.0,0.0,0.0,0.0,0.0,0.0,0.0,0.0,0.0,0.0,0.0,0.0,0.0,0.0,0.0,0.0,0.0,0.0,0.0,0.0,0.0,0.0,0.0,0.0,0.0,3.6043,3.7629,3.8751,3.9394,3.9394,3.8861,3.9095,4.0584,4.0113,4.0606,4.2596,4.2073,4.1923,4.2357,4.2162,4.1833,4.1399,4.095,4.0502,4.0068,3.917,3.8616,3.8362,3.7509,3.6896,3.6462,3.6028,3.5714,3.5504,3.5504,3.5536,3.5544,3.5257,3.4841,3.451,3.5272,3.5739,3.6026,0.0,0.0,0.0,0.0,0.0,0.0,0.0,3.4523,3.5086,3.6575,3.6846,3.8007,4.0916,4.1931,4.3024,4.4513,4.2523,4.1491,4.2185,3.8058,3.6259,3.7838,3.865,3.9766,4.1271,4.3504,4.5393,4.6819,4.7581,4.8308,4.9001,4.9018,4.9424,5.0084,5.0135,5.0557,5.1134,5.0456,4.7648,4.3494,4.1948,4.2134,4.3149,0.0,0.0,0.0,0.0,0.0,0.0,0.0,0.0,0.0,0.0,0.0,0.0,0.0,0.0,0.0,0.0,0.0,0.0,0.0,0.0,0.0,0.0,0.0,0.0,0.0,0.0,0.0,0.0,0.0,0.0,0.0,0.0,0.0,3.5415,3.6701,3.8242,4.0247,4.1085,4.1542,4.1542,4.2111,4.2731,4.3334,4.4003,4.4631,4.5289,4.4691,4.4317,4.4317,4.3633,4.3275,4.323,4.2013,4.1392,4.1309,4.0023,3.9065,3.8422,3.8407,3.7719,3.6552,3.6507,3.6133,3.5534,3.5519,3.5504,3.5619,3.6306,3.6584,3.6661,3.7456,3.7317,3.6726,0.0,0.0,0.0,0.0,0.0,0.0,3.5081,3.5295,3.5453,3.5876,3.7814,3.9918,4.1779,4.3656,4.4942,4.5365,4.2828,4.1068,4.0747,3.7009,3.5723,3.7821,3.9631,4.1559,4.3633,4.5314,4.665,4.7614,4.8342,4.8798,4.9018,4.9543,4.9898,5.0135,5.1217,5.1522,5.1202,5.1555,5.0676,4.8734,4.5111,4.3234,4.2422,0.0,0.0,0.0,0.0,0.0,0.0,0.0,0.0,0.0,0.0,0.0,0.0,0.0,0.0,0.0,0.0,0.0,0.0,0.0,0.0,0.0,0.0,0.0,0.0,0.0,0.0,0.0,0.0,0.0,0.0,0.0,3.5738,3.6626,3.7479,3.8736,4.0307,4.2258,4.3524,4.4212,4.4212,4.4377,4.4766,4.5412,4.52,4.5319,4.6007,4.4945,4.4317,4.4317,4.3633,4.288,4.1923,4.1564,4.0905,3.9963,3.9589,3.932,3.9125,3.8616,3.8197,3.7823,3.6896,3.6387,3.6178,3.5699,3.5814,3.6244,3.5911,3.5814,3.5894,3.6661,3.7182,3.7507,0.0,0.0,0.0,0.0,0.0,0.0,0.0,3.5148,3.5245,3.5549,3.822,4.0443,4.1271,4.3673,4.484,4.391,4.2489,4.095,3.9285,3.7432,3.711,3.8751,4.095,4.3047,4.501,4.6515,4.7631,4.8376,4.9103,4.9458,4.9475,5.0219,5.0557,5.0608,5.1775,5.2063,5.1725,5.2486,5.2367,5.1454,4.8849,4.709,4.5737,4.3024,4.2567,4.3183,4.1813,4.2236,4.3088,4.1052,0.0,0.0,0.0,0.0,0.0,0.0,0.0,0.0,0.0,0.0,0.0,0.0,0.0,0.0,0.0,0.0,0.0,0.0,0.0,0.0,0.0,0.0,0.0,0.0,3.8219,3.9589,4.107,4.1489,4.2372,4.4306,4.5259,4.5843,4.6112,4.6142,4.6307,4.6711,4.6367,4.6322,4.6711,4.5454,4.4855,4.514,4.3932,4.3065,4.2611,4.2111,4.1265,4.0232,3.9963,3.9694,3.9373,3.9005,3.8512,0.0,3.7195,3.6567,3.6076,3.5997,3.6228,0.0,0.0,0.0,0.0,0.0,3.7236,3.7484,0.0,0.0,0.0,0.0,0.0,0.0,0.0,3.4489,3.4726,3.538,3.8017,3.9834,3.974,4.2279,4.321,4.1255,4.1441,4.0595,3.8075,3.8667,3.9537,4.0434,4.2523,4.4384,4.5923,4.7297,4.8359,4.9001,4.9729,5.0084,5.0101,5.0947,5.1303,5.1369,5.2114,5.2435,5.2486,5.3196,5.3095,5.2435,5.2334,5.1775,5.0541,4.6583,4.621,4.7513,4.5348,4.435,4.3876,4.2794,0.0,0.0,0.0,0.0,0.0,0.0,0.0,0.0,0.0,0.0,0.0,0.0,0.0,0.0,0.0,0.0,0.0,0.0,0.0,0.0,0.0,0.0,0.0,0.0,4.0801,4.2581,4.5065,4.4466,4.4396,4.6175,4.6384,4.6666,4.7249,4.7309,4.7309,4.7309,4.7309,4.7309,4.7309,0.0,0.0,0.0,0.0,4.3618,4.4092,4.294,4.2066,4.1407,4.0786,4.0172,3.9529,3.9622,3.8968,3.7785,3.7722,3.7047,3.6025,3.6538,3.6783,3.6843,3.6752,3.7203,3.7921,3.7921,3.7548,3.7206,0.0,0.0,0.0,0.0,0.0,0.0,0.0,3.4489,3.4539,3.4692,3.6823,3.8108,3.7506,3.9005,4.0163,4.0316,3.8826,3.7855,3.7905,3.914,4.073,4.2692,4.4367,4.5957,4.7432,4.8342,4.8866,4.9001,4.9729,5.0084,5.0118,5.1454,5.2097,5.2131,5.2909,5.3264,5.3281,5.3433,5.3416,5.3213,5.2553,5.115,4.934,4.8477,4.7682,4.6802,4.519,4.6024,4.7445,4.4265,4.4694,4.6007,4.254,4.1238,0.0,0.0,0.0,0.0,0.0,0.0,0.0,0.0,0.0,0.0,0.0,0.0,0.0,0.0,0.0,0.0,0.0,0.0,0.0,4.0688,4.2551,4.4302,4.5903,4.6367,4.6681,4.707,4.7115,4.7174,4.7294,4.7309,4.7309,4.7309,4.7309,4.7309,4.7309,4.6561,4.5933,4.5514,4.4601,4.3673,4.2785,4.253,4.2066,4.1422,0.0,0.0,4.0239,4.0919,4.0832,4.0038,3.9596,3.9281,3.898,3.7975,3.7933,3.8398,3.779,3.8019,3.869,3.869,3.8592,3.8521,0.0,0.0,0.0,0.0,0.0,0.0,0.0,3.3711,3.4083,3.4438,3.6485,3.7466,3.6315,3.755,3.799,3.684,3.6062,3.6603,3.8845,4.0375,4.2059,4.391,4.5805,4.7158,4.7872,4.8984,4.9543,4.9543,5.0659,5.12,5.1234,5.2367,5.2909,5.2926,5.3331,5.3501,5.3501,5.3501,5.3501,5.3467,5.3061,5.2249,5.1133,4.9982,4.9086,4.8308,4.7192,4.7513,4.8122,4.5872,4.5872,4.6278,4.325,4.2303,4.2016,0.0,0.0,0.0,0.0,0.0,0.0,0.0,0.0,0.0,0.0,0.0,0.0,0.0,0.0,3.9471,3.9462,0.0,4.1429,4.3075,4.4451,4.5663,4.6681,4.71,4.7309,4.7309,4.7309,4.7309,4.7309,4.7309,4.7309,4.7309,4.7309,4.7309,4.7309,4.6681,4.6322,4.6307,4.5334,4.4496,4.3878,4.3509,4.2851,4.1916,4.1916,4.1354,4.0434,4.1316,4.1136,4.0184,3.9992,3.9708,3.9338,3.8626,3.8816,3.9463,3.9076,3.9199,3.9489,3.9489,3.9489,3.9489,0.0,0.0,0.0,0.0,0.0,0.0,0.0,3.2797,3.3406,3.3981,3.5808,3.6405,3.4757,3.5909,3.5847,3.3426,3.4406,3.6437,3.9469,4.1613,4.3348,4.4709,4.7051,4.8342,4.8342,4.9492,5.0152,5.0304,5.1505,5.2164,5.2317,5.3129,5.3585,5.3721,5.3721,5.3721,5.3721,5.3721,5.3636,5.3501,5.3501,5.3416,5.3061,5.1065,5.0388,5.0371,4.9221,4.8325,4.7564,4.6667,4.587,4.4916,4.3048,4.2795,4.2795,4.0817,4.0507,0.0,0.0,0.0,0.0,0.0,0.0,0.0,0.0,3.9435,3.9814,4.1092,4.1903,4.243,4.2737,4.3404,4.4302,4.5334,4.6067,4.6696,4.7234,4.7309,4.7309,4.7309,4.7309,4.7309,4.7309,4.7309,4.7309,4.7309,4.7309,4.7309,4.7309,4.68,4.6696,4.71,4.6067,4.5364,4.511,4.4586,4.3838,4.2885,4.2885,4.2251,4.117,4.2035,4.1682,4.0399,4.0376,3.9991,3.9352,3.9194,3.9516,4.0096,4.0096,4.0096,4.0096,4.0096,4.0096,4.0096,0.0,0.0,0.0,0.0,0.0,0.0,0.0,0.0,3.2446,3.2547,3.3339,3.3131,3.1123,3.2106,3.2828,3.2613,3.5618,3.7703,3.8121,4.2044,4.4656,4.5384,4.8272,4.9847,4.9847,4.9999,5.0422,5.1099,5.1251,5.1674,5.2317,5.3129,5.3856,5.4465,5.4465,5.4465,5.4465,5.4465,5.4093,5.3501,5.3501,5.3078,5.2334,5.1437,5.1488,5.1708,4.9001,4.7564,4.6701,4.5326,4.4294,4.3509,4.3135,4.269,4.2125,4.1103,4.0023,3.9142,3.909,3.8585,3.8748,4.1432,4.0226,3.9763,0.0,4.4404,4.3148,4.4468,4.5293,4.5402,4.4287,4.514,4.5995,4.6145,4.677,4.7219,4.7294,4.7309,4.7309,4.7309,4.7309,4.7309,4.7309,4.7309,4.7309,4.7309,4.7309,4.7309,4.7309,4.7234,4.6965,4.6456,4.6249,4.5633,4.4436,4.4347,4.4406,4.4516,4.4516,4.4216,4.3727,4.4577,4.4197,4.2881,4.2267,4.1607,4.0884,4.0247,4.002,4.0096,4.0096,4.0096,4.0096,4.0096,4.0096,4.0096,0.0,0.0,0.0,0.0,0.0,0.0,0.0,0.0,0.0,3.2293,3.2933,3.2917,3.1616,3.1577,3.1854,3.2332,3.4543,3.6289,3.7155,4.1393,4.4207,4.4894,4.7838,4.9661,5.0084,5.0524,5.1116,5.1843,5.2317,5.2706,5.301,5.3348,5.367,5.3974,5.4397,5.4583,5.4583,5.4583,5.4414,5.4093,5.367,5.3027,5.2131,5.0541,4.9323,4.8308,4.7073,4.5855,0.0,4.3606,4.3014,4.2706,4.2644,4.2446,4.2113,4.1301,4.0669,4.0347,4.0836,4.0759,4.1011,4.2918,4.3162,4.3658,4.6172,4.6456,4.6591,4.7908,4.8357,4.8387,4.7819,4.7608,4.7459,4.7459,4.7369,4.7309,4.7309,4.698,4.6576,4.6187,4.6142,4.6441,4.7234,4.7309,4.7309,4.7309,4.7309,4.7309,4.7309,4.7309,4.7174,4.6905,4.689,4.6441,4.5457,4.5607,4.5585,4.5332,4.5531,4.5084,4.4143,4.5,4.4641,4.3332,4.3063,4.2286,4.1187,4.0865,4.0476,4.0096,4.0096,4.0096,4.0096,4.0096,4.0096,4.0096,0.0,0.0,0.0,0.0,0.0,0.0,0.0,0.0,0.0,0.0,3.2459,3.2594,3.2056,3.1375,3.1116,3.1475,3.3136,3.4587,3.5516,3.9904,4.2914,4.3836,4.6951,4.9035,4.9779,5.0524,5.1268,5.1995,5.2587,5.2976,5.3179,5.3399,5.3619,5.3822,5.4346,5.4583,5.4583,5.4583,5.4346,5.3923,5.3382,5.2334,5.0896,4.9086,4.6769,4.4468,4.4468,4.3352,4.1786,4.1271,4.094,4.0798,4.1193,4.1325,4.1259,4.0918,4.1015,4.1338,4.2007,4.2684,4.3509,4.467,4.6162,4.746,4.7863,4.882,4.9853,5.0616,5.0584,5.0345,5.0032,4.9045,4.8222,4.8042,4.7623,4.7309,4.7309,4.6741,4.6142,4.5633,4.5409,4.5678,4.6651,4.692,4.7115,4.7294,4.7309,4.7309,4.7309,4.7309,4.7309,4.7309,4.7309,4.7094,4.6698,4.6714,4.6656,4.6518,4.658,4.6081,4.5163,4.5364,4.4833,4.3724,4.3494,4.2692,4.1491,4.1288,4.0764,4.0096,4.0096,4.0096,4.0096,4.0096,4.0096,4.0096,0.0,0.0,0.0,0.0,0.0,0.0,0.0,0.0,0.0,0.0,0.0,0.0,0.0,3.0695,3.0102,2.955,3.19,3.3224,3.2772,3.7409,4.0822,4.2215,4.5898,4.8261,4.9018,4.9746,5.049,5.1219,5.1268,5.1657,5.235,5.3129,5.3873,5.4566,5.4583,5.4583,5.4583,5.4583,5.3737,5.2367,5.235,5.0625,4.7939,4.7158,4.4553,4.1339,4.1339,3.9935,3.8075,3.8041,3.7461,3.6996,3.8379,3.8849,3.9018,3.968,4.049,4.1281,4.1774,4.3267,4.5155,4.6949,4.8756,5.0405,5.1723,5.2546,5.286,5.2261,5.1633,5.0795,4.9584,4.8745,4.8072,4.7444,4.7309,4.7309,4.7309,4.6741,4.6264,4.6249,4.5708,4.5304,0.0,4.5963,4.6621,4.7249,4.7309,4.7309,4.7309,4.7309,4.7309,4.7309,4.7309,4.7447,4.7738,4.7042,4.7324,4.8608,4.7901,4.7633,4.7744,4.6321,4.5269,4.453,4.3741,4.298,4.2202,4.1491,4.0764,4.0096,4.0096,4.0096,4.0096,4.0096,4.0096,4.0096,0.0,0.0,0.0,0.0,0.0,0.0,0.0,0.0,0.0,0.0,0.0,0.0,0.0,0.0,0.0,0.0,3.158,3.2372,3.1645,3.6479,3.9345,3.9287,4.3429,4.6058,4.6802,4.753,4.8748,5.0473,5.0473,5.0845,5.1589,5.186,5.2114,5.2401,5.3416,5.3873,5.3873,5.3873,5.3264,5.2181,5.071,4.8934,4.6989,4.5213,4.254,3.9681,0.0,3.821,3.7077,3.6546,3.6176,3.6014,3.6481,3.6983,3.7666,3.8913,4.0407,4.1906,4.2982,4.4912,4.716,4.9554,5.1182,5.2546,5.3877,5.4012,5.3668,5.2995,5.0945,4.9015,4.8117,4.7055,4.6381,4.6621,4.7384,4.7952,4.7952,4.7773,4.698,4.52,4.517,0.0,0.0,0.0,0.0,4.6606,4.6651,4.6845,4.7279,4.7309,4.7309,4.7309,4.7309,4.7658,4.8444,4.791,4.8214,4.935,4.8293,4.7847,4.7838,4.638,4.5568,4.528,4.4519,4.3758,4.298,4.2236,4.1491,4.0781,4.0299,4.0096,4.0096,4.0096,4.0096,4.0096,0.0,0.0,0.0,0.0,0.0,0.0,0.0,0.0,0.0,0.0,0.0,0.0,0.0,0.0,0.0,0.0,0.0,3.1704,3.1227,3.4822,3.7006,3.7028,4.0346,4.2675,4.369,4.4418,4.5618,4.7293,4.7581,4.8105,4.8849,4.912,4.939,4.9678,5.0659,5.1116,5.1116,5.1116,5.049,4.9407,4.7986,4.6194,4.4215,4.2489,4.0493,0.0,3.777,3.7364,3.706,3.6299,3.6199,3.6373,3.6075,3.6338,3.7035,3.8714,4.0459,4.2345,4.4641,4.6846,4.9098,5.1484,5.3205,5.4356,5.4745,5.4521,5.3683,5.1813,4.9629,4.7586,4.621,4.5032,4.4594,4.5515,4.6157,4.6845,4.7803,4.7519,4.6756,4.5529,4.5675,4.5379,0.0,0.0,0.0,4.6319,4.6503,4.686,4.7279,4.7651,4.7834,4.7834,4.8198,4.8882,4.9915,4.9363,4.9339,4.9826,4.9058,4.8426,4.7855,4.665,4.5957,4.5669,4.4936,4.413,4.3358,4.2895,4.21,4.1153,4.0679,4.0333,4.0096,4.0096,4.0096,4.0096,0.0,0.0,0.0,0.0,0.0,0.0,0.0,0.0,0.0,0.0,0.0,0.0,0.0,0.0,0.0,0.0,0.0,0.0,3.1345,3.2643,3.4015,3.5363,3.6935,3.8447,3.9842,4.0612,4.1356,4.2117,4.2878,4.3639,4.4445,4.5179,4.5906,4.6566,4.6599,4.6633,4.6684,4.6684,4.5872,4.4598,4.4479,4.2719,4.0079,3.9242,3.8531,3.7872,3.7134,3.733,3.7838,3.7117,3.7341,3.7797,3.7034,3.6875,3.7336,3.9243,4.0849,4.28,4.6585,4.9048,5.0979,5.2861,5.4685,5.5784,5.4496,5.4061,5.2848,4.9059,4.7711,4.6412,4.3837,4.2859,4.2884,4.4286,4.397,4.4456,4.7085,4.6381,4.6037,4.7219,4.7227,4.6696,4.5586,0.0,0.0,4.6629,0.0,4.7307,4.7294,4.821,4.8702,4.8702,4.9773,5.0817,5.1796,5.118,5.0607,5.0084,5.0084,4.9357,4.7922,4.7192,4.6464,4.5771,4.4976,4.4215,4.3494,4.3426,4.2591,4.1322,4.1271,4.0832,4.0214,4.0214,4.0197,4.0163,0.0,0.0,0.0,0.0,0.0,0.0,0.0,0.0,0.0,0.0,0.0,0.0,0.0,0.0,0.0,0.0,0.0,0.0,3.0471,3.2293,3.3322,3.3136,3.5115,3.636,3.6732,3.7516,3.8531,3.9834,4.0561,4.1322,4.2083,4.2811,4.3267,4.347,4.4028,4.4604,4.5173,4.5173,4.4953,4.4462,4.2743,4.161,4.0713,3.8886,3.8396,3.8616,3.7872,3.8091,3.8599,3.7872,3.8012,3.8443,3.8144,3.9109,4.0626,4.2131,4.4199,4.6423,4.8394,5.0664,5.2848,5.4301,5.47,5.466,5.4516,5.2475,5.0131,4.8353,4.5431,4.2811,4.1617,4.1647,4.2433,4.4209,4.5925,4.7608,4.9209,4.9613,4.9299,4.8177,4.9139,4.9414,4.8168,4.9197,0.0,0.0,4.8348,4.7581,4.7307,4.7523,4.7679,4.7679,4.8677,4.9718,5.0779,5.1531,5.131,5.0084,5.0084,4.961,4.8697,4.797,4.753,4.7263,4.5991,4.5297,4.5026,4.3866,4.3172,4.2794,4.2236,4.1897,4.1728,4.1728,4.139,4.0916,0.0,0.0,0.0,0.0,0.0,0.0,0.0,0.0,0.0,0.0,0.0,0.0,0.0,0.0,0.0,0.0,0.0,0.0,0.0,3.2222,3.2882,3.278,3.3981,3.4793,3.5115,3.5233,3.6028,3.7516,3.7584,3.8193,3.9276,3.9681,4.0054,4.0392,4.0815,4.1424,4.2134,4.2134,4.2134,0.0,0.0,4.0037,3.9631,3.8379,3.8362,3.8937,3.8531,3.9276,4.0434,4.0333,4.0362,4.0532,4.0982,4.2101,4.355,4.5195,4.7089,4.9088,5.0985,5.2778,5.4251,5.4999,5.4251,5.305,5.2063,4.9891,4.7392,4.4752,4.2916,4.1302,3.9731,4.0182,4.1455,4.3399,4.5072,4.6905,4.9075,4.9703,4.9733,4.9209,5.0426,5.0929,4.9942,5.1423,5.2062,0.0,4.9701,4.8865,4.8677,4.9085,4.9311,4.9311,5.0304,5.1171,5.1756,5.2485,5.208,5.0591,5.0591,5.0033,4.8984,4.8257,4.7889,4.7804,0.0,4.5703,4.5618,4.4418,4.3724,4.3341,4.2946,4.2574,4.2286,4.2286,4.2033,4.1677,0.0,0.0,0.0,0.0,0.0,0.0,0.0,0.0,0.0,0.0,0.0,0.0,0.0,0.0,0.0,0.0,0.0,0.0,0.0,0.0,3.2598,3.3237,3.3355,3.3694,3.4336,3.3728,3.4032,3.5312,3.4776,3.5165,3.6508,3.6592,3.6975,3.7601,3.7719,3.8159,3.8853,3.8954,3.9056,3.9123,3.9039,3.8667,3.8176,0.0,3.8413,3.914,3.914,4.0375,4.2179,4.3285,4.3474,4.3474,4.4732,4.5479,4.6337,4.8341,4.9808,5.1257,5.3803,5.488,5.5284,5.5104,5.3488,5.1276,4.8668,4.6991,4.4792,4.059,4.0762,4.0926,3.8543,3.9121,4.0654,4.2794,4.3577,4.5042,4.8425,4.8878,4.9329,5.0466,5.1483,5.1896,5.1332,5.3544,5.4162,5.2119,5.1417,5.0912,5.0413,5.108,5.1561,5.1687,5.2714,5.3348,5.3501,5.3501,5.2739,5.1185,5.1185,5.0439,4.8984,4.8359,4.8041,4.7986,0.0,0.0,4.594,4.5077,4.4333,4.3696,4.3606,4.3166,4.2591,4.2591,4.2523,4.2439,0.0,0.0,0.0,0.0,0.0,0.0,0.0,0.0,0.0,0.0,3.1562,3.119,0.0,0.0,0.0,0.0,0.0,0.0,0.0,0.0,0.0,3.2496,3.3068,3.3457,3.3592,3.3474,3.3541,3.3774,3.4252,3.4624,3.4895,3.552,3.587,3.6022,3.6688,3.7398,3.8142,3.8734,3.9368,3.9859,3.9266,3.9276,3.9605,3.8362,0.0,0.0,3.991,4.0163,4.0922,4.3886,4.545,4.6391,4.7793,4.8752,4.9778,5.1753,5.289,5.3862,5.5418,5.5912,5.5748,5.4655,5.2456,4.99,4.7528,4.512,4.2881,4.1249,4.0636,4.0271,3.9775,4.0238,4.1771,4.5049,4.6013,4.7699,5.1464,5.2023,5.2184,5.2645,5.3177,5.3475,5.3396,5.4413,0.0,0.0,0.0,5.3496,5.0554,4.9718,4.9718,5.0627,5.1667,5.2592,5.3501,5.3501,5.2739,5.1185,5.1185,5.0439,4.9001,4.8883,4.8815,4.8765,4.7902,0.0,4.7398,4.6075,4.5432,4.5246,4.4621,4.4327,4.4209,4.4209,4.3775,4.3189,0.0,0.0,0.0,0.0,0.0,0.0,0.0,3.2019,3.2175,3.3309,3.3136,3.2611,3.187,3.1769,3.1633,0.0,0.0,0.0,0.0,0.0,0.0,0.0,3.437,3.4535,3.4535,3.4167,3.4167,3.4535,0.0,3.4692,3.5081,3.543,3.5802,3.6231,3.6643,3.7415,3.8497,3.8853,3.9436,4.0079,3.9723,3.9791,4.0028,0.0,0.0,0.0,4.0096,4.0603,4.1625,4.4068,4.5846,4.7453,4.9747,5.1583,5.32,5.477,5.5615,5.6404,5.7861,5.771,5.6705,5.4715,5.1693,4.8457,4.5655,4.3043,4.0876,3.9668,3.9792,3.9876,3.9089,3.9714,4.0983,4.305,4.3797,4.5504,4.9491,5.0294,5.1228,5.3376,5.4437,5.5182,5.5666,5.6352,5.6525,5.6016,0.0,5.5192,5.2726,5.1199,5.0914,5.199,5.1938,5.2435,5.3501,5.3501,5.2926,5.1775,5.1775,5.1014,4.956,4.956,4.9357,4.8968,4.824,0.0,4.7804,4.6735,4.6261,4.6244,4.5872,4.572,4.572,4.572,4.5263,4.4621,0.0,0.0,0.0,0.0,0.0,0.0,0.0,3.2696,3.3021,3.432,3.4618,3.4155,3.2828,3.2744,3.2479,0.0,0.0,0.0,0.0,0.0,0.0,0.0,0.0,0.0,3.56,0.0,0.0,3.56,3.503,0.0,0.0,0.0,0.0,0.0,3.7202,3.7929,3.9005,3.9157,3.9571,0.0,0.0,4.0096,0.0,0.0,0.0,0.0,0.0,4.084,4.211,4.3758,4.5247,4.6896,4.971,5.2471,5.4942,5.6148,5.7118,5.8162,5.9842,5.9283,5.7663,5.4895,5.1124,4.7224,4.4036,4.135,3.9285,3.8248,3.9131,3.9757,3.8582,3.9196,4.021,4.1177,4.1671,4.3299,4.7254,4.8652,5.0507,5.3796,5.5515,5.6689,5.7413,5.8002,0.0,5.7009,0.0,0.0,5.434,5.3126,5.2672,5.3144,5.2557,5.2627,5.3501,5.3501,5.3095,5.23,5.23,5.1522,5.0084,5.0084,4.9695,4.8968,4.8409,0.0,0.0,4.7344,4.7039,4.7022,4.6853,4.6786,4.6786,4.6786,4.643,4.594,0.0,0.0,0.0,0.0,0.0,0.0,0.0,3.2476,3.3592,3.4387,3.4922,3.4901,3.4029,3.4157,3.3998,0.0,0.0,0.0,0.0,0.0,0.0,0.0,0.0,0.0,0.0,0.0,0.0,3.56,3.5532,0.0,0.0,0.0,0.0,0.0,0.0,3.887,3.9039,3.9723,0.0,0.0,0.0,0.0,0.0,0.0,0.0,0.0,0.0,4.0197,4.0637,4.2794,4.3624,4.4112,4.6094,4.9351,5.266,5.4052,5.6011,5.8187,6.0248,5.9931,5.8246,5.5014,5.078,4.6533,4.3346,4.0678,3.8878,3.8827,3.9508,4.0062,3.9926,3.9986,4.0745,4.281,4.3182,4.4539,4.8318,5.0876,5.3012,5.4707,5.6507,5.7676,5.7767,5.8188,5.8162,5.74,0.0,0.0,5.3294,5.3909,5.3661,5.2098,5.2904,5.3382,5.3501,5.3501,5.3095,5.23,5.23,5.1522,5.0084,5.0084,4.9695,4.9001,4.8934,0.0,0.0,4.8105,4.7787,4.775,4.7056,4.6786,4.6786,4.6786,4.6752,4.6684,0.0,0.0,0.0,0.0,0.0,0.0,3.1616,3.1968,3.292,3.5334,3.5544,3.5597,3.5927,3.5734,3.473,3.2627,0.0,0.0,0.0,0.0,0.0,0.0,0.0,0.0,0.0,0.0,3.5836,3.6315,3.6315,0.0,0.0,0.0,0.0,0.0,0.0,3.9266,3.969,3.9977,0.0,0.0,0.0,0.0,0.0,0.0,0.0,0.0,0.0,0.0,4.0231,4.1119,4.1711,4.2122,4.244,4.4865,4.8361,5.227,5.4405,5.6209,5.9302,5.9322,5.7723,5.4416,5.0487,4.6681,4.3883,4.0959,3.9023,3.953,3.9876,3.996,3.9537,3.9453,3.9573,3.9954,3.9668,4.0609,4.4102,4.5827,4.8647,5.3801,5.5814,5.7609,0.0,0.0,5.9689,5.8445,0.0,0.0,5.473,5.398,5.3413,5.2886,5.2627,5.2835,5.3501,5.3501,5.3348,5.3027,5.3027,5.2232,5.076,5.076,5.0118,4.9001,4.9001,0.0,0.0,4.8697,4.8578,4.8545,4.824,4.8122,4.8122,4.8122,4.7851,4.7462,0.0,0.0,0.0,0.0,0.0,2.9313,3.1345,3.1562,3.2502,3.516,3.5616,3.5883,3.6425,3.6257,3.5246,3.3108,3.3815,0.0,0.0,0.0,0.0,0.0,0.0,0.0,0.0,0.0,3.6622,3.6795,3.7032,3.7499,0.0,0.0,3.8616,3.9326,0.0,0.0,0.0,0.0,0.0,0.0,0.0,0.0,0.0,0.0,0.0,0.0,0.0,0.0,0.0,0.0,0.0,4.0815,4.0457,4.1801,4.4489,4.936,5.2118,5.4358,5.7611,5.8326,5.7425,5.4304,5.0574,4.6997,4.4402,4.1412,3.938,4.0178,4.0336,4.0165,3.9654,3.944,3.9143,3.8567,3.7843,3.8461,4.1626,4.2733,4.5534,5.1973,5.4206,5.658,5.9988,6.0689,6.0402,0.0,0.0,0.0,5.5801,5.4472,5.3718,5.3501,5.2749,5.2749,5.3501,5.3501,5.3501,5.3501,5.3501,5.2824,5.1539,5.1319,5.0524,4.9306,0.0,0.0,0.0,4.9001,4.9001,4.9001,4.9001,4.9001,4.9001,4.9001,4.868,4.824,0.0,0.0,0.0,0.0,0.0,0.0,2.9886,3.1362,3.2564,3.3322,3.4868,3.5613,3.4889,3.5284,3.558,3.5562,3.4674,0.0,0.0,0.0,0.0,0.0,0.0,0.0,0.0,0.0,3.8045,3.6795,3.7533,3.8278,3.8988,3.8988,3.9377,4.0096,0.0,0.0,0.0,0.0,0.0,0.0,0.0,0.0,0.0,0.0,0.0,0.0,0.0,0.0,0.0,0.0,0.0,0.0,0.0,4.0955,4.166,4.4822,4.8995,5.3003,5.5319,5.713,5.7738,5.4969,5.1168,4.7377,4.4706,4.1855,4.0008,4.0745,4.088,4.088,4.0862,4.0449,4.0096,4.0096,3.9404,3.9841,4.2602,4.3735,4.5628,4.9312,5.1867,5.4542,5.7623,5.9252,5.981,0.0,0.0,0.0,5.5801,5.5664,5.4988,5.3551,5.3501,5.3501,5.3501,5.3501,5.3501,5.3501,5.3501,5.3078,5.2266,5.1539,5.0794,0.0,0.0,0.0,0.0,4.9001,4.9001,4.9001,4.9001,4.9001,4.9001,4.9001,4.9001,4.8984,0.0,0.0,0.0,0.0,0.0,0.0,0.0,2.9738,3.09,3.3294,3.3784,3.4286,3.5247,3.513,3.501,3.5096,3.5001,0.0,0.0,0.0,0.0,0.0,0.0,0.0,0.0,0.0,3.8819,3.9458,3.9699,4.0202,4.0914,4.0481,4.0408,4.0631,4.0262,4.0096,0.0,0.0,0.0,0.0,0.0,0.0,0.0,0.0,0.0,0.0,0.0,0.0,0.0,0.0,0.0,0.0,0.0,0.0,0.0,4.2748,4.5303,4.8249,5.0121,5.118,5.1268,4.9543,4.7432,4.5314,4.356,4.2134,4.1238,4.1473,4.1201,4.0903,4.0903,4.0449,4.0095,4.0094,4.0304,4.0781,4.1646,4.4171,4.7325,5.1095,5.627,5.9919,0.0,0.0,5.9996,0.0,0.0,0.0,5.5801,5.5681,5.504,5.3551,5.3501,5.3501,5.3501,5.3501,5.3501,5.3501,5.3501,5.3078,5.23,5.2063,0.0,0.0,0.0,0.0,0.0,4.9001,4.9001,4.9001,4.9001,4.9001,4.9001,4.9001,4.9001,4.9001,0.0,0.0,0.0,0.0,0.0,0.0,0.0,2.9229,3.0144,3.2652,3.3037,3.365,3.5157,3.5316,3.5566,3.626,3.6292,0.0,0.0,0.0,0.0,0.0,0.0,0.0,3.8648,3.9558,4.0248,4.0686,4.0985,4.1353,4.1789,4.1424,4.1246,4.1206,4.0891,4.0744,0.0,0.0,0.0,0.0,0.0,0.0,4.0497,0.0,0.0,0.0,0.0,0.0,0.0,0.0,0.0,0.0,0.0,0.0,0.0,0.0,4.329,4.4993,4.6967,4.8033,4.8435,4.7589,4.6179,4.4648,4.344,4.2637,4.2062,4.1853,4.1512,4.1178,4.0949,4.0449,4.0104,4.0097,4.0233,4.0729,4.1871,4.3946,4.7111,5.1765,5.7296,0.0,0.0,6.0165,0.0,0.0,0.0,0.0,5.619,5.5869,5.5158,5.3957,5.3653,5.3501,5.3501,5.3501,5.3501,5.3501,5.3501,5.3247,5.2739,5.2435,0.0,0.0,0.0,0.0,0.0,4.9001,4.9001,4.9001,4.9001,4.9001,4.9001,4.9001,4.9001,4.9001,0.0,0.0,0.0,0.0,0.0,0.0,0.0,2.9674,3.0195,3.1706,3.2647,3.362,3.4744,3.5688,3.6864,3.8423,0.0,0.0,0.0,0.0,0.0,0.0,0.0,0.0,3.9262,4.1432,4.2034,4.0897,4.1603,4.1937,4.1937,4.1895,4.1874,4.1874,4.1832,4.181,4.175,0.0,0.0,0.0,0.0,0.0,0.0,0.0,0.0,0.0,0.0,0.0,0.0,0.0,0.0,0.0,0.0,0.0,0.0,0.0,0.0,0.0,0.0,4.7132,4.8172,4.8056,4.6592,4.496,4.4107,4.3319,0.0,4.2041,4.1895,4.1686,4.1087,4.0521,4.0163,4.018,3.963,4.0226,4.3074,4.3786,4.6155,0.0,5.5912,0.0,5.7036,5.8863,0.0,0.0,0.0,0.0,5.6765,5.6089,5.5344,5.4532,5.3856,5.3501,5.3501,5.3501,5.3501,5.3501,5.3501,5.3501,5.3484,5.2739,0.0,0.0,0.0,0.0,0.0,4.9001,4.9001,4.9001,4.9001,4.9001,4.9001,4.9001,4.9001,4.9001,0.0,0.0,0.0,0.0,0.0,0.0,0.0,0.0,0.0,0.0,3.306,3.3548,3.4409,3.5218,3.6107,0.0,0.0,0.0,0.0,0.0,0.0,0.0,0.0,0.0,4.0615,4.1183,4.1918,4.285,4.3014,4.3105,4.3087,4.2675,4.248,4.248,4.2018,4.181,4.1789,4.1643,0.0,0.0,0.0,0.0,0.0,0.0,0.0,0.0,4.294,4.3105,0.0,0.0,0.0,0.0,0.0,0.0,0.0,0.0,4.3303,4.3432,4.3997,0.0,4.3422,4.3381,4.3365,4.3281,0.0,4.3174,4.3268,4.3123,4.2771,4.2302,4.1686,4.111,4.0765,4.0909,4.1748,4.2806,4.4147,4.8704,5.3074,5.6174,5.9376,6.0588,5.8676,0.0,0.0,0.0,0.0,5.7323,5.6038,5.5801,5.5108,5.3805,5.3602,5.3501,5.3501,5.3501,5.3501,5.3501,5.3501,5.3501,5.3501,5.3315,0.0,0.0,0.0,0.0,4.9001,4.9001,4.9001,4.9001,4.9001,4.9001,4.9001,4.9001,4.9001,4.9001,0.0,0.0,0.0,0.0,0.0,0.0,0.0,0.0,0.0,0.0,0.0,3.3698,3.4333,3.5287,0.0,0.0,0.0,0.0,0.0,0.0,0.0,0.0,0.0,4.0196,4.1077,4.1827,4.2635,4.3515,4.3515,4.3515,4.3479,4.3196,4.3087,4.305,4.2715,4.2444,4.2203,4.2203,4.2041,0.0,4.246,0.0,0.0,0.0,0.0,0.0,4.3392,4.3515,0.0,4.3515,4.3515,4.3515,0.0,0.0,0.0,0.0,4.3515,4.3515,4.3515,4.2865,4.2264,4.2523,4.2637,4.2769,4.3014,4.3286,4.3427,4.3178,4.2902,4.244,4.1556,4.1133,4.0968,4.1172,4.2151,4.3893,4.6701,5.1133,5.5175,5.8068,5.9844,6.0486,0.0,0.0,0.0,0.0,0.0,5.7053,5.6258,5.5564,5.4837,5.4025,5.3687,5.3501,5.3501,5.3501,5.3501,5.3501,5.3501,5.3315,5.2959,5.2959,5.2131,0.0,0.0,0.0,4.9001,4.9001,4.9001,4.9001,4.9001,4.9001,4.9001,4.9001,4.9001,4.8951,0.0,0.0,0.0,0.0,0.0,0.0,0.0,0.0,0.0,0.0,0.0,0.0,0.0,0.0,0.0,0.0,0.0,0.0,0.0,0.0,0.0,0.0,4.0194,4.1022,4.1279,4.2506,4.324,4.3515,4.3608,4.3608,4.3515,4.3643,4.3608,4.3515,4.3515,4.325,4.2826,4.2826,4.2539,4.2103,4.2617,0.0,0.0,0.0,0.0,0.0,0.0,0.0,0.0,4.3515,4.3515,4.3515,4.3515,0.0,0.0,0.0,0.0,0.0,4.3515,4.336,4.3229,4.3359,4.3032,4.2826,4.3268,4.3375,4.3268,4.2902,4.2769,4.2362,4.1228,4.114,4.1278,4.1358,4.2472,4.506,5.0067,5.2739,5.5378,5.8643,5.9218,0.0,0.0,0.0,0.0,0.0,0.0,5.6748,5.6647,5.5327,5.4532,5.4431,5.3822,5.345,5.3315,5.345,5.345,5.3315,5.3315,5.2959,5.23,5.2181,5.1454,0.0,0.0,0.0,4.9001,4.9001,4.9001,4.9001,4.9001,4.9001,4.9001,4.9001,4.9001,4.8883,0.0,0.0,0.0,0.0,0.0,0.0,0.0,0.0,0.0,0.0,0.0,0.0,0.0,0.0,0.0,0.0,0.0,0.0,0.0,0.0,0.0,3.9717,3.9955,4.0726,4.2084,4.1682,4.2139,4.3515,4.4176,4.4176,4.3497,4.4195,4.4158,4.3515,4.3515,4.3444,4.3375,4.3375,4.3321,4.3249,4.3339,0.0,0.0,0.0,0.0,0.0,0.0,0.0,0.0,4.3515,4.3515,4.3515,4.3515,0.0,0.0,0.0,0.0,0.0,4.3515,4.4417,4.4986,4.3265,4.2769,4.2731,4.2789,4.2826,4.292,4.3303,4.3014,4.248,4.1789,4.2306,4.2684,4.2206,4.5415,4.9357,0.0,0.0,5.7662,5.8879,0.0,0.0,0.0,0.0,0.0,0.0,0.0,5.6528,5.5919,5.5057,5.4296,5.3687,5.3568,5.3179,5.2486,5.3162,5.3162,5.2486,5.2486,5.2418,5.2283,5.1657,5.1268,0.0,0.0,4.9678,4.9001,4.9001,4.9001,4.9001,4.9001,4.9001,4.9001,4.9001,4.9001,4.8815,0.0,0.0,0.0,0.0,0.0,0.0,0.0,0.0,0.0,0.0,0.0,0.0,0.0,0.0,0.0,0.0,0.0,0.0,0.0,0.0,4.0084,4.0524,4.0561,4.1111,4.2268,4.2359,4.2965,4.4158,4.4085,4.4085,4.4158,4.4085,4.3846,4.3515,4.3515,4.3515,4.3515,4.3515,4.3515,4.3515,0.0,0.0,0.0,0.0,0.0,0.0,0.0,0.0,0.0,0.0,4.3515,4.3515,4.3515,0.0,0.0,0.0,0.0,0.0,4.3515,4.4047,4.44,4.3551,4.3974,4.4183,4.2588,4.2524,4.2765,4.2613,4.2384,4.2163,4.1981,4.2971,4.4397,4.6225,4.8917,5.1826,5.4786,5.5716,5.6833,0.0,0.0,0.0,0.0,0.0,0.0,0.0,0.0,0.0,5.5158,5.4414,5.3856,5.3518,5.3501,5.3112,5.2317,5.2672,5.2469,5.1725,5.1725,5.1505,5.1099,5.076,5.0388,4.9999,0.0,4.9306,4.9001,4.9001,4.9001,4.9001,4.9001,4.9001,4.9001,4.9001,4.8748,4.8257,0.0,0.0,0.0,0.0,0.0,0.0,0.0,0.0,0.0,0.0,0.0,0.0,0.0,0.0,0.0,0.0,0.0,0.0,0.0,3.9441,4.0267,4.1058,4.1279,4.1772,4.2561,4.3002,4.3608,4.4415,4.3993,4.4103,4.4673,4.3883,4.3515,4.3515,4.3515,4.3515,4.3515,4.3515,4.3515,4.3515,0.0,0.0,0.0,0.0,0.0,0.0,0.0,0.0,0.0,0.0,0.0,0.0,0.0,0.0,0.0,4.3515,4.3515,4.3515,4.3515,4.3684,4.3816,4.3658,4.4516,4.4928,4.3265,4.3165,4.3408,4.339,4.312,4.2893,4.2892,4.3975,4.609,4.9772,5.1742,5.3636,5.5902,5.5886,5.6528,5.8981,0.0,0.0,0.0,0.0,0.0,0.0,0.0,0.0,5.4634,5.3907,5.3501,5.3501,5.3315,5.2841,5.2046,5.1877,5.1505,5.0947,5.0947,5.0659,5.0084,4.9915,4.9627,4.9255,4.9069,4.9001,4.9001,4.9001,4.9001,4.9001,4.9001,4.9001,4.9001,4.9001,4.8545,4.7804,0.0,0.0,0.0,0.0,0.0,0.0,0.0,0.0,0.0,0.0,0.0,0.0,0.0,0.0,0.0,0.0,0.0,0.0,0.0,3.9441,4.0267,4.1058,4.1827,4.2598,4.3387,4.2745,4.2782,4.3589,4.4287,4.4636,4.4673,4.3883,4.3515,4.3515,4.3515,4.3515,4.3515,4.3515,4.3515,4.3515,4.3515,0.0,0.0,0.0,0.0,0.0,0.0,0.0,0.0,0.0,0.0,0.0,0.0,0.0,4.3515,4.3515,4.3515,4.3515,4.3515,4.4235,4.4634,4.3146,4.2874,4.3488,4.5592,4.5482,4.5523,4.7575,4.7029,4.5961,4.5286,4.5945,4.7606,5.0642,5.2993,5.5192,5.7425,0.0,5.9032,0.0,0.0,0.0,0.0,0.0,0.0,0.0,0.0,0.0,5.4634,5.3907,5.3501,5.3501,5.279,5.2029,5.1269,5.0591,5.0219,5.0168,5.0168,5.0135,5.0067,4.939,4.9424,4.9965,4.9306,4.9001,4.9001,4.9001,4.9001,4.9001,4.9001,4.9001,4.9001,4.9001,4.8545,4.7889,0.0,0.0,0.0,0.0,0.0,0.0,0.0,0.0,0.0,0.0,0.0,0.0,0.0,0.0,0.0,0.0,0.0,0.0,0.0,3.8245,3.8998,4.0304,4.0653,4.1185,4.1992,4.269,4.3442,4.425,4.4562,4.4452,4.3956,4.3626,4.3515,4.3515,4.3515,4.3515,4.3515,4.3515,4.3515,4.3515,4.3515,4.3515,0.0,0.0,0.0,0.0,0.0,0.0,0.0,0.0,4.3515,4.3515,4.3515,4.3515,4.3515,4.3515,4.3515,4.3515,4.3515,4.4233,4.4746,4.3704,4.3814,4.4462,4.554,4.5961,4.6381,4.7275,4.778,4.7846,4.7084,4.8357,5.005,5.164,5.4177,5.641,5.7712,5.7746,0.0,0.0,0.0,0.0,0.0,0.0,0.0,0.0,0.0,0.0,5.3957,5.3179,5.2993,5.3484,5.2283,5.1488,5.1185,5.0473,4.9864,4.9424,4.9424,4.9424,4.9407,4.9137,4.9154,4.9407,4.912,4.9001,4.9001,4.9001,4.9001,4.9001,4.9001,4.9001,4.8951,4.8494,4.8125,4.7753,0.0,0.0,0.0,0.0,0.0,0.0,0.0,0.0,0.0,0.0,0.0,0.0,0.0,0.0,0.0,0.0,0.0,0.0,3.7088,3.7364,3.8098,3.946,3.9753,4.0286,4.1077,4.2433,4.3387,4.3939,4.4195,4.403,4.3515,4.3515,4.3515,4.3515,4.3515,4.3515,4.3515,4.3515,4.3515,4.3515,4.3515,4.3515,0.0,0.0,0.0,0.0,0.0,0.0,0.0,0.0,4.3515,4.3515,4.3515,4.3515,4.3515,4.3515,4.3191,4.2919,4.3078,4.3206,4.3393,4.3746,4.4196,4.5082,4.7049,4.7832,4.8426,4.9388,4.9847,4.983,4.9103,4.9999,5.1183,0.0,5.4448,5.6359,5.7103,5.6765,0.0,0.0,0.0,0.0,0.0,0.0,0.0,0.0,0.0,0.0,0.0,5.2739,5.2553,5.3112,5.1657,5.0862,5.0862,5.0118,4.9492,4.9001,4.9001,4.9001,4.9001,4.9001,4.9001,4.9001,4.9001,4.9001,4.9001,4.9001,4.8866,4.8646,4.8409,4.8308,4.8274,4.799,4.7736,4.7445,0.0,0.0,0.0,0.0,0.0,0.0,0.0,0.0,0.0,0.0,0.0,0.0,0.0,0.0,0.0,0.0,0.0,0.0,3.6285,3.7052,3.786,3.8652,3.946,4.0267,4.1058,4.1882,4.2304,4.2304,4.3112,4.3515,4.3515,4.3515,4.3515,4.3515,4.3515,4.3515,4.3515,4.3515,4.3515,4.3515,4.3515,4.3515,4.3515,0.0,0.0,0.0,0.0,0.0,0.0,0.0,4.3515,4.3515,4.3515,4.3515,4.3515,4.3515,4.2558,4.1633,4.2167,4.1083,4.0446,4.3069,4.358,4.4947,5.0763,5.1533,5.1901,5.5059,5.389,5.208,5.1369,5.0608,5.0591,5.2046,5.3585,5.4854,5.5598,0.0,0.0,0.0,0.0,0.0,0.0,0.0,0.0,0.0,0.0,0.0,0.0,5.2723,5.2283,5.2283,5.0862,5.0084,5.0084,4.9373,4.9001,4.9001,4.9001,4.9001,4.9001,4.9001,4.9001,4.9001,4.9001,4.8984,4.8984,4.8984,4.8562,4.7804,4.709,4.6786,4.6887,4.7631,4.7428,4.6887,0.0,0.0,0.0,0.0,0.0,0.0,0.0,0.0,0.0,0.0,0.0,0.0,0.0,0.0,0.0,0.0,0.0,0.0,3.5389,3.6174,3.7,3.7823,3.8634,3.9166,3.9423,4.0747,4.2011,4.313,4.3386,4.3515,4.3515,4.3515,4.3515,4.3515,4.3515,4.3515,4.3515,4.3515,4.3515,4.3515,4.3515,4.3515,4.3515,0.0,0.0,0.0,0.0,0.0,0.0,0.0,0.0,0.0,4.3515,4.3515,4.3515,4.3515,4.296,4.2371,4.2539,4.2378,4.2493,4.3796,4.5343,4.7424,5.0711,5.1301,5.2002,5.5074,5.389,5.2232,5.2012,5.1792,0.0,5.1555,5.3264,5.4668,0.0,0.0,0.0,0.0,0.0,0.0,0.0,0.0,0.0,0.0,0.0,0.0,0.0,5.1166,5.0997,5.1522,5.0101,4.9576,5.0084,4.9373,4.9001,4.9001,4.9001,4.9001,4.9001,4.9001,4.9001,4.8968,4.846,4.824,4.8206,4.7665,4.7327,4.7107,4.6887,4.6786,4.6752,4.6464,4.621,4.5974,0.0,0.0,0.0,0.0,0.0,0.0,0.0,0.0,0.0,0.0,3.3807,3.3807,0.0,0.0,0.0,0.0,0.0,0.0,0.0,3.5826,3.6666,3.7456,3.8267,3.8854,3.9166,4.0435,4.1735,4.302,4.3332,4.3515,4.3515,4.3515,4.3515,4.3515,4.3515,4.3515,4.3515,4.3515,4.3515,4.3515,4.3515,4.3515,4.3515,0.0,0.0,0.0,0.0,0.0,0.0,0.0,0.0,0.0,4.3515,4.3515,4.3515,4.3515,4.2541,4.1561,4.204,4.2075,4.2404,4.4259,4.6532,4.8934,5.115,5.2807,5.438,5.6207,5.5023,5.3568,5.3264,5.2706,0.0,5.2147,5.3264,0.0,0.0,0.0,0.0,0.0,0.0,0.0,0.0,0.0,0.0,0.0,0.0,0.0,0.0,5.049,5.0287,5.076,4.9627,4.9069,4.9221,4.8798,4.8426,4.8122,4.8122,4.8122,4.8139,4.8443,4.8731,4.8968,4.824,4.775,4.7411,4.6667,4.6363,4.6329,4.6024,4.5935,4.5906,4.5754,4.5517,4.5229,0.0,0.0,0.0,0.0,0.0,0.0,0.0,0.0,0.0,0.0,3.3842,3.3829,0.0,0.0,0.0,0.0,0.0,0.0,0.0,3.5881,3.6703,3.7364,3.823,3.9038,3.9772,4.0653,4.1462,4.2194,4.3057,4.3515,4.3515,4.3515,4.3515,4.3515,4.3515,4.3515,4.3515,4.3515,4.3515,4.3515,4.3515,4.3515,4.3515,4.3515,0.0,0.0,0.0,0.0,0.0,0.0,0.0,0.0,4.3515,4.3515,4.3515,4.3515,4.1777,4.0139,4.1312,4.1073,4.1299,4.4774,4.7573,5.005,5.2147,5.5243,5.7645,5.7526,5.6494,5.5395,5.4718,5.3399,5.2655,5.3382,5.3501,0.0,0.0,0.0,0.0,0.0,0.0,0.0,0.0,0.0,0.0,0.0,0.0,0.0,0.0,5.0355,4.9965,4.9898,4.9255,4.8562,4.7804,4.7787,4.7462,0.0,4.6786,4.6786,4.6802,4.7496,4.8139,4.8663,4.8003,4.7293,4.6532,4.5872,4.5602,4.5534,4.484,4.4615,4.4682,4.5348,4.5179,4.4699,0.0,0.0,0.0,0.0,0.0,0.0,0.0,0.0,0.0,0.0,0.0,0.0,0.0,0.0,0.0,0.0,0.0,0.0,0.0,3.6413,3.7052,3.6593,3.7936,3.8781,3.8946,4.0361,4.1168,4.1352,4.28,4.3515,4.3515,4.3515,4.3515,4.3515,4.3515,4.3515,4.3515,4.3515,4.3515,4.3515,4.3515,4.3515,4.3515,4.3515,4.3515,0.0,0.0,0.0,0.0,0.0,0.0,0.0,4.3515,4.3515,4.3515,4.3515,4.2796,4.2225,4.3173,4.3401,4.4173,4.7418,5.0822,5.367,5.4735,5.5598,5.5852,5.4685,5.4651,5.4786,5.4617,5.3856,5.3298,5.3467,0.0,0.0,0.0,0.0,0.0,0.0,0.0,0.0,0.0,0.0,0.0,0.0,0.0,0.0,4.9509,4.9323,4.8968,4.8409,4.824,4.7784,4.7039,4.7039,4.6955,0.0,4.6786,4.6786,4.6802,4.6955,4.6819,4.6397,4.6244,4.5754,4.5072,4.4919,4.4852,4.4835,4.4666,4.4615,4.4632,4.4784,4.475,4.4632,0.0,0.0,0.0,0.0,0.0,0.0,0.0,0.0,0.0,0.0,0.0,0.0,0.0,0.0,0.0,0.0,0.0,0.0,0.0,0.0,3.7626,3.7474,3.8248,3.8891,3.9276,4.0471,4.1279,4.168,4.2892,4.3515,4.3515,4.3515,4.3515,4.3515,4.3515,4.3515,4.3515,4.3515,4.3515,4.3515,4.3515,4.3515,4.3515,4.3515,4.3515,4.3515,4.3515,0.0,0.0,0.0,0.0,0.0,0.0,0.0,4.3515,4.3515,4.285,4.2312,4.3138,4.3827,4.5224,4.9087,5.208,5.4177,5.4566,5.4668,5.4329,5.3162,5.3822,5.4482,5.4143,5.345,5.2926,5.2926,0.0,0.0,0.0,0.0,0.0,0.0,0.0,0.0,0.0,0.0,0.0,0.0,0.0,4.9255,4.8528,4.8477,4.8139,4.7411,4.7378,4.7022,4.6278,4.6261,4.6092,4.5766,4.5766,4.5766,4.5783,4.6464,4.6194,4.5179,4.5551,4.528,4.4615,4.4615,4.4615,4.4615,4.4615,4.4615,4.4615,4.4615,4.4615,4.4615,0.0,0.0,0.0,0.0,0.0,0.0,0.0,0.0,0.0,0.0,0.0,0.0,0.0,0.0,0.0,0.0,0.0,0.0,0.0,0.0,0.0,3.9074,3.9095,3.9441,4.0084,4.091,4.1627,4.2304,4.3112,4.3518,4.3558,4.3518,4.3515,4.3515,4.3515,4.3515,4.3515,4.3515,4.3515,4.3515,4.3515,4.3515,4.3515,4.3515,4.3515,4.3515,4.3515,4.3515,4.3515,4.3515,0.0,0.0,0.0,0.0,4.3515,4.3515,4.2703,4.2031,4.2857,4.4039,4.5981,4.9868,5.1978,5.3112,5.3112,5.3112,5.2926,5.2249,5.323,5.3974,5.3247,5.257,5.2114,0.0,0.0,0.0,0.0,0.0,0.0,0.0,0.0,0.0,0.0,0.0,0.0,0.0,0.0,4.8359,4.772,4.7733,4.7378,4.6616,4.6599,4.6261,4.5517,4.5382,4.4993,4.4384,4.4276,4.4209,4.4242,4.5449,4.5415,4.4418,4.5043,4.4874,4.4209,4.4209,4.4209,4.4225,4.4344,4.4327,4.4225,4.4361,4.4384,4.4378,0.0,0.0,0.0,0.0,0.0,0.0,0.0,0.0,0.0,0.0,3.7203,3.711,0.0,0.0,0.0,0.0,0.0,0.0,0.0,0.0,0.0,4.071,4.0783,4.082,4.093,4.1735,4.2194,4.2304,4.3112,4.3597,4.3764,4.3597,4.3515,4.3515,4.3515,4.3515,4.3515,4.3515,4.3515,4.3515,4.3515,4.3515,4.3515,4.3515,4.3515,4.3515,4.3515,4.3515,4.3515,4.3515,4.3515,0.0,0.0,0.0,4.3515,4.3515,4.3371,4.3432,4.4377,4.6317,4.8294,4.9087,5.0422,5.1522,5.1522,5.1522,5.1472,5.1386,5.2029,5.2384,5.1657,5.1437,5.1369,0.0,0.0,0.0,0.0,0.0,0.0,0.0,0.0,0.0,0.0,0.0,0.0,0.0,4.7141,4.7039,4.6955,4.6938,4.6616,4.5872,4.5855,4.5483,4.4767,4.4062,4.3646,4.3544,4.2912,4.2591,4.2608,4.2794,4.3149,4.3589,4.3646,4.3301,4.2591,4.2591,4.2591,4.2658,4.3318,4.3166,4.2675,4.3335,4.3572,4.3487,0.0,0.0,0.0,0.0,0.0,0.0,0.0,0.0,0.0,0.0,0.0,3.7725,0.0,0.0,0.0,0.0,0.0,0.0,0.0,0.0,0.0,4.1056,4.1095,4.1297,4.1772,4.2121,4.2525,4.2965,4.3331,4.3777,4.4289,4.3869,4.3668,4.3668,4.354,4.3515,4.3515,4.3515,4.3515,4.3515,4.3515,4.3222,4.2873,4.3331,4.3222,4.2839,4.2996,4.3232,4.3444,4.3142,4.325,4.3515,4.3515,0.0,0.0,0.0,4.3515,4.3686,4.4646,4.5762,4.6926,4.7957,4.88,4.9475,4.9881,5.0304,5.0473,5.0067,5.0236,5.0608,5.1116,5.0879,5.0456,0.0,0.0,0.0,0.0,0.0,0.0,0.0,0.0,0.0,0.0,0.0,0.0,0.0,4.6177,4.5805,4.4942,4.4908,4.457,4.3809,4.3792,4.3639,4.3328,4.2963,4.2777,4.2777,4.2439,4.2286,4.2286,4.2286,4.2472,4.2777,4.2777,4.2591,4.2286,4.2286,4.2286,4.232,4.2658,4.2591,4.2337,4.2658,4.2777,4.2743,0.0,0.0,0.0,0.0,0.0,0.0,0.0,0.0,0.0,0.0,0.0,0.0,0.0,0.0,0.0,0.0,0.0,0.0,0.0,0.0,0.0,4.1697,4.1717,4.1992,4.2598,4.2598,4.2892,4.3515,4.3515,4.394,4.4766,4.4247,4.4162,4.4405,4.3833,4.3558,4.3515,4.3515,4.3515,4.3461,4.3137,4.2714,4.2324,4.2465,4.2281,4.2,4.2136,4.2613,4.3135,4.281,4.305,4.3515,4.3515,4.3515,0.0,0.0,0.0,4.3631,4.4196,4.4689,4.527,4.6248,4.6878,4.7381,4.778,4.8443,4.8832,4.8274,4.8308,4.8781,4.9881,4.9627,4.9069,0.0,0.0,0.0,0.0,0.0,0.0,0.0,0.0,0.0,0.0,0.0,0.0,0.0,4.484,4.4333,4.32,4.3132,4.2878,4.2303,4.2286,4.2286,4.2286,4.21,4.1914,4.1728,4.1728,4.1728,4.1728,4.1728,4.1728,4.1745,4.1931,4.1897,4.1728,4.1728,4.1728,4.1745,4.1948,4.1897,4.1745,4.1948,4.2016,4.1982,0.0,0.0,0.0,0.0,0.0,0.0,0.0,0.0,0.0,0.0,0.0,0.0,4.0346,4.0392,4.0431,4.0423,4.1212,0.0,0.0,0.0,0.0,4.3348,4.3386,0.0,4.3441,4.3441,4.346,4.3515,4.3515,4.4017,4.4989,4.4765,4.5165,4.6011,4.446,4.3666,4.3515,4.3515,4.3515,4.3407,4.2123,4.1868,4.2128,4.0448,4.0365,4.1142,4.089,4.1483,4.2402,0.0,4.305,4.3515,4.3515,4.3515,4.3515,0.0,0.0,0.0,4.2936,4.3838,4.4671,4.3676,4.4491,4.5404,4.4941,4.5399,4.5923,4.5889,4.643,4.6938,4.7005,4.6989,4.6955,0.0,0.0,0.0,0.0,0.0,0.0,0.0,0.0,0.0,0.0,0.0,0.0,0.0,4.2472,4.2422,4.2354,4.2354,4.2337,4.2286,4.2286,4.2286,4.2286,4.161,4.0899,4.0214,4.0214,4.0214,4.0214,4.0214,4.0214,4.0248,4.095,4.0849,4.0214,4.0214,4.0214,4.0282,4.0984,4.0832,4.0299,4.1001,4.1271,4.117,0.0,0.0,0.0,0.0,0.0,0.0,0.0,0.0,0.0,0.0,0.0,0.0,0.0,3.9915,4.0133,4.0644,4.145,0.0,0.0,0.0,0.0,4.3495,4.3515,4.3515,4.3515,4.3515,4.3515,4.3515,4.3515,4.3942,4.4783,4.434,4.4523,4.5202,4.4257,4.403,4.4214,4.336,4.3196,4.3406,4.2426,4.1611,4.0979,4.0689,4.0253,3.9927,4.083,0.0,0.0,0.0,0.0,0.0,0.0,4.3268,4.305,4.3392,4.3515,4.3444,4.3268,4.3356,4.349,4.3561,4.3681,4.3761,4.3717,4.4258,4.469,4.4315,4.4434,4.4621,4.4621,4.5805,4.665,0.0,0.0,0.0,0.0,0.0,0.0,0.0,0.0,0.0,0.0,0.0,0.0,0.0,0.0,4.139,4.0925,4.0891,4.0891,4.0891,4.0891,4.0891,4.0891,4.0637,4.0367,4.0096,4.0096,4.0096,4.0096,4.0096,4.0096,4.0113,4.0383,4.035,4.0096,4.0096,4.0096,4.013,4.0375,4.0333,4.013,4.0417,4.0476,4.0468,0.0,0.0,0.0,0.0,0.0,0.0,0.0,0.0,0.0,4.0368,0.0,0.0,0.0,0.0,4.0745,4.1562,4.2128,4.265,4.3163,4.3189,4.3299,4.3495,4.3515,4.3515,4.3515,4.3515,4.3515,4.3515,4.3515,4.3901,4.4691,4.4288,4.4472,4.5076,4.4265,4.4049,4.4251,4.3342,4.3178,4.3407,4.2231,4.1307,4.0673,4.069,4.0237,3.9727,0.0,0.0,0.0,0.0,0.0,0.0,0.0,4.3124,4.3032,4.3392,4.3515,4.3515,4.3515,4.3232,4.3047,4.3343,4.3133,4.2707,4.2177,4.2846,4.3321,4.247,4.2692,4.3047,4.3047,4.4265,4.5128,0.0,0.0,0.0,0.0,0.0,0.0,0.0,0.0,0.0,0.0,0.0,0.0,0.0,0.0,0.0,4.013,4.0096,4.0096,4.0096,4.0096,4.0096,4.0096,4.0096,4.0096,4.0096,4.0096,4.0096,4.0096,4.0096,4.0096,4.0096,4.0096,4.0096,4.0096,4.0096,4.0096,4.0096,4.0096,4.0096,4.0096,4.0096,4.0096,4.0096,0.0,0.0,0.0,0.0,0.0,0.0,0.0,0.0,4.1092,4.187,0.0,0.0,0.0,0.0,0.0,4.3208,4.3302,4.3496,4.396,4.3986,4.3833,4.3513,0.0,0.0,4.3515,4.3515,4.3515,4.3515,4.3515,4.3901,4.4654,4.4654,4.5076,4.5773,4.4465,4.3741,4.3515,4.3479,4.348,4.3355,4.15,4.1002,4.1278,4.0288,4.0132,4.05,4.0859,4.1278,0.0,4.1087,0.0,0.0,0.0,4.305,4.3515,4.3515,4.3515,4.3515,0.0,0.0,0.0,4.2845,4.2713,4.2243,4.032,4.103,4.1723,4.0382,4.1247,4.2236,4.2236,4.2236,4.2236,0.0,0.0,0.0,0.0,0.0,0.0,0.0,0.0,0.0,0.0,0.0,0.0,0.0,4.0096,4.0096,4.0096,4.0096,4.0096,4.0096,4.0096,4.0096,4.0096,4.0096,4.0096,4.0096,4.0096,4.0096,4.0096,4.0096,4.0096,4.0096,4.0096,4.0096,4.0096,4.0096,4.0096,4.0096,4.0096,4.0096,4.0096,4.0096,4.0096,4.0096,0.0,0.0,0.0,0.0,0.0,0.0,4.0969,4.1021,4.1095,0.0,0.0,0.0,4.1354,4.1872,4.2297,4.2554,4.3124,4.3502,4.3627,4.3629,4.3597,4.3496,4.3515,4.3515,4.3515,4.3515,4.3515,4.3515,4.3515,4.3608,4.3828,4.3828,4.3938,4.414,4.3778,4.3576,4.3462,4.3105,4.3228,4.3625,4.2521,4.1677,4.1051,4.0533,3.9826,0.0,0.0,4.0513,4.0379,0.0,4.0988,4.0468,0.0,4.2715,4.3515,4.3515,4.3515,4.3515,4.3515,0.0,0.0,0.0,0.0,0.0,0.0,4.1892,4.166,4.0832,4.0692,4.0722,4.0722,4.0722,4.0722,0.0,0.0,0.0,0.0,0.0,0.0,0.0,0.0,0.0,0.0,0.0,0.0,0.0,4.0096,4.0096,4.0096,4.0096,4.0096,4.0096,4.0096,4.0096,4.0096,4.0096,4.0096,4.0096,4.0096,4.0096,4.0096,4.0096,4.0096,4.0096,4.0096,4.0096,4.0096,4.0096,4.0096,4.0096,4.0096,4.0096,4.0096,4.0096,4.0096,4.0096,0.0,0.0,0.0,0.0,0.0,4.1205,4.1535,4.159,4.1735,0.0,0.0,0.0,4.2103,4.2525,4.28,4.28,4.3222,4.3515,4.3515,4.3515,4.3515,4.3515,4.3515,4.3515,4.3515,4.3515,4.3515,4.3515,4.3515,4.3515,4.3515,4.3515,4.3515,4.3515,4.3515,4.3515,4.3479,4.3178,4.3336,4.3714,4.2685,4.2087,4.1763,4.137,4.0737,0.0,0.0,0.0,4.0827,4.103,4.0814,0.0,0.0,0.0,4.3214,0.0,4.3515,4.3515,4.3515,4.3515,4.3515,4.3515,0.0,0.0,4.1976,4.1511,4.0972,0.0,3.9303,3.934,3.988,3.9795,3.9897,0.0,0.0,0.0,0.0,0.0,0.0,0.0,0.0,0.0,0.0,4.0096,4.0096,4.0096,4.0096,4.0096,4.0096,4.0096,4.0096,4.0096,4.0096,4.0096,4.0096,4.0096,4.0096,4.0096,4.0096,4.0096,4.0096,4.0096,4.0096,4.0096,4.0096,4.0096,4.0096,4.0096,4.0096,4.0096,4.0096,4.0096,4.0096,4.0096,4.0096,4.0096,0.0,0.0,4.137,4.137,4.137,4.1625,4.2323,4.2433,4.269,0.0,4.3588,4.3606,4.3515,4.3588,4.3626,4.3626,4.3551,4.3551,4.3643,4.3551,4.3515,4.3515,4.3515,4.3515,4.3515,4.3515,4.3515,4.3515,4.3515,4.3515,4.3515,4.3515,4.3515,4.3515,4.3515,4.3515,4.3515,4.3515,4.3634,4.3694,4.243,4.2312,4.289,4.2299,4.2009,4.1892,4.194,4.202,4.1847,4.0553,4.0449,0.0,0.0,0.0,0.0,0.0,4.3515,4.3515,4.3515,4.3515,4.3515,0.0,0.0,0.0,4.1089,4.0787,4.0377,0.0,3.8162,3.8581,3.9721,3.9528,3.9767,0.0,0.0,0.0,0.0,0.0,0.0,0.0,0.0,0.0,4.0096,4.0096,4.0096,4.0096,4.0096,4.0096,4.0096,4.0096,4.0096,4.0096,4.0096,4.0096,4.0096,4.0096,4.0096,4.0096,4.0096,4.0096,4.0096,4.0096,4.0096,4.0096,4.0096,4.0096,4.0096,4.0096,4.0096,4.0096,4.0096,4.0096,4.0096,4.0096,4.0096,4.0096,0.0,4.302,4.302,4.302,4.302,4.3075,4.3239,4.3276,4.3331,4.3478,4.4066,4.4213,4.357,4.4085,4.447,4.447,4.3864,4.3754,4.4415,4.3864,4.3515,4.3515,4.3515,4.3515,4.3515,4.3515,4.3515,4.3515,4.3515,4.3515,4.3515,4.3515,4.3515,4.3515,4.3515,4.3515,4.3515,4.3515,4.3634,4.373,4.2996,4.2901,4.3093,4.1859,4.1019,4.0475,4.0517,4.0527,4.0502,4.0197,4.0449,4.0984,0.0,0.0,0.0,4.3339,0.0,0.0,0.0,0.0,0.0,0.0,0.0,0.0,4.2971,4.2576,4.2176,0.0,4.0945,4.04,4.0637,4.0602,4.0654,0.0,0.0,0.0,0.0,0.0,0.0,0.0,0.0,0.0,4.0096,4.0096,4.0096,4.0096,4.0096,4.0096,4.0096,4.0096,4.0096,4.0096,4.0096,4.0096,4.0096,4.0096,4.0096,4.0096,4.0096,4.0096,4.0096,4.0096,4.0096,4.0096,4.0096,4.0096,4.0096,4.0096,4.0096,4.0096,4.0096,4.0096,4.0096,4.0096,4.0096,4.0096,4.3515,4.3515,4.3515,4.3515,4.3515,4.3626,4.403,4.4103,4.4232,4.4635,4.5057,4.5149,4.4727,4.5057,4.5296,4.5296,4.4638,4.4382,4.4691,4.4035,4.3597,4.3497,4.3515,4.3515,4.3515,4.3515,4.3515,4.3515,4.3515,4.3515,4.3515,4.3515,4.3277,4.291,4.3331,4.3101,4.2523,4.3631,4.4049,4.3882,4.3117,4.3109,4.3385,4.2039,4.1284,4.0914,4.0601,4.0336,4.0163,4.051,4.1055,0.0,4.1762,4.2491,4.3333,0.0,4.3515,4.3589,0.0,0.0,0.0,4.4103,0.0,0.0,0.0,4.2486,4.1991,4.1593,4.0826,4.0453,4.1081,4.0718,4.0769,4.1996,0.0,0.0,0.0,0.0,0.0,0.0,0.0,0.0,4.0096,4.0096,4.0096,4.0096,4.0096,4.0096,4.0096,4.0096,4.0096,4.0096,4.0096,4.0096,4.0096,4.0096,4.0096,4.0096,4.0096,4.0096,4.0096,4.0096,4.0096,4.0096,4.0096,4.0096,4.0096,4.0096,4.0096,4.0096,4.0096,4.0096,4.0096,4.0096,4.0096,4.0096,4.3515,4.3515,4.3551,4.3699,4.3718,4.3993,4.4819,4.4947,4.5168,4.581,4.5902,4.5792,4.5535,4.5517,4.5645,4.5956,4.5001,4.4558,4.4967,4.4262,4.3679,4.3358,4.3738,4.3827,4.3515,4.3662,4.3662,4.3515,4.3515,4.3515,4.3515,4.3515,4.324,4.2782,4.3277,4.2977,4.2207,4.3816,4.4269,4.3798,4.3038,4.3212,4.3742,4.2247,4.1674,4.159,4.0972,4.0473,4.0214,4.095,4.1654,4.2212,4.2238,4.301,0.0,0.0,0.0,0.0,0.0,0.0,0.0,0.0,0.0,4.4288,0.0,0.0,0.0,4.1053,4.054,0.0,0.0,0.0,0.0,0.0,0.0,0.0,0.0,0.0,0.0,0.0,0.0,0.0,0.0,4.0096,4.0096,4.0096,4.0096,4.0096,4.0096,4.0096,4.0096,4.0096,4.0204,4.0237,4.0237,4.0385,4.0385,4.0237,4.0237,4.0204,4.0096,4.0096,4.0096,4.0096,4.0096,4.0096,4.0096,4.0096,4.0096,4.0096,4.0096,4.0096,4.0096,4.0096,4.0096,4.0096,4.3515,4.3515,4.3718,4.4452,4.4562,4.4837,4.5645,4.5755,4.5792,4.5883,4.5902,4.5461,4.426,4.4129,4.469,4.6121,4.3751,4.3289,4.5936,4.472,4.3563,4.2806,4.462,4.4947,4.3533,4.4195,4.4213,4.3515,4.3515,4.3515,4.3515,4.3515,4.3828,4.4397,4.3773,4.3907,4.455,4.4103,4.3563,4.3045,4.2934,4.3457,0.0,4.203,4.1282,4.1172,4.0442,4.0146,4.0214,0.0,4.1654,4.2386,0.0,4.3885,4.413,4.5297,0.0,0.0,0.0,0.0,0.0,0.0,4.4345,0.0,0.0,0.0,4.3245,4.3153,0.0,0.0,0.0,0.0,0.0,0.0,0.0,0.0,0.0,0.0,0.0,0.0,0.0,0.0,0.0,4.0096,4.0096,4.0096,4.0096,4.0096,4.0096,4.0096,4.0096,4.0096,4.0552,4.0803,4.0803,4.1335,4.1335,4.0803,4.0803,4.0552,4.0096,4.0096,4.0096,4.0096,4.0096,4.0096,4.0096,4.0096,4.0096,4.0096,4.0096,4.0096,4.0096,4.0096,4.0096,4.0096,4.3515,4.3515,4.3625,4.3938,4.4397,4.4839,4.5325,4.6557,4.7423,4.7314,4.7719,4.7837,4.7258,4.6837,4.6819,4.7464,4.5333,4.44,0.0,0.0,4.3857,4.3455,4.5032,4.5425,4.4376,4.4583,4.4544,4.4195,4.3718,4.3515,4.3515,4.3975,4.4121,4.4011,4.414,4.3795,4.3203,4.4101,4.3988,4.3224,4.3607,4.4081,0.0,4.231,4.1328,4.095,4.0323,4.0096,4.0146,0.0,4.1593,0.0,0.0,0.0,0.0,0.0,0.0,0.0,0.0,0.0,0.0,0.0,0.0,0.0,4.3925,0.0,4.3515,0.0,0.0,0.0,0.0,0.0,0.0,0.0,4.1121,0.0,0.0,0.0,0.0,0.0,0.0,0.0,0.0,0.0,0.0,0.0,4.0096,4.0096,4.0096,4.0392,4.0552,4.0552,4.111,4.1424,4.1424,4.1664,4.1664,4.1424,4.1424,4.1291,4.1059,4.0703,4.0552,4.0552,4.0229,4.0096,4.0096,4.0096,4.0096,4.0096,4.0096,4.0096,4.0096,4.0096,4.0096,4.0096,4.3828,4.3662,4.3643,4.4066,4.4635,4.5224,4.5807,4.7581,4.8735,4.8397,4.8912,4.924,4.9091,4.8396,4.811,4.8491,4.6514,4.5229,0.0,0.0,4.4057,4.3177,0.0,0.0,4.4453,4.4883,4.5003,4.4784,4.4362,4.4158,4.4158,4.4764,4.4837,4.4507,4.4874,4.4266,4.3077,4.4256,4.4096,4.307,4.3383,4.3692,4.3807,4.246,4.154,4.0951,4.0756,4.0705,4.0739,4.0942,4.215,0.0,4.2462,0.0,0.0,0.0,0.0,0.0,4.5027,0.0,0.0,0.0,0.0,0.0,0.0,0.0,0.0,0.0,0.0,0.0,0.0,0.0,0.0,0.0,0.0,4.0147,0.0,0.0,0.0,0.0,0.0,0.0,0.0,0.0,0.0,4.0096,4.0096,4.0171,4.0311,4.0679,4.0972,4.1155,4.1729,4.2059,4.2059,4.2185,4.2185,4.2059,4.2059,4.1874,4.1534,4.111,4.0827,4.0655,4.0262,4.0096,4.0096,4.0096,4.0096,4.0096,4.0096,4.0096,4.0096,4.0096,4.0096,4.0096,4.4672,4.403,4.3992,4.5553,4.5847,4.6397,4.7975,4.8984,4.9318,4.8601,4.8514,4.8347,4.7811,4.7044,4.7182,0.0,0.0,4.4917,4.5545,0.0,4.399,0.0,0.0,4.5979,0.0,4.5057,4.5761,4.4985,4.5551,4.581,4.581,4.5847,4.6269,4.6947,4.6214,4.5931,4.5966,4.4676,4.336,4.2082,4.1537,4.1689,4.2282,0.0,4.1831,4.128,4.1991,0.0,0.0,4.3064,4.3767,0.0,0.0,0.0,0.0,0.0,0.0,0.0,0.0,0.0,0.0,4.5313,0.0,0.0,0.0,0.0,4.5369,0.0,0.0,0.0,0.0,0.0,0.0,4.1741,0.0,0.0,0.0,0.0,0.0,0.0,0.0,0.0,0.0,0.0,0.0,4.0096,4.0096,4.0336,4.085,4.088,4.1178,4.175,4.2362,4.2655,4.2655,4.3196,4.3178,4.2655,4.2655,4.2059,4.0926,4.0903,4.0625,4.0121,4.0096,4.0096,4.0096,4.0096,4.0096,4.0096,4.0096,4.0096,4.0096,4.0096,4.0096,4.0096,4.4251,4.4656,4.5259,4.581,4.6342,4.709,4.826,4.8404,4.8823,4.9952,5.0563,5.1017,0.0,5.0719,5.027,0.0,0.0,4.6601,4.6202,4.6186,0.0,0.0,0.0,4.6891,0.0,0.0,4.6338,4.5143,4.565,4.5699,4.5317,4.6247,4.6837,4.7094,4.6819,4.6224,4.5418,4.4502,4.388,4.3558,0.0,4.3561,4.3568,0.0,0.0,4.2566,4.237,4.2286,0.0,4.2591,4.3141,4.3712,4.3456,4.3656,4.3907,4.3459,4.3133,0.0,0.0,0.0,4.293,4.4345,0.0,0.0,0.0,0.0,0.0,0.0,0.0,0.0,0.0,0.0,4.283,4.2371,4.2183,0.0,0.0,0.0,0.0,0.0,0.0,0.0,0.0,0.0,0.0,3.9385,3.9385,3.9442,3.9627,4.0803,4.1599,4.1793,4.2715,4.3232,4.3232,4.341,4.341,4.3232,4.3232,4.2828,4.208,4.1686,4.1178,4.0625,4.0237,4.0096,4.0121,4.0473,4.0631,4.0655,4.1059,4.1236,4.1173,4.0774,4.04,4.0204,4.5106,4.5972,4.6654,4.6379,4.6815,4.7508,4.8355,4.8756,4.9449,5.0789,5.2131,0.0,5.333,0.0,5.2341,0.0,5.0011,4.8489,4.7084,4.7488,0.0,4.3532,4.628,0.0,0.0,0.0,0.0,0.0,4.6206,4.6503,4.5887,4.6993,4.7516,4.7516,4.7516,4.6741,4.5355,4.4767,4.4249,4.3809,0.0,4.4057,0.0,0.0,4.2877,4.4031,0.0,4.3125,4.3125,4.3125,4.342,4.3741,4.3267,4.3436,4.369,4.2912,4.2692,4.2625,4.2371,4.2115,0.0,4.3652,4.3862,0.0,4.55,0.0,0.0,0.0,0.0,0.0,0.0,0.0,0.0,4.2731,4.2541,4.2297,0.0,4.2398,0.0,0.0,0.0,0.0,0.0,0.0,3.9157,3.865,3.9089,3.9365,0.0,0.0,4.1895,4.2121,4.3014,4.3515,4.3515,4.3515,4.3515,4.3497,4.3322,4.2921,4.2362,4.1768,4.1155,4.0601,4.0237,4.0096,4.0146,4.0679,4.0903,4.0972,4.1556,4.181,4.175,4.1358,4.1186,4.1283,4.713,4.7828,4.8196,4.7424,4.7397,4.7706,4.8447,0.0,5.1165,5.1222,5.3237,5.4436,5.3754,5.3636,5.3298,5.2486,5.174,5.0418,4.8267,4.9321,0.0,0.0,4.5494,4.5243,4.2373,0.0,0.0,0.0,4.7183,4.8139,4.7363,4.7997,4.8306,4.8306,4.8361,4.7462,4.5883,4.5534,4.4471,4.2943,4.2552,4.3245,4.4446,4.3724,4.4365,4.5563,4.4841,4.4615,4.4615,4.4615,4.4615,4.4615,4.4615,4.4581,4.4384,4.3639,4.3358,4.32,4.2439,4.2698,4.3165,4.3214,0.0,0.0,0.0,0.0,4.6599,0.0,0.0,0.0,0.0,0.0,0.0,4.2826,4.3178,4.3222,0.0,0.0,0.0,0.0,0.0,0.0,0.0,3.997,3.9443,3.8007,3.9191,3.991,0.0,0.0,4.2021,4.2635,4.3178,4.3462,4.3515,4.3515,4.3497,4.3444,4.2939,4.2362,4.1746,4.1155,4.0625,4.0096,4.0096,4.0096,4.0146,4.0679,4.0926,4.0995,4.1599,4.1892,4.1931,4.1849,4.2296,4.3063,4.7377,4.8894,5.0105,4.9903,4.898,4.8583,0.0,0.0,0.0,0.0,5.5382,5.6858,5.6042,5.548,5.4837,5.4076,5.3327,0.0,0.0,0.0,0.0,4.6108,4.6917,4.5822,4.2381,4.5473,0.0,4.3656,0.0,4.839,4.6687,4.7779,4.8306,4.8343,4.8967,4.7994,4.5957,4.6646,4.581,4.4011,4.4019,4.4861,0.0,0.0,4.5196,4.6273,4.5029,4.4615,4.4615,4.4615,4.4615,4.4615,4.4615,4.4181,4.3673,4.3443,4.3014,4.2422,4.1677,4.1928,4.2403,4.2386,4.3302,4.4337,0.0,0.0,0.0,0.0,0.0,0.0,0.0,0.0,0.0,0.0,4.341,0.0,0.0,0.0,0.0,4.3204,0.0,0.0,4.1286,3.9934,3.8751,3.7946,3.8261,3.8434,0.0,0.0,0.0,4.2,4.2598,4.3105,4.3497,4.3515,4.3286,4.2902,4.2769,4.2142,4.1133,4.0972,4.0625,4.0096,4.0096,4.0096,4.0146,4.0679,4.1178,4.1621,4.2223,4.3075,4.3776,4.2338,4.2225,4.2877,4.8391,4.9978,5.1316,5.1316,0.0,0.0,5.1369,5.2021,0.0,5.3871,5.6042,0.0,5.5957,5.6055,5.575,5.4685,5.4222,0.0,5.2437,0.0,0.0,4.744,4.7587,4.6048,4.2381,4.4902,0.0,4.3888,0.0,4.7911,4.7365,4.8002,4.8508,4.8893,4.939,4.8821,4.7497,4.715,4.6401,4.5355,4.4818,4.5052,0.0,4.5275,4.5386,4.5767,4.5603,4.5156,4.4615,4.4615,4.4615,4.4615,4.4615,4.4282,4.3982,4.4241,4.4023,4.3511,4.2699,4.2899,4.3132,4.2193,4.2864,4.3867,4.4395,4.4963,4.5259,0.0,0.0,0.0,0.0,0.0,0.0,0.0,0.0,0.0,0.0,0.0,0.0,0.0,4.2794,0.0,0.0,4.0059,3.8535,3.8288,3.8326,3.8379,0.0,0.0,0.0,4.1402,4.2262,4.2845,4.316,4.3392,4.3232,4.2711,4.2422,4.1793,4.088,4.0655,4.0392,4.0096,4.0096,4.0096,4.0146,4.0679,4.111,4.149,4.2362,4.3155,4.3724,4.2858,4.3205,4.4214,4.9886,5.1226,5.227,0.0,0.0,0.0,0.0,5.3078,0.0,5.4551,0.0,5.6743,5.5194,5.6004,5.6139,5.4854,0.0,5.4008,5.2684,5.2519,5.1161,4.8303,4.777,4.5955,4.2516,4.3735,4.4453,0.0,0.0,4.7189,4.8487,4.834,4.8765,4.961,4.9721,4.9718,4.9468,4.7308,4.6509,4.6568,4.5261,4.4801,4.497,4.5602,4.5449,4.5072,4.6329,4.5838,4.4615,4.4716,4.4682,4.4615,4.4615,4.4615,4.472,4.532,4.5511,4.5292,4.4354,4.4546,4.4502,4.2433,4.2715,4.3575,4.3792,4.4143,4.4436,4.4436,4.4436,4.4072,0.0,0.0,0.0,0.0,0.0,0.0,0.0,0.0,0.0,0.0,0.0,0.0,0.0,0.0,3.8899,3.8964,3.8892,0.0,0.0,0.0,0.0,4.1018,4.2038,0.0,4.2952,0.0,4.3233,4.274,4.2195,4.1512,4.078,4.0392,4.0171,4.0096,4.0096,4.0096,4.0146,4.0601,4.085,4.1018,4.2142,4.2689,4.2932,4.3506,4.4637,4.5975,5.1444,5.2876,5.3775,0.0,0.0,5.5147,5.6764,5.8466,5.8648,5.5875,5.8513,5.9805,5.755,5.6478,5.5801,5.5547,5.4949,0.0,0.0,0.0,0.0,4.9815,4.7898,4.5727,4.325,4.4062,4.4518,0.0,0.0,4.7474,4.7785,4.8138,4.8765,4.9629,5.0288,5.0282,4.9633,4.7362,0.0,4.655,4.5812,4.5872,4.6413,4.6549,4.6515,4.643,4.6701,4.5838,4.4699,4.5297,4.5094,4.4615,4.4615,4.4615,4.472,4.532,4.5511,4.5292,4.4354,4.4546,4.4602,4.2954,4.3032,4.3498,4.3557,4.3306,4.3044,4.3044,4.3044,4.297,4.2749,0.0,0.0,0.0,0.0,0.0,0.0,0.0,0.0,0.0,0.0,4.2196,0.0,0.0,0.0,0.0,0.0,0.0,0.0,0.0,0.0,0.0,4.1853,0.0,0.0,0.0,4.3304,4.2942,4.2667,4.1725,4.0237,4.0601,4.0521,4.0096,4.0096,4.0096,4.0096,4.0204,4.0497,4.0972,4.1686,4.2657,4.3779,4.4529,4.5292,4.5828,5.3702,5.4491,5.5023,5.5013,0.0,0.0,0.0,6.0409,6.0698,5.7279,5.8444,5.8858,5.6974,5.6478,5.6139,5.5715,5.5008,5.4437,5.4044,5.2929,5.161,5.0168,4.8262,0.0,4.4073,4.4311,4.4863,4.5682,0.0,0.0,4.9305,4.9123,4.9674,5.0839,5.09,5.0534,0.0,0.0,0.0,4.7173,4.6527,4.6481,4.6836,4.7225,4.7124,4.6887,4.7665,4.6989,4.572,4.5703,4.5466,4.5094,4.4733,4.4615,4.472,4.532,4.5707,4.5778,4.4804,4.5021,4.5089,4.3506,4.3303,4.3427,4.316,4.2883,4.2616,4.2302,4.248,4.2788,4.305,4.3669,0.0,0.0,0.0,0.0,0.0,0.0,0.0,0.0,0.0,0.0,0.0,0.0,0.0,0.0,0.0,0.0,0.0,0.0,0.0,0.0,0.0,0.0,0.0,0.0,0.0,4.2839,4.2757,4.1934,4.0504,4.078,4.0625,4.0096,4.0096,4.0096,4.0096,4.0096,4.0237,4.0528,4.111,4.1763,4.2459,4.347,4.4278,4.5018,5.5941,5.6235,0.0,0.0,5.8505,0.0,5.9044,6.0927,6.1366,5.8507,5.8216,5.7758,5.6328,5.6427,5.6342,5.5732,5.4888,5.411,5.3551,5.2063,5.0943,5.0351,4.8535,4.6797,4.5307,4.4568,4.5018,0.0,0.0,0.0,0.0,4.9946,5.0373,0.0,0.0,0.0,0.0,0.0,4.7877,4.7979,4.7461,4.7238,4.7357,4.8065,4.7916,4.7411,4.8578,4.8257,4.7141,4.643,4.5974,4.5568,4.4852,4.4615,4.472,4.532,4.5915,4.6246,4.5447,4.5707,4.581,4.436,4.3864,4.3613,4.3079,4.2724,4.2342,4.1729,4.2101,4.2693,4.3232,4.3941,0.0,0.0,0.0,0.0,0.0,0.0,0.0,0.0,0.0,0.0,4.3142,0.0,0.0,0.0,0.0,0.0,0.0,0.0,0.0,0.0,0.0,4.213,4.2415,0.0,4.3323,0.0,4.2899,4.2244,4.1087,4.1087,4.0797,4.0262,4.0146,4.0096,4.0096,4.0096,4.0096,4.0146,4.0577,4.0803,4.1036,4.2192,4.3254,4.4507,0.0,0.0,0.0,0.0,0.0,0.0,5.9217,6.0927,6.1552,5.9218,5.9478,5.9309,5.7831,5.6562,5.5801,5.5733,5.4414,5.3568,5.3501,5.2063,5.1162,5.1117,4.8394,4.7073,4.7491,4.4875,4.4597,0.0,0.0,0.0,0.0,0.0,0.0,0.0,0.0,0.0,0.0,4.8155,4.8189,4.8796,4.873,4.874,4.886,4.9543,4.9397,4.8815,4.8951,4.8917,4.868,4.7953,4.6819,4.5568,4.4852,4.4615,4.472,4.532,4.5915,4.6353,4.613,4.6544,4.6782,4.5902,4.5131,4.4455,4.3913,4.2803,4.1707,4.111,4.1468,4.208,4.2674,4.3233,4.3589,0.0,0.0,0.0,0.0,0.0,4.3322,4.2845,0.0,0.0,0.0,4.2402,0.0,0.0,0.0,0.0,0.0,0.0,0.0,4.2386,0.0,4.3208,4.4419,4.3811,4.3597,4.3797,4.3543,4.2829,4.1725,4.1725,4.138,4.0803,4.0311,4.0096,4.0096,4.0096,4.0096,4.0096,4.0171,4.0473,4.1013,4.1899,4.3408,4.5118,0.0,0.0,0.0,0.0,0.0,0.0,0.0,6.177,6.1444,6.0623,6.0251,5.9539,5.8051,5.6985,5.6367,5.6353,5.5009,5.4359,5.4809,5.2968,5.189,5.1921,4.9475,4.8035,4.7865,4.5829,4.5449,0.0,0.0,0.0,0.0,0.0,0.0,0.0,0.0,5.0013,4.9543,4.9264,4.9293,4.9583,5.0039,5.0237,5.0286,5.0554,5.049,5.0202,4.9751,4.9593,4.9431,4.829,4.75,4.679,4.5635,4.5505,4.5682,4.5135,4.5933,4.6816,4.5856,4.6336,4.6911,4.6104,4.5663,4.5279,4.4729,4.3516,4.2353,4.1795,4.1735,4.2083,4.2995,4.376,4.4066,0.0,0.0,0.0,0.0,0.0,0.0,0.0,0.0,4.2958,0.0,0.0,0.0,0.0,0.0,0.0,0.0,0.0,0.0,4.2126,0.0,4.2952,4.3486,4.3504,4.3539,4.367,4.3556,4.3087,4.2342,4.2342,4.1793,4.088,4.0679,4.0392,4.0096,4.0096,4.0096,4.0096,4.0096,4.0229,4.0551,4.1719,4.294,4.4168,6.1025,0.0,6.1685,0.0,6.1871,6.1815,6.3186,6.2183,6.1176,6.0835,6.0376,5.9539,5.8051,5.7053,5.6558,5.6781,5.5444,5.4832,5.5326,5.3663,5.2655,5.2683,5.0328,0.0,4.9164,4.7104,4.6479,4.7408,4.6988,0.0,0.0,0.0,0.0,0.0,5.0207,5.0214,5.0285,5.0079,5.0229,5.0652,5.118,5.1266,5.1112,5.1317,5.1266,5.1034,5.05,5.0185,4.985,4.8863,4.8367,4.7865,4.6218,4.5973,4.6099,4.5152,4.6081,4.7173,4.6123,4.662,4.7314,4.6746,4.6434,4.6047,4.5292,4.4145,4.3038,4.2246,4.2088,4.2304,4.3124,4.3868,4.4158,4.3589,0.0,0.0,0.0,0.0,0.0,0.0,4.3178,4.3232,4.25,4.3087,0.0,0.0,0.0,0.0,0.0,0.0,0.0,0.0,0.0,0.0,0.0,4.3303,4.3515,4.3515,4.3515,4.3303,4.2939,4.3023,4.2356,4.1173,4.1256,4.0927,4.0336,4.0171,4.0096,4.0096,4.0096,4.0096,4.0231,4.1412,4.2472,4.3468,6.2475,6.3466,6.426,6.495,6.4385,6.3586,6.2735,6.1879,6.0757,5.9235,5.9658,5.9539,5.8051,5.6596,5.6013,5.6746,5.5441,5.4606,5.462,5.3896,5.345,0.0,0.0,4.9983,5.2112,4.8638,4.7483,4.8855,0.0,0.0,4.8945,0.0,5.1679,5.099,5.0972,5.099,5.0945,5.0285,5.0798,5.2071,5.2071,5.1692,5.1164,5.1832,5.1685,5.1086,5.1086,5.0608,5.0004,4.9987,4.9457,4.8424,4.6357,4.5614,4.5511,4.5485,4.6401,4.7406,4.7385,4.7818,4.8288,4.8269,4.7663,4.6743,4.5401,4.4466,4.3492,4.2076,4.2282,4.2693,4.2711,4.3142,4.3515,4.3515,0.0,0.0,0.0,0.0,0.0,0.0,4.3178,4.3069,4.1937,0.0,0.0,0.0,0.0,0.0,0.0,0.0,0.0,4.3461,4.3497,0.0,4.3479,4.3497,4.3515,4.3515,4.3515,4.3497,4.3498,4.3756,4.3117,4.1803,4.2056,4.1695,4.0833,4.0311,4.0096,4.0096,4.0096,4.0096,4.0197,4.0933,4.209,4.3395,6.3466,6.4218,6.4469,6.3498,6.3133,6.3101,6.3305,6.2166,6.1176,6.0765,6.0869,6.0404,5.8875,5.7809,5.7528,0.0,5.6527,5.5781,0.0,5.5237,5.4238,5.4234,5.2785,5.1595,5.0708,4.9072,4.8238,4.8209,0.0,0.0,0.0,5.0524,5.1179,5.1013,5.1482,5.2002,5.2492,5.2276,5.2444,5.2853,5.2853,5.2725,5.2549,5.2769,5.2725,5.2463,5.197,5.1618,5.135,5.0885,4.9881,4.8669,4.8015,4.7685,4.7352,4.6398,4.7021,4.7917,4.7509,4.7838,4.8306,4.8306,4.8122,4.7643,4.6704,4.5119,4.363,4.2622,4.2577,4.2826,4.3178,4.3392,4.3515,4.3515,4.3515,0.0,0.0,0.0,0.0,0.0,4.3178,4.3214,0.0,4.3069,0.0,0.0,0.0,0.0,0.0,0.0,0.0,0.0,4.3515,0.0,4.3515,4.3515,4.3515,4.3515,4.3515,4.3515,4.3516,4.4144,4.3992,4.323,4.3316,4.2967,4.2295,4.1563,4.1263,4.1263,4.1263,4.1263,4.1353,4.224,4.2854,4.3358,6.3472,6.4327,6.4667,6.3235,6.2753,6.296,6.4009,6.2806,6.1931,6.2351,6.2105,6.1523,6.0583,5.9214,0.0,5.915,5.7317,5.6555,5.7534,5.6259,5.5193,5.4594,5.3824,5.2586,5.0861,0.0,0.0,4.8677,4.8459,4.867,4.9335,5.0453,5.1279,5.1835,5.2252,5.2729,5.3185,5.3185,5.3185,5.3185,5.3185,5.3185,5.3185,5.3185,5.3185,5.3143,5.2684,5.2335,5.2042,5.1618,5.0434,4.915,4.915,4.8812,4.8224,4.7098,4.7512,4.821,4.7838,4.8015,4.8306,4.8306,4.8306,4.8012,4.6892,4.5149,4.3613,4.3104,4.2995,4.3087,4.3427,4.3515,4.3515,4.3515,4.3515,4.3515,4.3515,0.0,0.0,0.0,0.0,0.0,0.0,4.3303,0.0,0.0,0.0,0.0,0.0,0.0,0.0,4.3515,4.3515,0.0,4.3515,4.3515,4.3662,4.3956,4.425,4.4397,4.4415,4.5241,4.526,4.4649,4.4436,4.3978,4.3268,4.2559,4.2105,4.196,4.2489,4.2414,4.2114,4.3239,4.35,4.3434,6.284,6.393,0.0,0.0,6.3083,0.0,6.4672,6.3606,6.2892,6.3609,6.3169,6.2755,6.2709,6.0657,5.9293,5.9293,0.0,0.0,0.0,5.6938,5.6212,5.463,5.393,5.3123,5.2228,5.0857,5.0129,5.009,4.9389,4.9436,5.0143,5.0852,5.1916,5.3185,5.3185,5.3185,5.3185,5.3185,5.3185,5.3185,5.3185,5.3185,5.3185,5.3185,5.3185,5.3185,5.3185,5.2769,5.2177,5.2177,5.1148,4.9861,4.9861,4.9161,4.8264,4.7653,4.7877,4.8306,4.8306,4.8306,4.8306,4.8306,4.8233,4.7737,4.6232,4.4654,4.3515,4.3515,4.3515,4.3515,4.3515,4.3515,4.3515,4.3515,4.3515,4.3515,4.3515,0.0,0.0,0.0,0.0,0.0,0.0,4.3515,4.3515,0.0,0.0,0.0,0.0,0.0,4.3515,4.3515,4.3551,4.3588,4.3588,4.3643,4.403,4.4783,4.5535,4.5902,4.592,4.6727,4.6691,4.5957,4.5467,4.4815,4.4068,4.3411,4.2806,4.2438,4.3689,4.3456,4.2566,4.3914,4.4035,4.3745,0.0,0.0,6.3956,6.3764,6.2555,6.2155,6.3851,6.3239,6.2474,6.2128,6.2979,6.3177,6.2009,6.0838,6.0121,6.0121,5.8141,5.7134,5.7703,5.7209,5.6432,5.5392,5.5161,5.415,5.2161,5.1782,5.135,5.085,5.0118,5.0385,5.1611,5.1766,5.2335,5.3185,5.3185,5.3185,5.3185,5.3185,5.3185,5.3185,5.3185,5.3185,5.3185,5.3185,5.3185,5.3185,5.3185,5.3082,5.2937,5.2937,5.2279,5.1478,5.1478,5.0462,4.9131,4.8315,4.8191,4.8306,4.8306,4.8306,4.8306,4.8306,4.7388,4.6379,4.5993,4.4654,4.3515,4.3515,4.3515,4.3515,4.3515,4.3515,4.3515,4.3515,4.3515,4.3515,4.3515,4.3515,0.0,0.0,4.3515,4.3515,4.3515,4.3515,4.3515,0.0,0.0,0.0,0.0,4.3515,4.3515,4.3515,4.4103,4.4415,4.4415,4.5021,4.5424,4.5626,4.581,4.5902,4.592,4.6727,4.7003,4.6819,4.667,4.6522,4.6264,4.5025,4.4426,4.4296,4.4108,4.3862,4.3663,4.4141,4.457,4.4929,6.3795,6.4358,6.4785,6.4357,6.3274,6.2858,6.4201,6.3708,6.3208,6.3213,6.3699,6.3675,6.2847,6.1334,6.0401,6.0401,5.8568,5.7565,5.7973,5.7613,5.6859,5.5647,5.5614,5.4501,5.2149,5.2112,5.1765,5.1086,5.0689,5.1042,5.2112,5.2112,5.249,5.3185,5.3185,5.3185,5.3185,5.3185,5.3427,5.3757,5.3757,5.3757,5.3757,5.3757,5.3537,5.3185,5.3185,5.3185,5.3185,5.3185,5.2674,5.1995,5.1995,5.1132,5.005,4.9572,4.8912,4.8306,4.8306,4.8306,4.8306,4.8306,4.737,4.6452,4.6452,4.5204,4.4048,4.4048,4.3754,4.3515,4.3515,4.3515,4.3515,4.3515,4.3515,4.3515,4.3515,4.3515,0.0,4.3515,4.3515,4.3515,4.3515,4.3515,4.3515,4.3515,0.0,0.0,4.3515,4.3846,4.4048,4.4048,4.447,4.4892,4.5241,4.6049,4.6452,4.6452,4.6819,4.7003,4.7021,4.7443,4.7645,4.7626,4.7259,4.7094,4.702,4.5983,4.5357,4.5078,4.5101,4.4769,4.4341,4.5015,4.5147,4.5192,6.3846,6.5052,6.5984,6.5311,6.4339,6.3995,6.5152,6.4423,6.408,6.4995,6.4512,6.3998,6.3741,6.1722,6.0346,6.0236,5.8859,5.7997,5.7997,5.7997,5.7336,5.5849,5.5647,5.46,5.2488,5.2232,5.188,5.1411,5.131,5.1593,5.2271,5.2271,5.2599,5.3185,5.3185,5.328,5.339,5.339,5.3849,5.4583,5.4583,5.4583,5.4564,5.4454,5.3977,5.3369,5.3243,5.3185,5.3185,5.3185,5.2747,5.2179,5.2179,5.1628,5.0986,5.0986,4.9903,4.8691,4.8691,4.86,4.8471,4.8343,4.77,4.7094,4.7094,4.5938,4.4892,4.4892,4.4232,4.3681,4.3681,4.3588,4.3515,4.3515,4.3515,4.3515,4.3515,0.0,4.3551,4.3663,4.3681,4.3718,4.3863,4.3846,4.3846,4.3846,4.3846,4.3846,0.0,4.4507,4.4947,4.5058,4.5058,4.5461,4.625,4.6929,4.7278,4.7296,4.788,4.821,4.8287,4.821,4.821,4.8269,4.7571,4.7351,4.7423,4.6716,4.6154,4.58,4.628,4.5771,4.4918,4.6015,4.5866,4.5401,6.3719,6.453,6.5408,6.6077,6.4345,6.364,6.5916,6.4411,6.3292,6.4178,6.4163,6.3558,6.2126,6.1043,6.0144,5.9441,5.8547,5.7997,5.7997,5.7997,5.7593,5.6657,5.5959,5.513,5.4067,5.2771,5.2358,5.2872,5.2266,5.2312,5.302,5.302,5.3082,5.3185,5.3185,5.3592,5.4216,5.4216,5.4675,5.5409,5.5409,5.5409,5.5335,5.4656,5.4326,5.4124,5.3445,5.3185,5.3185,5.3185,5.3112,5.3023,5.3023,5.2454,5.1811,5.1811,5.1151,5.0417,5.0417,4.9921,4.9225,4.8489,4.77,4.7094,4.7094,4.6379,4.5718,4.5718,4.5076,4.4525,4.4525,4.3956,4.3515,4.3515,4.3515,4.3515,4.3515,0.0,4.3754,4.4433,4.4525,4.4782,4.5461,4.5535,4.5535,4.5535,4.5535,4.5535,4.5535,4.5645,4.603,4.6709,4.6727,4.7113,4.7921,4.8049,4.8122,4.8103,4.7722,4.7797,4.8287,4.7777,4.7818,4.8306,4.8177,4.8526,4.9128,4.7904,4.7724,4.8137,4.7145,4.6243,4.5631,4.6305,4.6872,4.7234,6.5151,6.5855,6.6576,6.7024,6.5452,6.4509,6.5673,6.4116,6.2941,6.3342,6.3392,6.2934,6.1722,6.0878,6.0089,5.9258,5.8455,5.7997,5.7997,5.7997,5.7648,5.684,5.6033,5.5023,5.3794,5.3076,5.2853,5.3185,5.2853,5.2853,5.3185,5.3185,5.3424,5.3849,5.3849,5.4074,5.4449,5.4449,5.4677,5.5051,5.5474,5.5636,5.5611,5.5206,5.4785,5.4289,5.35,5.3185,5.3185,5.3185,5.3185,5.3112,5.2692,5.2601,5.2564,5.2123,5.1426,5.071,5.027,4.9886,4.939,4.8526,4.8012,4.7736,4.7736,4.7113,4.6562,4.6562,4.592,4.5223,4.4764,4.4397,4.4158,4.4158,4.3773,0.0,0.0,4.4158,4.4287,4.4672,4.5094,4.5498,4.5865,4.5902,4.5902,4.5902,4.5902,4.5902,4.5902,4.6305,4.6709,4.7094,4.7516,4.7921,4.8306,4.8765,4.9003,4.9003,4.8744,4.8775,4.9029,4.832,4.8142,4.8431,4.8829,4.9224,4.957,4.9,4.9018,4.9222,4.7844,4.69,4.6313,4.6908,4.7169,4.73,6.6404,6.7099,6.7632,6.7448,6.6237,6.5319,6.5319,6.3863,6.2879,6.308,6.2934,6.2438,6.1429,6.0768,6.0015,5.9024,5.8364,5.7997,5.7997,5.7997,5.7721,5.7116,5.6308,5.5133,5.3497,5.3665,5.3683,5.3482,5.3482,5.339,5.3185,5.339,5.3812,5.4399,5.4411,5.4563,5.4769,5.4583,5.4625,5.4839,5.5454,5.57,5.5669,5.5429,5.497,5.4312,5.3491,5.3185,5.3185,5.3185,5.3185,5.3075,5.2472,5.2711,5.3096,5.2454,5.1848,5.1151,5.0161,4.9886,4.9609,4.8563,4.8306,4.8306,4.8306,4.781,4.7369,4.7369,4.6746,4.5993,4.537,4.5095,4.4984,4.4984,0.0,0.0,0.0,4.4984,4.5057,4.5241,4.5975,4.6452,4.6452,4.6636,4.6728,4.6746,4.6746,4.6746,4.6746,4.7535,4.7865,4.7681,4.8288,4.86,4.86,4.9444,4.9886,4.9866,4.9629,4.9572,4.9668,4.8563,4.8222,4.8532,4.9097,4.9565,4.9901,5.0014,5.0168,5.0222,4.9019,4.7989,4.7255,4.7875,4.7703,4.7379,6.6404,6.7099,6.7448,6.6714,6.587,6.5319,6.5319,6.3863,6.3099,6.3888,6.3301,6.2218,6.0658,6.0438,5.9777,5.8217,5.8033,5.7997,5.7997,5.7997,5.796,5.7905,5.7152,5.5959,5.4344,5.5042,5.506,5.4308,5.4308,5.394,5.3203,5.3959,5.4344,5.4396,5.4464,5.4916,5.5563,5.4812,5.4937,5.5635,5.5692,5.5692,5.5616,5.4863,5.4537,5.4375,5.3504,5.3185,5.3185,5.3185,5.3185,5.3185,5.3133,5.3148,5.3185,5.3133,5.3057,5.2671,5.1132,5.071,5.0325,4.871,4.8306,4.8306,4.8306,4.8251,4.8214,4.8214,4.7571,4.6984,4.6929,4.6324,4.581,4.581,0.0,0.0,4.5792,4.581,4.6104,4.6837,4.7626,4.8122,4.8122,4.8802,4.9242,4.9317,4.9335,4.9335,4.9335,5.0086,5.0196,4.9445,4.9482,4.95,4.95,5.0306,5.071,5.069,4.9457,4.9156,4.9622,4.7638,4.7379,4.851,4.8616,4.9452,5.0725,5.079,5.1264,5.1861,5.1139,4.9955,4.8721,4.9321,4.9077,4.8572,6.7202,6.7058,6.6861,6.6549,6.5411,6.4549,6.4549,6.3558,6.2909,6.3264,6.2567,6.163,6.0529,5.996,5.9226,5.8107,5.7997,5.7997,5.7997,5.7997,5.7776,5.7281,5.6969,5.629,5.517,5.5427,5.5207,5.4399,5.4399,5.4234,5.3959,5.4252,5.4696,5.5214,5.5243,5.5177,5.4985,5.4694,5.4465,5.4356,5.4343,5.4343,5.4285,5.3905,5.3755,5.3701,5.3339,5.3185,5.3185,5.3185,5.3185,5.3115,5.2619,5.2803,5.3185,5.3185,5.3185,5.2968,5.1848,5.1187,5.0428,4.8855,4.8099,4.7736,4.7736,4.7736,4.7856,4.821,4.8489,4.8489,4.7938,4.7994,4.8122,4.8122,0.0,4.6838,4.7315,4.6966,4.6929,4.7736,4.8581,4.9297,4.9811,5.0123,5.0325,5.0343,5.0343,5.0343,5.0343,5.0637,5.0435,4.9629,5.0583,5.062,4.961,5.0875,5.1536,5.1536,5.1081,5.0958,5.1128,4.9329,4.8591,4.8728,4.959,5.0047,5.0286,5.1723,5.2517,5.2707,5.1994,5.1078,5.0174,5.0397,5.029,5.0118,6.7687,6.7045,6.6421,6.6164,6.4989,6.3998,6.3723,6.3191,6.278,6.278,6.2328,6.1667,6.086,6.007,5.9263,5.8455,5.8143,5.7997,5.7997,5.7997,5.7648,5.684,5.7042,5.6804,5.5978,5.6216,5.5831,5.4785,5.4785,5.4638,5.4418,5.4656,5.5222,5.6031,5.5785,5.5423,5.4922,5.4713,5.4186,5.35,5.3487,5.3358,5.3094,5.2767,5.2755,5.2958,5.2867,5.2999,5.3185,5.3185,5.3185,5.3093,5.2546,5.2602,5.2915,5.3124,5.3042,5.2787,5.2467,5.1793,5.0812,4.9289,4.8149,4.7406,4.7406,4.7237,4.7259,4.7897,4.8693,4.9173,4.8782,4.937,4.9903,4.9903,4.8985,4.8434,4.9022,4.8618,4.847,4.9022,4.9829,5.0453,5.0765,5.1041,5.1187,5.1187,5.1187,5.1298,5.1555,5.1077,5.0655,5.0363,5.1428,5.1483,5.0363,5.1701,5.238,5.238,5.2173,5.2112,5.2035,5.0245,4.9442,4.9489,5.0196,5.0487,5.0646,5.2453,5.3185,5.3164,5.264,5.1978,5.1314,5.1248,5.1107,5.0958,6.7687,6.7026,6.6237,6.543,6.4622,6.3796,6.2934,6.278,6.278,6.278,6.278,6.2493,6.1686,6.0878,6.0089,5.9258,5.8474,5.7997,5.7997,5.7997,5.7648,5.684,5.7574,5.7629,5.684,5.7593,5.7207,5.5614,5.5614,5.5188,5.4436,5.5225,5.6033,5.6772,5.6036,5.5706,5.5649,5.4922,5.4186,5.3517,5.3501,5.3035,5.2212,5.1503,5.1633,5.2201,5.2143,5.2576,5.3185,5.3185,5.3185,5.3185,5.3185,5.2684,5.2247,5.298,5.2684,5.2271,5.2999,5.2619,5.161,5.0014,4.8514,4.7403,4.7403,4.6887,4.6594,4.7255,4.8034,4.8825,4.9493,5.027,5.082,5.082,5.082,5.082,5.082,5.0802,5.0802,5.082,5.1499,5.1683,5.0894,5.1536,5.1995,5.1995,5.1995,5.2362,5.317,5.1701,5.1187,5.1958,5.1995,5.1995,5.1995,5.2803,5.3185,5.3185,5.2468,5.2112,5.2035,4.9839,4.9585,5.0867,5.0114,5.0649,5.205,5.2876,5.3185,5.3185,5.3185,5.2711,5.1995,5.1995,5.1499,5.093,6.6861,6.6219,6.5411,6.4604,6.3759,6.3099,6.286,6.278,6.278,6.278,6.231,6.1869,6.163,6.0878,6.0089,5.9258,5.8964,5.8602,5.8033,5.7997,5.7886,5.7648,5.7868,5.7886,5.7648,5.7886,5.7483,5.6436,5.6436,5.6326,5.6088,5.6326,5.6611,5.6865,5.6639,5.6214,5.5678,5.5466,5.4905,5.4173,5.3629,5.2941,5.2204,5.1917,5.1951,5.2204,5.269,5.302,5.3185,5.3185,5.3185,5.3185,5.3185,5.2684,5.2247,5.298,5.2684,5.2271,5.2999,5.2619,5.1765,5.082,4.942,4.8127,4.7722,4.698,4.6613,4.737,4.8537,4.9675,5.0369,5.1594,5.2491,5.2491,5.2013,5.1628,5.1628,5.1151,5.1004,5.1573,5.1848,5.2123,5.2454,5.2711,5.2839,5.2839,5.2839,5.2949,5.3206,5.2726,5.2344,5.1995,5.2546,5.2564,5.1995,5.2803,5.3185,5.3185,5.2977,5.2875,5.2817,5.1588,5.103,5.0972,5.1227,5.1347,5.1409,5.2673,5.3185,5.3185,5.3185,5.3059,5.2839,5.2839,5.2692,5.2527,6.6494,6.5595,6.4677,6.4182,6.3392,6.278,6.278,6.278,6.278,6.278,6.2383,6.2071,6.2071,6.108,6.0199,5.9722,5.9098,5.8529,5.8033,5.7997,5.7997,5.7997,5.7997,5.7997,5.7997,5.7997,5.7611,5.6804,5.6804,5.6804,5.6804,5.6804,5.6982,5.7309,5.7015,5.6642,5.6159,5.6159,5.5709,5.4899,5.4163,5.338,5.2591,5.1929,5.188,5.2159,5.2599,5.316,5.3628,5.3295,5.3185,5.3164,5.2853,5.2289,5.1783,5.2242,5.206,5.1856,5.2576,5.2633,5.2391,5.1978,5.0202,4.8487,4.8148,4.7015,4.6323,4.7378,4.8574,4.9844,5.1128,5.2379,5.3316,5.3628,5.3004,5.2472,5.2472,5.2068,5.194,5.2417,5.2472,5.2674,5.3148,5.3185,5.3185,5.3185,5.3185,5.3185,5.3185,5.3185,5.2986,5.2491,5.2949,5.2968,5.2472,5.2968,5.3185,5.3185,5.3185,5.3185,5.3167,5.2362,5.1938,5.1875,5.1962,5.1956,5.193,5.284,5.3185,5.3185,5.3185,5.3185,5.3185,5.3185,5.3185,5.3185,6.6292,6.5099,6.4071,6.3998,6.3337,6.278,6.278,6.278,6.278,6.278,6.275,6.2707,6.278,6.1374,6.0401,6.0401,5.8933,5.7997,5.7997,5.7997,5.7997,5.7997,5.7997,5.7997,5.7997,5.7997,5.7648,5.6914,5.6914,5.6914,5.6914,5.6914,5.7299,5.7973,5.7302,5.6989,5.6989,5.6989,5.6536,5.5727,5.4975,5.4209,5.3327,5.1835,5.1661,5.2201,5.2201,5.3149,5.4289,5.3491,5.3213,5.3068,5.2266,5.1544,5.1008,5.1086,5.1086,5.1241,5.1928,5.264,5.3185,5.3185,5.103,4.8898,4.8814,4.7251,4.6168,4.7467,4.8395,4.9624,5.1634,5.2662,5.3445,5.4179,5.3683,5.3185,5.3185,5.3185,5.3185,5.3185,5.3185,5.3185,5.3185,5.3185,5.3185,5.3185,5.3185,5.3185,5.3185,5.3185,5.3222,5.3316,5.3243,5.3222,5.3295,5.3243,5.3185,5.3185,5.3185,5.3185,5.3167,5.2435,5.2509,5.317,5.2435,5.2527,5.3185,5.3185,5.3185,5.3185,5.3143,5.3103,5.3103,5.302,5.306,5.3103,6.4622,6.4328,6.387,6.3209,6.2934,6.278,6.278,6.278,6.278,6.278,6.2254,6.2108,6.275,6.1374,6.0401,6.0401,5.8933,5.7997,5.7997,5.7997,5.7997,5.7997,5.7997,5.7997,5.7997,5.7997,5.7905,5.774,5.774,5.774,5.774,5.774,5.7831,5.7997,5.7839,5.775,5.775,5.775,5.7295,5.6502,5.5693,5.4884,5.4073,5.3107,5.2831,5.2959,5.2959,5.3576,5.4298,5.3517,5.3282,5.3061,5.174,5.0823,5.0335,5.0929,5.1086,5.1241,5.1928,5.264,5.3185,5.3185,5.2223,5.1137,5.0592,4.9234,4.8201,4.8538,4.9231,5.009,5.1114,5.2353,5.3259,5.3424,5.3295,5.3185,5.3185,5.3185,5.3185,5.3185,5.3185,5.3185,5.3185,5.3185,5.3185,5.3185,5.3185,5.3185,5.3185,5.3185,5.35,5.4124,5.3537,5.35,5.4124,5.3518,5.3185,5.3185,5.3185,5.3185,5.3185,5.3023,5.3041,5.3185,5.3023,5.3041,5.3185,5.3185,5.3185,5.3124,5.2576,5.2335,5.2271,5.1752,5.1898,5.2335,6.4604,6.4035,6.3337,6.2897,6.278,6.278,6.278,6.278,6.278,6.278,6.2108,6.1759,6.2181,6.0805,5.9685,5.9281,5.8492,5.7997,5.7997,5.7997,5.7997,5.7997,5.7997,5.7997,5.7997,5.7997,5.7997,5.7997,5.7997,5.7997,5.7997,5.7997,5.7997,5.7997,5.7997,5.7997,5.7997,5.7997,5.7758,5.7281,5.6069,5.5335,5.484,5.3665,5.3185,5.3185,5.3185,5.372,5.4349,5.403,5.3634,5.2978,5.1158,5.0324,5.0004,5.0079,5.0572,5.1164,5.1519,5.2399,5.3185,5.3185,5.2894,5.2391,5.1639,5.0326,4.9388,4.9784,5.0186,5.0813,5.1933,5.274,5.3335,5.372,5.3775,5.3775,5.3775,5.4106,5.4197,5.383,5.3775,5.3628,5.3243,5.2875,5.2831,5.3185,5.3185,5.3369,5.3757,5.3775,5.4142,5.495,5.4197,5.4161,5.495,5.4179,5.3977,5.4344,5.3573,5.3185,5.3185,5.3185,5.3185,5.3185,5.3185,5.3185,5.3185,5.3185,5.298,5.264,5.2247,5.1904,5.1569,5.1215,5.1317,5.1667,6.4751,6.3759,6.278,6.278,6.278,6.278,6.278,6.278,6.278,6.278,6.1979,6.1502,6.1777,6.0382,5.9043,5.807,5.7997,5.7997,5.7997,5.7997,5.7997,5.7997,5.7997,5.7997,5.7997,5.7997,5.7997,5.7997,5.7997,5.7997,5.7997,5.7997,5.7997,5.7997,5.7997,5.7997,5.7997,5.7997,5.7997,5.785,5.6235,5.5688,5.5611,5.3885,5.3277,5.3427,5.3427,5.4014,5.4789,5.4647,5.4055,5.2942,5.0697,4.9919,4.9751,4.9316,5.0107,5.1138,5.1241,5.2219,5.3185,5.3185,5.3185,5.3078,5.2527,5.1373,5.0565,5.1187,5.1249,5.1645,5.3033,5.3126,5.3262,5.4066,5.4308,5.4399,5.4399,5.5078,5.5335,5.4675,5.4367,5.3899,5.3093,5.2376,5.2177,5.2787,5.3065,5.3514,5.4173,5.4466,5.4968,5.5776,5.5023,5.4987,5.5794,5.5005,5.4932,5.5596,5.4252,5.361,5.361,5.3482,5.3482,5.361,5.361,5.3537,5.3387,5.3283,5.2789,5.2089,5.1856,5.1419,5.0929,5.106,5.1164,5.1343,6.3135,6.2945,6.278,6.278,6.278,6.278,6.278,6.278,6.278,6.278,6.1502,6.1098,6.2493,6.1208,5.963,5.8125,5.7997,5.7997,5.7997,5.7997,5.7997,5.7997,5.7997,5.7997,5.7997,5.7997,5.7997,5.7997,5.7997,5.7997,5.7997,5.7997,5.7997,5.7997,5.7997,5.7997,5.7997,5.7997,5.7997,5.785,5.6235,5.6014,5.64,5.4087,5.3628,5.4234,5.4234,5.5207,5.6291,5.5009,5.4097,5.3078,5.0732,4.9593,4.9226,4.9722,5.0445,5.1215,5.1808,5.2554,5.3185,5.3185,5.3185,5.3353,5.394,5.3426,5.284,5.2948,5.2527,5.2371,5.3159,5.2707,5.2504,5.325,5.3959,5.4399,5.4399,5.5078,5.5556,5.5445,5.4246,5.3121,5.232,5.1618,5.1266,5.1386,5.2576,5.332,5.3429,5.4702,5.5812,5.662,5.5849,5.5812,5.6638,5.5831,5.5504,5.5614,5.5372,5.5262,5.5244,5.4546,5.462,5.5262,5.5262,5.4876,5.4191,5.3553,5.2821,5.1976,5.0752,5.0241,5.0213,5.0876,5.1469,5.1976,6.3429,6.3135,6.297,6.3447,6.3521,6.3521,6.3521,6.3521,6.3356,6.2853,6.1796,6.1172,6.1429,6.0015,5.8767,5.8052,5.7997,5.7997,5.7997,5.7997,5.7997,5.7997,5.7997,5.7997,5.7997,5.7997,5.7997,5.7997,5.7997,5.7997,5.7997,5.7997,5.7997,5.7997,5.7997,5.7997,5.7997,5.7997,5.7997,5.7886,5.6748,5.6492,5.6602,5.462,5.4363,5.5133,5.5592,5.6198,5.664,5.5632,5.5055,5.4444,5.2543,5.1441,5.0902,5.1192,5.1448,5.1716,5.2024,5.264,5.3185,5.3185,5.3555,5.3959,5.4326,5.4842,5.5135,5.4679,5.4342,5.4097,5.3941,5.3986,5.4022,5.3897,5.4932,5.5739,5.5739,5.6418,5.6767,5.6326,5.4504,5.3165,5.2804,5.1744,5.1086,5.1086,5.208,5.3071,5.3995,5.5075,5.6221,5.7423,5.6693,5.6657,5.7464,5.6675,5.6492,5.6932,5.6492,5.6033,5.5574,5.5225,5.5244,5.5614,5.5614,5.539,5.4979,5.3787,5.2875,5.2118,5.1035,5.0608,5.0689,5.1393,5.1593,5.1643]}]]